Date StartTime U_cm/s V_cm/s W_cm/s Ustd_cm/s Vstd_cm/s Wstd_cm/s Uvar_(cm/s)^2 Vvar_(cm/s)^2 Wvar_(cm/s)^2 KE_(m/s)^2 TurbulentKE_(m/s)^2 HorizWindSpeed_cm/s FrictionSpeec_cm/s DragCoef SpeedOfSound_m/s SonicTemperature_C Pressure_mb 
01/14/2015  00:00:00       12.315        8.604       -2.634        5.790        9.815        4.668       33.522       96.336       21.793        0.019        0.008       15.023        1.422        0.009      331.941        0.279      868.478
01/14/2015  00:01:00       25.249        0.075        2.616       10.619        9.396        6.836      112.772       88.294       46.728        0.045        0.012       25.249        3.750        0.022      331.983        0.350      868.477
01/14/2015  00:02:00       21.190       15.381       -3.943       10.907        7.755        6.343      118.965       60.133       40.233        0.046        0.011       26.184        5.202        0.039      331.959        0.313      868.472
01/14/2015  00:03:00       35.683       23.474        2.081        7.276        7.330        7.122       52.938       53.725       50.721        0.099        0.008       42.712        5.100        0.014      331.965        0.320      868.464
01/14/2015  00:04:00       47.737       25.438        7.461        9.576        6.715        6.600       91.704       45.091       43.555        0.158        0.009       54.092        4.894        0.008      331.961        0.315      868.447
01/14/2015  00:05:00       30.954       16.208        1.938       14.014        8.589        7.839      196.380       73.766       61.454        0.078        0.017       34.941        3.823        0.012      331.948        0.294      868.428
01/14/2015  00:06:00       27.126       17.059        3.007       16.507       12.994       12.309      272.468      168.839      151.523        0.081        0.030       32.044        9.284        0.084      331.919        0.245      868.423
01/14/2015  00:07:00       38.834       21.598        1.289       16.563       10.679       11.572      274.334      114.042      133.919        0.125        0.026       44.436        6.653        0.022      331.937        0.274      868.427
01/14/2015  00:08:00       24.539       12.429        3.174       19.299       15.719       11.311      372.462      247.094      127.943        0.076        0.037       27.508        9.457        0.118      331.863        0.152      868.441
01/14/2015  00:09:00       37.325       20.298        5.177       10.791       11.659       11.003      116.441      135.932      121.066        0.110        0.019       42.487        5.896        0.019      331.874        0.170      868.463
01/14/2015  00:10:00       23.664       19.930       -2.619       13.107       10.220        6.401      171.806      104.443       40.973        0.064        0.016       30.938        3.088        0.010      331.842        0.118      868.473
01/14/2015  00:11:00       14.780        3.607       -2.343        8.506        8.185        6.792       72.346       66.997       46.134        0.021        0.009       15.214        3.103        0.042      331.804        0.054      868.471
01/14/2015  00:12:00       14.046        6.969       -1.015        7.005        9.833        6.607       49.064       96.682       43.654        0.022        0.009       15.679        3.215        0.042      331.845        0.123      868.474
01/14/2015  00:13:00       12.887        9.949       -2.999        5.181        7.768        5.023       26.839       60.336       25.231        0.019        0.006       16.280        4.634        0.081      331.858        0.145      868.472
01/14/2015  00:14:00        0.202        2.083        2.289        5.764       12.053        6.687       33.225      145.264       44.718        0.012        0.011        2.093        6.182        8.724      331.808        0.060      868.467
01/14/2015  00:15:00       17.948        6.103       -1.160       11.933        6.962        4.813      142.393       48.465       23.164        0.029        0.011       18.957        4.334        0.052      331.849        0.128      868.471
01/14/2015  00:16:00       31.987       35.652        1.845       10.831       13.746       13.485      117.319      188.960      181.854        0.139        0.024       47.898        6.317        0.017      331.886        0.190      868.462
01/14/2015  00:17:00       34.076       34.107       15.700       11.774        9.328       12.087      138.617       87.013      146.084        0.147        0.019       48.213        5.460        0.013      331.811        0.066      868.461
01/14/2015  00:18:00       31.325       32.737        5.823        9.499       10.861        8.824       90.225      117.967       77.859        0.119        0.014       45.310        7.152        0.025      331.808        0.063      868.457
01/14/2015  00:19:00       25.354       12.406        6.073       12.113        8.301        6.527      146.725       68.906       42.596        0.055        0.013       28.226        3.049        0.012      331.824        0.087      868.450
01/14/2015  00:20:00       39.506       34.491        1.552       16.134       23.941       13.785      260.312      573.190      190.032        0.189        0.051       52.444       15.247        0.085      331.784        0.021      868.450
01/14/2015  00:21:00       27.004       44.344       -7.927       14.746       25.257       10.568      217.445      637.901      111.678        0.186        0.048       51.919       12.941        0.062      331.780        0.016      868.450
01/14/2015  00:22:00       17.334       63.903      -10.504       12.625       21.194       11.500      159.396      449.167      132.245        0.262        0.037       66.212       11.284        0.029      331.782        0.020      868.459
01/14/2015  00:23:00       -1.257       63.412      -10.799       15.213        9.607       10.269      231.439       92.297      105.457        0.228        0.021       63.424        7.009        0.012      331.814        0.071      868.470
01/14/2015  00:24:00       -5.776       65.444      -13.783        6.144        9.299        7.471       37.746       86.474       55.811        0.234        0.009       65.698        4.961        0.006      331.828        0.095      868.482
01/14/2015  00:25:00       -7.995       56.213       -5.804       16.247       10.405        6.930      263.968      108.273       48.026        0.184        0.021       56.779        6.595        0.013      331.788        0.028      868.495
01/14/2015  00:26:00      -24.950       27.179       -0.216       20.631       27.808       12.710      425.641      773.301      161.544        0.136        0.068       36.894       11.367        0.095      331.799        0.047      868.501
01/14/2015  00:27:00      -42.019       -7.983      -11.436       12.142       11.511        9.287      147.424      132.504       86.253        0.116        0.018       42.771        6.663        0.024      331.367       -0.663      868.518
01/14/2015  00:28:00      -56.471      -15.036      -15.125       15.547       12.680        8.737      241.700      160.790       76.334        0.206        0.024       58.438        6.642        0.013      331.242       -0.868      868.541
01/14/2015  00:29:00      -66.491      -38.056      -11.652       16.688       16.157        9.492      278.485      261.041       90.098        0.332        0.031       76.612        5.351        0.005      331.181       -0.970      868.569
01/14/2015  00:30:00      -54.199      -39.187       -8.350       28.546       19.808       14.681      814.890      392.371      215.542        0.298        0.071       66.882        7.549        0.013      331.194       -0.948      868.579
01/14/2015  00:31:00     -119.050      -45.501      -21.081       17.070       19.678       11.672      291.385      387.231      136.234        0.875        0.041      127.449        5.380        0.002      331.184       -0.965      868.579
01/14/2015  00:32:00      -92.851      -28.422      -12.934       11.049       15.098        9.258      122.077      227.957       85.706        0.502        0.022       97.103        6.923        0.005      331.284       -0.800      868.578
01/14/2015  00:33:00     -104.544      -26.082      -12.760       18.008       11.416        7.669      324.285      130.329       58.809        0.614        0.026      107.749        3.882        0.001      331.393       -0.622      868.579
01/14/2015  00:34:00      -88.679      -11.405      -12.941       21.043       13.334       11.332      442.800      177.804      128.411        0.446        0.037       89.409       10.582        0.014      331.415       -0.586      868.576
01/14/2015  00:35:00      -95.046       -5.253      -12.072       17.508       13.000       12.911      306.546      168.988      166.706        0.492        0.032       95.191        8.434        0.008      331.422       -0.575      868.574
01/14/2015  00:36:00      -66.106       -8.120      -15.058       12.151       12.679       12.619      147.654      160.766      159.249        0.257        0.023       66.602        5.387        0.007      331.444       -0.537      868.573
01/14/2015  00:37:00      -61.116      -28.130      -12.440       11.679       11.623        7.646      136.409      135.103       58.454        0.251        0.016       67.279        4.075        0.004      331.505       -0.437      868.564
01/14/2015  00:38:00      -55.787      -25.223       -9.044       17.175       17.360        8.931      294.982      301.361       79.765        0.225        0.034       61.223        5.440        0.008      331.479       -0.480      868.561
01/14/2015  00:39:00      -33.685      -17.813       -7.881       14.425       16.639       10.974      208.090      276.850      120.428        0.106        0.030       38.105        8.720        0.052      331.484       -0.472      868.565
01/14/2015  00:40:00      -37.610      -23.007       -5.867       16.174       10.646       10.986      261.609      113.331      120.690        0.124        0.025       44.089        6.175        0.020      331.475       -0.486      868.563
01/14/2015  00:41:00      -60.546      -26.998      -10.007       11.853       11.951       11.500      140.505      142.821      132.247        0.246        0.021       66.293        7.535        0.013      331.442       -0.540      868.553
01/14/2015  00:42:00      -56.238      -31.726      -10.054       12.497       13.324        9.098      156.163      177.528       82.768        0.234        0.021       64.570        5.718        0.008      331.431       -0.558      868.548
01/14/2015  00:43:00      -68.298      -29.288       -8.937        7.286        8.814        6.820       53.089       77.691       46.507        0.289        0.009       74.313        2.654        0.001      331.402       -0.607      868.551
01/14/2015  00:44:00      -96.428      -17.733      -13.788       12.063       14.288       10.772      145.505      204.149      116.041        0.513        0.023       98.045        8.615        0.008      331.414       -0.588      868.544
01/14/2015  00:45:00     -105.508      -16.097      -19.318       10.746        8.498        7.357      115.483       72.216       54.119        0.600        0.012      106.729        1.751        0.000      331.448       -0.532      868.542
01/14/2015  00:46:00      -83.411      -17.822      -12.506       11.546       10.094        6.928      133.303      101.896       48.001        0.386        0.014       85.294        4.105        0.002      331.454       -0.522      868.537
01/14/2015  00:47:00      -89.362      -23.562      -15.375        6.825       10.815        8.120       46.575      116.975       65.932        0.450        0.011       92.416        2.879        0.001      331.513       -0.424      868.529
01/14/2015  00:48:00      -89.179      -20.635      -10.990       10.795        9.288        8.938      116.526       86.263       79.888        0.439        0.014       91.536        3.839        0.002      331.517       -0.417      868.527
01/14/2015  00:49:00      -72.134      -21.325      -12.605       11.496        9.879        8.305      132.167       97.596       68.979        0.306        0.015       75.220        4.603        0.004      331.502       -0.441      868.524
01/14/2015  00:50:00      -64.664      -32.517      -10.827        6.887        7.453        6.424       47.435       55.551       41.272        0.275        0.007       72.380        3.084        0.002      331.558       -0.350      868.528
01/14/2015  00:51:00      -69.985      -32.854      -14.668        7.239        8.076        6.755       52.408       65.223       45.628        0.318        0.008       77.313        3.398        0.002      331.623       -0.243      868.530
01/14/2015  00:52:00      -70.819      -37.345       -9.235        6.592        8.608        5.480       43.461       74.095       30.031        0.332        0.007       80.062        2.741        0.001      331.548       -0.364      868.536
01/14/2015  00:53:00      -78.567      -34.058      -16.424        6.371        5.084        6.724       40.585       25.844       45.209        0.386        0.006       85.632        1.902        0.000      331.573       -0.324      868.540
01/14/2015  00:54:00      -83.773      -35.860      -10.345       10.423       10.972        6.408      108.630      120.389       41.056        0.434        0.014       91.125        1.469        0.000      331.529       -0.397      868.533
01/14/2015  00:55:00      -86.262      -14.477      -15.334       12.687       12.152        9.844      160.954      147.667       96.895        0.415        0.020       87.468        7.665        0.008      331.415       -0.586      868.527
01/14/2015  00:56:00      -55.746        6.962      -10.634       19.336       16.176       15.804      373.871      261.663      249.769        0.208        0.044       56.179       14.908        0.070      331.474       -0.488      868.521
01/14/2015  00:57:00      -62.026      -12.207      -13.246       12.559       11.060       10.517      157.731      122.319      110.610        0.228        0.020       63.216        4.501        0.005      331.418       -0.580      868.521
01/14/2015  00:58:00      -66.035      -11.332       -7.798       13.115       18.124       12.089      172.014      328.487      146.147        0.260        0.032       67.000        9.776        0.021      331.367       -0.664      868.527
01/14/2015  00:59:00      -72.807       -9.943       -9.308       20.666       20.006       10.121      427.099      400.230      102.429        0.321        0.046       73.483        4.607        0.004      331.406       -0.599      868.527
01/14/2015  01:00:00      -26.793       -6.694       -7.044       27.398       22.875       12.731      750.644      523.244      162.085        0.112        0.072       27.616       14.706        0.284      331.391       -0.625      868.523
01/14/2015  01:01:00      -45.675        2.829       -3.777       26.276       28.914       15.067      690.436      835.999      227.000        0.193        0.088       45.763       17.739        0.150      331.381       -0.641      868.521
01/14/2015  01:02:00      -62.061       -5.017       -6.403       37.017       20.765       14.870     1370.265      431.190      221.123        0.297        0.101       62.263       14.597        0.055      331.278       -0.810      868.527
01/14/2015  01:03:00     -113.234       -4.308      -15.995       22.791       14.240       14.567      519.407      202.779      212.194        0.702        0.047      113.316       13.821        0.015      331.244       -0.867      868.543
01/14/2015  01:04:00      -85.094      -13.779      -13.632       27.945       20.665       14.185      780.898      427.045      201.205        0.451        0.070       86.202       13.303        0.024      331.168       -0.991      868.570
01/14/2015  01:05:00      -89.527      -11.174      -15.030       25.136       18.930       14.437      631.809      358.346      208.415        0.478        0.060       90.222       13.124        0.021      331.173       -0.983      868.590
01/14/2015  01:06:00      -73.490      -19.027       -7.549       29.023       20.918       18.766      842.334      437.558      352.146        0.373        0.082       75.913       17.300        0.052      331.156       -1.010      868.610
01/14/2015  01:07:00     -103.296       -5.444      -11.083       29.955       22.805       21.745      897.285      520.085      472.835        0.636        0.095      103.439       20.842        0.041      331.098       -1.105      868.614
01/14/2015  01:08:00     -105.707      -12.662      -14.390       28.958       19.691       13.786      838.563      387.736      190.061        0.648        0.071      106.463       14.194        0.018      331.139       -1.039      868.618
01/14/2015  01:09:00      -69.917      -29.169       -1.736       25.970       20.683       13.185      674.449      427.792      173.850        0.351        0.064       75.758        8.393        0.012      331.091       -1.118      868.627
01/14/2015  01:10:00      -91.523      -24.764       -7.704       21.788       15.088       13.923      474.698      227.650      193.849        0.497        0.045       94.815       10.376        0.012      331.174       -0.981      868.637
01/14/2015  01:11:00      -98.067      -20.687       -7.655       31.666       16.059       17.028     1002.728      257.888      289.937        0.583        0.078      100.225       17.065        0.029      331.073       -1.147      868.654
01/14/2015  01:12:00      -94.919      -37.980       -9.995       17.797       19.683       12.085      316.740      387.427      146.052        0.570        0.043      102.236        9.402        0.008      331.156       -1.010      868.663
01/14/2015  01:13:00      -84.385       -8.972      -10.262       16.618       20.699       18.967      276.168      428.449      359.742        0.419        0.053       84.860        9.191        0.012      331.179       -0.973      868.665
01/14/2015  01:14:00      -72.606      -35.713      -15.026       14.720       16.997       12.899      216.669      288.895      166.378        0.372        0.034       80.914       10.091        0.016      331.169       -0.990      868.672
01/14/2015  01:15:00      -79.446      -25.377      -13.581       16.773       13.691       12.720      281.345      187.433      161.800        0.389        0.032       83.401        8.514        0.010      331.211       -0.920      868.678
01/14/2015  01:16:00      -68.209      -37.717      -10.324       27.840       19.226       14.218      775.041      369.626      202.153        0.376        0.067       77.942       10.391        0.018      331.214       -0.914      868.690
01/14/2015  01:17:00      -31.830      -33.549        4.464       33.085       27.204       21.232     1094.621      740.083      450.807        0.222        0.114       46.246       22.912        0.245      331.202       -0.935      868.694
01/14/2015  01:18:00      -58.640      -25.931        0.235       35.739       22.702       16.126     1277.300      515.361      260.036        0.308        0.103       64.118        9.983        0.024      331.200       -0.938      868.700
01/14/2015  01:19:00      -91.834      -44.583       -2.353       42.088       19.039       17.275     1771.439      362.487      298.419        0.643        0.122      102.084       17.145        0.028      331.126       -1.058      868.705
01/14/2015  01:20:00      -80.233      -39.704        0.617       40.099       25.563       20.506     1607.911      653.453      420.499        0.535        0.134       89.519       15.854        0.031      331.187       -0.960      868.700
01/14/2015  01:21:00      -75.426      -69.545        5.213       33.132       29.743       22.789     1097.716      884.646      519.358        0.653        0.125      102.595       19.788        0.037      331.168       -0.992      868.700
01/14/2015  01:22:00      -87.940      -52.201       -5.885       32.783       21.019       13.089     1074.702      441.783      171.333        0.609        0.084      102.266       14.217        0.019      331.116       -1.077      868.689
01/14/2015  01:23:00      -91.113      -66.166       -4.582       26.166       20.558       16.967      684.643      422.628      287.872        0.705        0.070      112.604        9.126        0.007      331.106       -1.093      868.692
01/14/2015  01:24:00      -90.873      -22.594       -4.535       19.479       23.120       16.970      379.421      534.539      287.975        0.500        0.060       93.640       12.445        0.018      331.083       -1.131      868.699
01/14/2015  01:25:00     -117.848       -9.879      -14.483       28.055       20.363       19.664      787.088      414.639      386.655        0.789        0.079      118.261       16.236        0.019      331.011       -1.249      868.701
01/14/2015  01:26:00      -96.730      -16.659       -7.446       30.135       26.879       17.975      908.099      722.500      323.099        0.582        0.098       98.154       14.560        0.022      330.986       -1.290      868.698
01/14/2015  01:27:00     -101.105        0.804       -5.571       36.090       28.929       21.730     1302.499      836.863      472.181        0.643        0.131      101.109       17.432        0.030      331.002       -1.265      868.699
01/14/2015  01:28:00      -60.122      -12.375        0.088       54.074       28.955       18.065     2923.965      838.405      326.333        0.393        0.204       61.383       22.292        0.132      331.023       -1.229      868.704
01/14/2015  01:29:00      -17.501       10.338       -6.177       17.463       15.142       12.224      304.944      229.268      149.419        0.057        0.034       20.327       10.138        0.249      331.110       -1.086      868.702
01/14/2015  01:30:00      -48.855      -14.955       -6.997       22.983       17.443       12.424      528.199      304.265      154.367        0.182        0.049       51.092        7.379        0.021      331.116       -1.076      868.687
01/14/2015  01:31:00      -63.401      -10.579       -8.350       30.611       20.516       14.027      937.055      420.892      196.770        0.288        0.078       64.277        9.728        0.023      331.203       -0.934      868.679
01/14/2015  01:32:00      -88.584      -19.088      -10.925       26.888       18.605       12.076      722.979      346.164      145.841        0.477        0.061       90.617       12.055        0.018      331.120       -1.071      868.691
01/14/2015  01:33:00     -100.178      -35.592      -19.286       18.060       17.501       15.085      326.168      306.268      227.565        0.627        0.043      106.313        9.379        0.008      331.144       -1.032      868.691
01/14/2015  01:34:00     -105.019      -33.249      -19.123       17.023       12.969        9.897      289.799      168.201       97.959        0.653        0.028      110.156        8.785        0.006      331.045       -1.193      868.688
01/14/2015  01:35:00      -80.919      -59.920      -16.883       15.003       15.023       12.918      225.086      225.676      166.888        0.552        0.031      100.689        7.093        0.005      331.086       -1.127      868.689
01/14/2015  01:36:00      -92.983      -30.852      -13.769       16.229       16.747       12.841      263.388      280.464      164.889        0.525        0.035       97.967       10.448        0.011      331.089       -1.120      868.702
01/14/2015  01:37:00      -94.056      -44.177      -15.468       11.065       16.734       10.293      122.436      280.016      105.947        0.577        0.025      103.914        4.564        0.002      331.108       -1.089      868.713
01/14/2015  01:38:00      -88.700      -51.253      -15.551       11.510       14.026       10.396      132.485      196.732      108.076        0.559        0.022      102.443        7.610        0.006      331.086       -1.125      868.727
01/14/2015  01:39:00      -87.213      -44.196      -16.371       13.122       14.641       11.310      172.185      214.365      127.912        0.517        0.026       97.772        5.833        0.004      331.042       -1.200      868.730
01/14/2015  01:40:00      -75.798      -39.202      -11.013       18.220       17.546       10.835      331.967      307.875      117.400        0.408        0.038       85.336        6.626        0.006      331.097       -1.110      868.728
01/14/2015  01:41:00      -72.187      -27.964       -5.923       21.608       18.224       15.036      466.892      332.119      226.090        0.353        0.051       77.414       12.830        0.027      331.132       -1.048      868.718
01/14/2015  01:42:00      -69.318      -23.159       -8.314       30.509       21.367       13.093      930.828      456.527      171.420        0.348        0.078       73.084       13.173        0.032      331.119       -1.071      868.707
01/14/2015  01:43:00      -82.620      -27.176      -12.197       16.048       16.455        9.714      257.544      270.783       94.360        0.417        0.031       86.974        7.514        0.007      331.097       -1.109      868.703
01/14/2015  01:44:00      -65.540      -23.692      -13.337       24.256       15.821       11.535      588.365      250.294      133.068        0.300        0.049       69.691       10.487        0.023      331.066       -1.159      868.696
01/14/2015  01:45:00      -88.595      -14.891      -11.566       36.908       20.221       16.825     1362.186      408.883      283.067        0.513        0.103       89.837       16.604        0.034      331.041       -1.200      868.678
01/14/2015  01:46:00      -83.613      -25.784      -11.587       20.861       19.521       15.586      435.169      381.085      242.908        0.442        0.053       87.498       14.215        0.026      331.058       -1.172      868.666
01/14/2015  01:47:00      -93.362      -30.791      -12.262       27.801       25.938       14.765      772.869      672.787      218.000        0.574        0.083       98.308       13.745        0.020      331.016       -1.241      868.661
01/14/2015  01:48:00      -64.657      -43.843      -11.265       19.735       16.871       14.019      389.488      284.641      196.521        0.355        0.044       78.120        8.137        0.011      331.026       -1.224      868.664
01/14/2015  01:49:00      -72.026      -31.489       -8.458       25.767       18.857       15.496      663.936      355.575      240.119        0.376        0.063       78.609       16.811        0.046      331.060       -1.169      868.665
01/14/2015  01:50:00      -80.100      -36.671      -14.051       12.410       11.779        9.030      154.014      138.754       81.545        0.417        0.019       88.096        6.443        0.005      331.051       -1.183      868.667
01/14/2015  01:51:00      -74.493      -35.993      -11.229       15.118       15.526       11.357      228.565      241.048      128.977        0.378        0.030       82.733        2.094        0.001      331.166       -0.994      868.674
01/14/2015  01:52:00      -58.005      -38.629      -14.833       10.242       10.455       11.185      104.900      109.317      125.102        0.271        0.017       69.691        2.232        0.001      331.130       -1.054      868.666
01/14/2015  01:53:00      -65.825      -39.607      -15.459       10.178       11.495        9.055      103.585      132.133       81.988        0.323        0.016       76.822        5.378        0.005      331.157       -1.009      868.663
01/14/2015  01:54:00      -76.699      -35.661      -12.778       10.204       14.140       10.386      104.115      199.940      107.875        0.386        0.021       84.584        4.840        0.003      331.172       -0.984      868.664
01/14/2015  01:55:00      -80.744      -18.444      -13.972        8.160        8.986        9.539       66.585       80.755       90.989        0.365        0.012       82.824        5.449        0.004      331.373       -0.653      868.659
01/14/2015  01:56:00      -70.735      -23.501      -13.492       13.085       13.673        7.533      171.209      186.945       56.750        0.308        0.021       74.536        6.098        0.007      331.238       -0.874      868.662
01/14/2015  01:57:00      -70.030      -26.342       -8.183        9.886       11.965        7.221       97.733      143.161       52.147        0.298        0.015       74.821        4.783        0.004      331.241       -0.870      868.661
01/14/2015  01:58:00      -63.158      -30.252      -13.127        9.916       10.702        8.280       98.324      114.533       68.554        0.268        0.014       70.029        5.604        0.006      331.167       -0.992      868.661
01/14/2015  01:59:00      -46.995      -36.125       -8.716       21.027       15.024       13.476      442.118      225.713      181.595        0.222        0.042       59.275       11.707        0.039      331.122       -1.068      868.654
01/14/2015  02:00:00      -31.172      -13.290       -4.165       13.471       12.702       14.562      181.461      161.348      212.062        0.086        0.028       33.887        8.676        0.066      331.078       -1.140      868.644
01/14/2015  02:01:00      -57.331      -22.547       -3.242       12.305       10.657        9.468      151.413      113.579       89.646        0.208        0.018       61.605        2.460        0.002      331.082       -1.133      868.637
01/14/2015  02:02:00      -76.150      -20.889       -8.780       11.016       10.044        6.991      121.354      100.883       48.873        0.329        0.014       78.963        3.680        0.002      331.143       -1.033      868.638
01/14/2015  02:03:00      -77.636      -21.654       -8.248       10.433        9.662        6.401      108.840       93.355       40.976        0.340        0.012       80.599        3.412        0.002      331.149       -1.022      868.636
01/14/2015  02:04:00      -59.143      -33.116       -8.318        9.743       10.801        8.318       94.923      116.670       69.189        0.247        0.014       67.783        5.564        0.007      331.179       -0.974      868.641
01/14/2015  02:05:00      -57.769      -16.747      -10.025        6.611        9.011        6.540       43.707       81.205       42.775        0.194        0.008       60.147        2.583        0.002      331.158       -1.007      868.649
01/14/2015  02:06:00      -60.400      -18.699      -10.611        7.927        7.155        6.361       62.830       51.198       40.456        0.213        0.008       63.229        3.389        0.003      331.144       -1.030      868.650
01/14/2015  02:07:00      -70.012      -13.384      -18.194       10.734        9.961        8.134      115.227       99.230       66.162        0.285        0.014       71.280        3.185        0.002      331.111       -1.084      868.651
01/14/2015  02:08:00      -91.613      -22.499      -15.198       11.411       11.110       10.375      130.212      123.438      107.650        0.475        0.018       94.335        7.274        0.006      331.121       -1.068      868.657
01/14/2015  02:09:00      -95.196      -17.820      -17.093       11.151       11.428        9.505      124.348      130.603       90.341        0.501        0.017       96.849        5.994        0.004      331.114       -1.080      868.670
01/14/2015  02:10:00     -100.339      -18.970      -15.837       11.388        9.590        9.391      129.681       91.969       88.193        0.549        0.015      102.117        5.120        0.003      331.053       -1.182      868.682
01/14/2015  02:11:00     -113.980      -13.879      -14.479       10.354       10.044        9.988      107.201      100.877       99.766        0.685        0.015      114.822        4.035        0.001      331.012       -1.248      868.699
01/14/2015  02:12:00     -123.197      -23.650      -17.859        8.129       10.463        6.656       66.084      109.481       44.307        0.814        0.011      125.447        4.470        0.001      330.920       -1.396      868.706
01/14/2015  02:13:00     -123.175      -34.335      -19.155       10.586       10.654        8.247      112.056      113.515       68.010        0.851        0.015      127.871        4.459        0.001      330.937       -1.371      868.699
01/14/2015  02:14:00     -121.561      -26.511      -13.992       18.027       16.226       12.627      324.955      263.291      159.448        0.821        0.037      124.418        9.094        0.005      330.860       -1.497      868.697
01/14/2015  02:15:00     -111.058      -26.653      -10.619       18.402       17.255       12.278      338.630      297.724      150.745        0.697        0.039      114.211       10.713        0.009      330.842       -1.526      868.693
01/14/2015  02:16:00     -102.634      -28.898      -10.708       18.508       16.447       11.051      342.544      270.495      122.128        0.611        0.037      106.625       10.146        0.009      330.821       -1.561      868.689
01/14/2015  02:17:00      -92.295      -23.241       -8.239       32.207       14.900       15.223     1037.294      222.009      231.741        0.531        0.075       95.177       13.621        0.020      330.837       -1.534      868.687
01/14/2015  02:18:00      -59.339      -24.633       -2.108       29.392       22.608       13.548      863.884      511.139      183.538        0.285        0.078       64.249       12.100        0.035      330.936       -1.372      868.692
01/14/2015  02:19:00      -58.519      -11.818       -4.372       25.359       18.879       10.695      643.073      356.427      114.385        0.235        0.056       59.700        7.082        0.014      330.923       -1.393      868.686
01/14/2015  02:20:00      -55.524      -16.890       -6.553       13.476       17.943       12.011      181.610      321.936      144.259        0.203        0.032       58.036        4.906        0.007      330.946       -1.355      868.679
01/14/2015  02:21:00      -50.670      -13.438       -3.983       12.674       12.702        8.949      160.641      161.347       80.087        0.158        0.020       52.422        6.369        0.015      331.037       -1.208      868.668
01/14/2015  02:22:00      -23.329      -12.770       -3.152        5.745        5.248        3.957       33.009       27.543       15.659        0.040        0.004       26.596        2.114        0.006      331.117       -1.075      868.664
01/14/2015  02:23:00      -10.066      -23.518        1.220        7.039        5.783        5.863       49.551       33.438       34.374        0.039        0.006       25.582        1.668        0.004      331.253       -0.850      868.648
01/14/2015  02:24:00      -17.083      -15.619       -2.540       15.827       11.272        7.267      250.510      127.065       52.808        0.049        0.022       23.147        5.583        0.058      331.124       -1.064      868.646
01/14/2015  02:25:00      -41.128      -20.786       -5.546       14.134       10.609        7.808      199.779      112.543       60.969        0.126        0.019       46.083        6.313        0.019      330.985       -1.292      868.660
01/14/2015  02:26:00      -61.362      -20.419       -6.206       11.249       10.610        6.402      126.546      112.578       40.992        0.225        0.014       64.670        3.580        0.003      330.931       -1.378      868.668
01/14/2015  02:27:00      -61.972      -26.137       -7.652       17.953       17.418       12.966      322.313      303.378      168.123        0.269        0.040       67.258        6.433        0.009      330.916       -1.405      868.680
01/14/2015  02:28:00      -58.410      -34.868       -9.347       19.419       15.836       11.151      377.106      250.769      124.348        0.273        0.038       68.026        3.997        0.003      330.903       -1.424      868.708
01/14/2015  02:29:00      -81.803      -25.894       -3.822       14.112       15.035        8.161      199.162      226.054       66.597        0.393        0.025       85.803        7.208        0.007      330.874       -1.473      868.730
01/14/2015  02:30:00      -86.426       -9.734       -2.021       10.403        9.447        8.547      108.214       89.236       73.044        0.392        0.014       86.973        7.060        0.007      330.880       -1.464      868.748
01/14/2015  02:31:00      -84.669      -25.121       -8.947       17.473       13.876       11.097      305.322      192.556      123.145        0.425        0.031       88.317        9.100        0.011      330.881       -1.461      868.759
01/14/2015  02:32:00      -95.731      -49.312      -11.963       10.508       12.564        8.788      110.411      157.853       77.223        0.604        0.017      107.685        4.599        0.002      330.844       -1.521      868.771
01/14/2015  02:33:00     -123.479      -24.635      -14.606       13.915       21.020       12.320      193.630      441.840      151.789        0.843        0.039      125.913       11.996        0.009      330.809       -1.582      868.776
01/14/2015  02:34:00     -103.993      -25.994      -12.796       19.616       21.669       14.467      384.787      469.530      209.297        0.636        0.053      107.192        9.174        0.007      330.762       -1.661      868.779
01/14/2015  02:35:00      -90.956      -21.598      -11.803       12.961       11.896        9.258      167.985      141.505       85.709        0.464        0.020       93.485        2.970        0.001      330.791       -1.610      868.783
01/14/2015  02:36:00     -102.128      -26.226      -14.625       10.233       12.219        9.237      104.722      149.300       85.316        0.584        0.017      105.442        2.783        0.001      330.734       -1.702      868.789
01/14/2015  02:37:00     -123.288      -21.622      -18.776       17.855       16.078       10.971      318.818      258.487      120.368        0.836        0.035      125.170        6.360        0.003      330.675       -1.799      868.800
01/14/2015  02:38:00     -144.442      -33.464      -15.055       28.684       26.659       23.010      822.787      710.720      529.476        1.214        0.103      148.267       18.420        0.015      330.606       -1.914      868.810
01/14/2015  02:39:00     -153.152      -19.094       -6.657       41.495       26.817       25.237     1721.874      719.176      636.907        1.347        0.154      154.337       24.094        0.024      330.524       -2.049      868.821
01/14/2015  02:40:00     -160.970      -41.351       -4.957       31.193       33.924       22.400      973.015     1150.863      501.773        1.514        0.131      166.196       16.898        0.010      330.507       -2.076      868.831
01/14/2015  02:41:00     -154.212      -51.679       -2.627       33.854       22.265       19.488     1146.085      495.722      379.771        1.424        0.101      162.641       16.146        0.010      330.547       -2.011      868.846
01/14/2015  02:42:00     -113.179      -40.454       -0.674       26.591       29.393       20.030      707.066      863.932      401.218        0.821        0.099      120.192       19.531        0.026      330.541       -2.020      868.853
01/14/2015  02:43:00     -115.278      -36.320       -3.007       22.366       18.833       15.989      500.243      354.676      255.649        0.786        0.056      120.864       13.978        0.013      330.591       -1.939      868.849
01/14/2015  02:44:00     -105.175      -54.297       -5.579       21.148       25.269       18.792      447.242      638.530      353.151        0.774        0.072      118.364       10.548        0.008      330.600       -1.924      868.842
01/14/2015  02:45:00      -96.221      -45.437       -8.021       15.661       14.825       11.692      245.255      219.780      136.698        0.599        0.030      106.410        7.090        0.004      330.563       -1.984      868.825
01/14/2015  02:46:00      -77.359      -42.078       -9.178       16.686       12.889       12.311      278.437      166.117      151.571        0.422        0.030       88.062        9.021        0.010      330.558       -1.993      868.811
01/14/2015  02:47:00      -69.147      -30.166       -7.987       15.716       21.198       10.382      246.991      449.356      107.782        0.328        0.040       75.441        6.808        0.008      330.656       -1.832      868.809
01/14/2015  02:48:00      -94.031      -29.947      -11.635       19.025       17.682        9.530      361.950      312.647       90.825        0.532        0.038       98.685        4.319        0.002      330.616       -1.898      868.802
01/14/2015  02:49:00      -70.279      -54.478      -14.321       20.459       14.069       11.718      418.560      197.947      137.309        0.443        0.038       88.921        8.343        0.009      330.598       -1.926      868.782
01/14/2015  02:50:00      -59.685      -43.056       -7.532       24.043       21.681       18.950      578.080      470.050      359.106        0.344        0.070       73.594       13.271        0.033      330.627       -1.879      868.766
01/14/2015  02:51:00      -30.306      -16.643       -3.861       22.594        9.437       14.614      510.506       89.065      213.570        0.101        0.041       34.575       13.004        0.141      330.658       -1.828      868.755
01/14/2015  02:52:00      -47.819      -18.637       -7.582       13.253        9.823       12.085      175.649       96.487      146.052        0.155        0.021       51.323        9.380        0.033      330.731       -1.709      868.754
01/14/2015  02:53:00      -13.070       -5.006       -7.448        7.346        5.688        5.764       53.970       32.357       33.229        0.019        0.006       13.996        3.215        0.053      330.866       -1.487      868.753
01/14/2015  02:54:00       -2.453       -3.165        4.119       10.232        5.505        6.775      104.698       30.301       45.903        0.011        0.009        4.005        2.595        0.420      330.933       -1.377      868.754
01/14/2015  02:55:00       15.818        2.606        0.570       11.574        8.352        7.953      133.966       69.748       63.253        0.026        0.013       16.031        9.107        0.323      331.124       -1.065      868.747
01/14/2015  02:56:00      -12.125       -6.561        4.647       17.355        8.230        9.143      301.209       67.731       83.600        0.033        0.023       13.786        5.055        0.134      330.937       -1.370      868.746
01/14/2015  02:57:00      -47.146       -0.690       -6.085        8.239        7.960        8.339       67.882       63.354       69.547        0.123        0.010       47.151        5.776        0.015      330.707       -1.747      868.741
01/14/2015  02:58:00      -57.404       -8.959       -4.635       11.396        9.781        8.401      129.858       95.677       70.575        0.185        0.015       58.099        4.989        0.007      330.687       -1.779      868.744
01/14/2015  02:59:00      -51.284      -12.267       -7.645       14.068       12.818        9.221      197.898      164.314       85.034        0.164        0.022       52.731        9.499        0.032      330.684       -1.787      868.752
01/14/2015  03:00:00      -58.357      -15.929      -13.101        9.329       15.451        7.882       87.038      238.722       62.120        0.211        0.019       60.492        6.175        0.010      330.621       -1.890      868.742
01/14/2015  03:01:00      -61.935       -9.778      -12.598        8.634        8.413        8.357       74.548       70.770       69.842        0.215        0.011       62.702        4.276        0.005      330.537       -2.025      868.725
01/14/2015  03:02:00      -50.264      -12.852       -8.873        9.335        8.081       11.201       87.146       65.301      125.458        0.152        0.014       51.881        6.570        0.016      330.618       -1.894      868.706
01/14/2015  03:03:00      -41.771      -22.793       -5.934       10.946       11.210        9.208      119.823      125.660       84.778        0.131        0.017       47.585        6.566        0.019      330.586       -1.944      868.689
01/14/2015  03:04:00      -44.381      -17.798      -10.333        7.541        8.523        6.364       56.872       72.646       40.501        0.128        0.009       47.817        4.139        0.007      330.587       -1.944      868.670
01/14/2015  03:05:00      -43.577      -13.157      -15.465       12.112        8.685        6.710      146.712       75.435       45.023        0.129        0.013       45.520        3.813        0.007      330.696       -1.766      868.655
01/14/2015  03:06:00      -48.515      -13.186       -6.926       10.594        9.468        7.082      112.242       89.641       50.151        0.141        0.013       50.275        2.888        0.003      330.626       -1.882      868.635
01/14/2015  03:07:00      -47.621      -20.093       -9.929       13.313       10.832        9.071      177.224      117.340       82.284        0.157        0.019       51.686        5.887        0.013      330.659       -1.828      868.620
01/14/2015  03:08:00      -53.257      -21.968      -13.690       11.236       14.281        9.638      126.249      203.939       92.890        0.196        0.021       57.610        5.276        0.008      330.679       -1.792      868.605
01/14/2015  03:09:00      -72.298      -20.446      -14.095       10.029       12.686        8.788      100.585      160.937       77.221        0.309        0.017       75.133        3.496        0.002      330.528       -2.040      868.587
01/14/2015  03:10:00      -72.582      -15.073      -12.055       18.858       17.954       11.664      355.622      322.333      136.056        0.323        0.041       74.131        8.527        0.013      330.502       -2.085      868.573
01/14/2015  03:11:00      -73.119      -36.724      -16.072       11.758       18.061       10.479      138.257      326.182      109.801        0.376        0.029       81.824        8.696        0.011      330.446       -2.178      868.570
01/14/2015  03:12:00      -85.022      -22.314       -8.995       12.184       15.217        8.658      148.454      231.569       74.958        0.413        0.023       87.901        6.692        0.006      330.425       -2.210      868.564
01/14/2015  03:13:00      -86.486      -34.173      -16.852       17.189       22.526       16.097      295.461      507.409      259.107        0.500        0.053       92.993        8.743        0.009      330.426       -2.209      868.563
01/14/2015  03:14:00      -98.747      -31.952      -10.750       27.389       22.770       17.339      750.175      518.457      300.651        0.623        0.078      103.788       14.178        0.019      330.421       -2.217      868.564
01/14/2015  03:15:00      -82.397      -16.390       -7.545       36.531       21.462       20.877     1334.478      460.616      435.839        0.467        0.112       84.011       23.380        0.077      330.377       -2.289      868.568
01/14/2015  03:16:00      -82.959      -14.840       -8.486       27.305       29.490       19.268      745.582      869.640      371.267        0.458        0.099       84.276       11.789        0.020      330.453       -2.164      868.569
01/14/2015  03:17:00      -75.718      -27.788       -3.575       39.517       28.890       18.376     1561.608      834.656      337.676        0.463        0.137       80.656       17.058        0.045      330.420       -2.221      868.580
01/14/2015  03:18:00      -76.329      -36.787       -5.626       24.796       23.380       16.978      614.851      546.612      288.262        0.433        0.072       84.732        9.436        0.012      330.420       -2.218      868.588
01/14/2015  03:19:00      -71.324      -15.826       -5.918       26.384       21.899       14.386      696.141      479.555      206.943        0.338        0.069       73.058        5.768        0.006      330.469       -2.138      868.589
01/14/2015  03:20:00      -74.867      -10.305       -8.639       23.865       24.387       14.209      569.557      594.743      201.904        0.358        0.068       75.572        4.874        0.004      330.441       -2.185      868.586
01/14/2015  03:21:00      -77.303      -11.860      -12.193       19.591       20.094       14.246      383.791      403.771      202.952        0.363        0.050       78.208        9.323        0.014      330.426       -2.207      868.584
01/14/2015  03:22:00      -71.472      -19.041      -20.292       21.657       19.832       14.715      469.020      393.325      216.535        0.348        0.054       73.965        9.727        0.017      330.438       -2.189      868.585
01/14/2015  03:23:00      -75.676      -34.221       -5.143       32.910       22.978       17.247     1083.065      527.996      297.468        0.442        0.095       83.054       13.376        0.026      330.405       -2.242      868.588
01/14/2015  03:24:00      -93.385      -32.311      -10.564       28.201       24.117       23.365      795.284      581.624      545.915        0.590        0.096       98.817       18.913        0.037      330.336       -2.356      868.596
01/14/2015  03:25:00     -122.166      -38.163      -12.104       25.324       27.058       20.630      641.315      732.145      425.614        0.916        0.090      127.988       15.358        0.014      330.289       -2.432      868.604
01/14/2015  03:26:00     -106.665      -22.997       -4.870       37.935       36.029       23.543     1439.088     1298.117      554.276        0.761        0.165      109.116       15.272        0.020      330.334       -2.359      868.613
01/14/2015  03:27:00     -137.184      -29.829      -11.986       27.658       24.587       19.151      764.988      604.500      366.770        1.079        0.087      140.389        9.613        0.005      330.287       -2.437      868.613
01/14/2015  03:28:00     -103.722      -19.943       -5.354       38.386       30.449       24.903     1473.473      927.163      620.141        0.710        0.151      105.622       20.571        0.038      330.378       -2.287      868.619
01/14/2015  03:29:00     -117.143      -28.541       -6.551       40.295       33.697       21.483     1623.654     1135.457      461.540        0.890        0.161      120.570       20.124        0.028      330.326       -2.374      868.616
01/14/2015  03:30:00      -86.473      -34.006       -5.490       41.665       26.424       19.558     1735.995      698.218      382.518        0.574        0.141       92.919       15.901        0.029      330.243       -2.509      868.606
01/14/2015  03:31:00      -27.876      -26.131        0.906       30.358       21.603       16.369      921.601      466.684      267.940        0.156        0.083       38.209       16.040        0.176      330.292       -2.428      868.597
01/14/2015  03:32:00      -53.550      -13.110       -3.235       41.459       18.978       15.483     1718.846      360.173      239.724        0.268        0.116       55.132       13.269        0.058      330.340       -2.350      868.586
01/14/2015  03:33:00      -96.839      -23.518      -13.853       16.167       15.416       11.657      261.359      237.647      135.883        0.538        0.032       99.654        1.356        0.000      330.324       -2.376      868.576
01/14/2015  03:34:00     -106.764      -30.080      -11.801       21.493       12.729       12.015      461.949      162.020      144.367        0.661        0.038      110.920        8.153        0.005      330.330       -2.364      868.571
01/14/2015  03:35:00     -122.022      -37.463      -13.121       15.695       15.825       12.161      246.349      250.431      147.896        0.855        0.032      127.643        6.345        0.002      330.294       -2.426      868.569
01/14/2015  03:36:00      -87.997      -53.388      -12.482       26.374       15.965       17.582      695.567      254.892      309.122        0.600        0.063      102.926       11.339        0.012      330.262       -2.478      868.571
01/14/2015  03:37:00      -87.923      -51.718      -12.552       17.862       20.506       12.842      319.069      420.499      164.927        0.573        0.045      102.006        6.261        0.004      330.299       -2.418      868.570
01/14/2015  03:38:00      -94.141      -53.357      -13.514       16.189       12.699       11.780      262.097      161.277      138.770        0.623        0.028      108.210        4.096        0.001      330.281       -2.447      868.572
01/14/2015  03:39:00      -94.383      -47.137      -18.993       15.100       10.637       11.312      228.008      113.151      127.958        0.598        0.023      105.499        6.927        0.004      330.296       -2.420      868.572
01/14/2015  03:40:00      -47.427      -44.549       -0.405       29.484       25.162       25.759      869.317      633.109      663.549        0.320        0.108       65.068       20.920        0.103      330.320       -2.381      868.580
01/14/2015  03:41:00      -93.177      -35.876      -10.539       46.151       24.293       15.004     2129.887      590.152      225.123        0.651        0.147       99.845       16.287        0.027      330.303       -2.410      868.573
01/14/2015  03:42:00      -92.851      -47.127      -16.398       14.791       16.202        9.254      218.776      262.509       85.627        0.584        0.028      104.127        6.472        0.004      330.261       -2.478      868.579
01/14/2015  03:43:00     -108.638      -31.571      -19.681       21.547       14.454       11.597      464.272      208.924      134.490        0.700        0.040      113.132        1.826        0.000      330.318       -2.386      868.587
01/14/2015  03:44:00     -108.810      -34.608      -17.361       15.715       12.197       10.235      246.967      148.770      104.752        0.692        0.025      114.181        7.214        0.004      330.373       -2.297      868.602
01/14/2015  03:45:00      -90.415      -28.276      -14.499       11.834       10.693        9.659      140.052      114.346       93.291        0.477        0.017       94.734        4.638        0.002      330.397       -2.256      868.595
01/14/2015  03:46:00      -72.916      -41.599       -9.606       21.643       10.079       11.200      468.419      101.587      125.429        0.392        0.035       83.947        6.104        0.005      330.383       -2.281      868.595
01/14/2015  03:47:00      -72.878      -32.777       -8.061       12.021       10.692        7.193      144.505      114.326       51.732        0.338        0.016       79.909        2.252        0.001      330.445       -2.180      868.594
01/14/2015  03:48:00      -75.306      -33.100       -6.635        8.131        7.751        7.728       66.108       60.078       59.720        0.350        0.009       82.259        3.474        0.002      330.488       -2.106      868.607
01/14/2015  03:49:00      -73.625      -30.739       -4.311        9.760       11.430       10.616       95.251      130.639      112.699        0.336        0.017       79.784        3.258        0.002      330.548       -2.010      868.611
01/14/2015  03:50:00      -65.542      -32.733       -9.487       12.916       11.635        8.853      166.829      135.377       78.372        0.292        0.019       73.261        6.154        0.007      330.538       -2.025      868.617
01/14/2015  03:51:00      -69.015      -26.731       -7.987       11.494        8.333        6.748      132.101       69.436       45.541        0.289        0.012       74.011        5.713        0.006      330.553       -2.000      868.629
01/14/2015  03:52:00      -65.682      -26.310       -5.633       11.424       15.714       10.311      130.517      246.944      106.316        0.276        0.024       70.755        4.113        0.003      330.501       -2.085      868.649
01/14/2015  03:53:00      -54.245      -35.440       -7.148       11.567       10.176        9.963      133.800      103.551       99.265        0.229        0.017       64.796        7.893        0.015      330.537       -2.025      868.666
01/14/2015  03:54:00      -30.172      -15.013       -7.310       19.818        7.187        9.842      392.758       51.654       96.855        0.087        0.027       33.701        8.388        0.062      330.593       -1.935      868.671
01/14/2015  03:55:00      -11.736       -8.201       -2.917        6.517        6.708        3.456       42.473       44.994       11.945        0.016        0.005       14.317        2.924        0.042      330.580       -1.955      868.676
01/14/2015  03:56:00       -4.221        4.480        0.592        4.902        7.947        3.711       24.030       63.157       13.772        0.007        0.005        6.155        2.295        0.139      330.550       -2.004      868.672
01/14/2015  03:57:00       -8.259       16.408       27.794        7.171       13.672       14.974       51.418      186.918      224.227        0.079        0.023       18.370       12.301        0.448      330.456       -2.160      868.672
01/14/2015  03:58:00        3.821      -15.963        7.502       15.157       32.522       17.055      229.727     1057.655      290.865        0.095        0.079       16.414       15.069        0.843      330.509       -2.073      868.677
01/14/2015  03:59:00      -29.433       -8.813        0.445       12.266       11.103       10.450      150.452      123.284      109.193        0.066        0.019       30.724        7.591        0.061      330.592       -1.936      868.693
01/14/2015  04:00:00      -21.746        2.718        4.783        9.507        9.901        7.141       90.386       98.020       50.994        0.037        0.012       21.915        4.567        0.043      330.575       -1.963      868.710
01/14/2015  04:01:00      -21.983        0.751        2.041        9.208        8.031        7.428       84.782       64.504       55.170        0.035        0.010       21.996        3.882        0.031      330.523       -2.049      868.733
01/14/2015  04:02:00      -10.732        7.390        8.438        8.302        7.254        5.914       68.918       52.623       34.978        0.020        0.008       13.030        3.244        0.062      330.483       -2.115      868.759
01/14/2015  04:03:00       20.408       26.053        6.143        9.574       12.787       10.962       91.654      163.502      120.160        0.075        0.019       33.094        8.092        0.060      330.347       -2.338      868.785
01/14/2015  04:04:00       39.028       29.175       -3.964       14.315       15.161       12.459      204.912      229.863      155.224        0.149        0.029       48.728       10.632        0.048      330.246       -2.503      868.800
01/14/2015  04:05:00        9.640       37.489       -6.308       10.868       11.593        6.500      118.121      134.399       42.253        0.092        0.015       38.709        6.071        0.025      330.143       -2.672      868.800
01/14/2015  04:06:00       10.466       29.747        0.471        4.461        6.863        3.442       19.902       47.099       11.849        0.054        0.004       31.535        2.601        0.007      330.317       -2.387      868.785
01/14/2015  04:07:00       15.203       30.080        2.216       10.314       10.241        8.142      106.374      104.868       66.286        0.071        0.014       33.704        7.005        0.043      330.187       -2.601      868.773
01/14/2015  04:08:00        1.437       47.347       -6.438       10.015       11.383        7.428      100.292      129.581       55.183        0.129        0.014       47.369        7.589        0.026      330.052       -2.823      868.771
01/14/2015  04:09:00        1.398        3.605        6.252        5.597       10.042        6.281       31.331      100.846       39.450        0.011        0.009        3.867        3.486        0.813      330.086       -2.767      868.773
01/14/2015  04:10:00      -30.881        7.958       -4.290       20.239       14.578        9.265      409.627      212.530       85.845        0.087        0.035       31.890       12.406        0.151      330.182       -2.608      868.780
01/14/2015  04:11:00      -33.628       -1.138       -4.278       11.950        9.154        8.805      142.803       83.787       77.521        0.073        0.015       33.647        6.142        0.033      330.271       -2.464      868.787
01/14/2015  04:12:00      -54.268      -14.503       -5.665        8.870       14.891        6.841       78.685      221.740       46.795        0.177        0.017       56.172        4.086        0.005      330.304       -2.408      868.793
01/14/2015  04:13:00      -53.337      -23.187       -4.309        8.992       11.813        7.199       80.849      139.550       51.822        0.184        0.014       58.159        6.065        0.011      330.243       -2.510      868.792
01/14/2015  04:14:00      -31.921      -16.736       -9.459       24.448       13.665        8.631      597.715      186.732       74.497        0.112        0.043       36.042        6.389        0.031      330.233       -2.526      868.781
01/14/2015  04:15:00      -19.459      -15.669       -5.331       23.463       13.840       15.904      550.524      191.543      252.935        0.082        0.050       24.983        8.423        0.114      330.156       -2.653      868.771
01/14/2015  04:16:00      -35.859      -17.094        3.679       13.937       12.806       10.406      194.228      164.006      108.275        0.103        0.023       39.725        9.643        0.059      330.148       -2.665      868.761
01/14/2015  04:17:00      -36.147       -7.062       -2.228       10.727       11.751        9.748      115.072      138.097       95.027        0.085        0.017       36.830        5.520        0.022      330.247       -2.503      868.752
01/14/2015  04:18:00      -45.387       -8.543       -1.359        9.142       10.159        6.340       83.583      103.203       40.192        0.118        0.011       46.183        5.294        0.013      330.350       -2.333      868.752
01/14/2015  04:19:00      -47.119      -11.483       -1.937       11.323       12.871        9.567      128.203      165.674       91.523        0.137        0.019       48.498        8.059        0.028      330.307       -2.404      868.753
01/14/2015  04:20:00      -37.624      -13.397       -5.036       19.094        8.672        7.114      364.592       75.204       50.607        0.106        0.025       39.938        7.634        0.037      330.299       -2.416      868.755
01/14/2015  04:21:00       -5.996       -7.810       -2.923        8.260        6.982        6.409       68.226       48.744       41.077        0.013        0.008        9.846        3.733        0.144      330.284       -2.441      868.756
01/14/2015  04:22:00        0.822       -3.026        0.896        4.945        5.178        4.434       24.451       26.813       19.660        0.004        0.004        3.135        1.719        0.301      330.298       -2.417      868.751
01/14/2015  04:23:00       -9.154       -9.699       -4.782        7.978        8.014       10.197       63.646       64.229      103.970        0.022        0.012       13.336        4.724        0.125      330.326       -2.373      868.733
01/14/2015  04:24:00      -17.856       -6.762       -4.321       19.899        7.035        5.963      395.959       49.496       35.561        0.043        0.024       19.094        5.436        0.081      330.311       -2.398      868.723
01/14/2015  04:25:00      -56.361      -28.578       -3.578       17.643       16.148       12.806      311.282      260.745      163.993        0.237        0.037       63.193       11.176        0.031      330.423       -2.215      868.713
01/14/2015  04:26:00      -55.309      -35.646       -2.287       33.542       20.586       11.959     1125.037      423.797      143.017        0.301        0.085       65.800       14.423        0.048      330.412       -2.233      868.719
01/14/2015  04:27:00      -68.176      -30.672        1.155       24.993       19.461       13.312      624.626      378.731      177.218        0.339        0.059       74.758       12.886        0.030      330.307       -2.404      868.722
01/14/2015  04:28:00      -35.679      -20.316        5.369       31.111       17.155       18.650      967.891      294.296      347.804        0.166        0.080       41.058       16.697        0.165      330.317       -2.385      868.737
01/14/2015  04:29:00      -37.372      -22.985        0.324       27.317       19.862       12.361      746.244      394.501      152.804        0.161        0.065       43.875        9.579        0.048      330.314       -2.393      868.737
01/14/2015  04:30:00      -39.871      -17.327        4.234       13.073       16.198       12.477      170.912      262.391      155.670        0.125        0.029       43.473        2.443        0.003      330.351       -2.331      868.726
01/14/2015  04:31:00      -27.274      -19.568       -4.649       20.125        9.744       10.403      405.017       94.941      108.221        0.088        0.030       33.567        2.915        0.008      330.394       -2.262      868.710
01/14/2015  04:32:00       -3.361       -7.696        2.959       21.912       13.453       11.139      480.141      180.975      124.074        0.043        0.039        8.398       11.639        1.921      330.412       -2.233      868.704
01/14/2015  04:33:00        1.435        3.264        6.304       22.344       12.473       12.927      499.238      155.578      167.097        0.044        0.041        3.566        4.305        1.458      330.391       -2.268      868.704
01/14/2015  04:34:00      -14.756        0.285       14.078       21.732       11.165       10.462      472.281      124.661      109.453        0.056        0.035       14.758       12.140        0.677      330.387       -2.272      868.708
01/14/2015  04:35:00      -34.715        0.373        8.210       25.266       13.327       10.243      638.376      177.617      104.912        0.110        0.046       34.717        8.354        0.058      330.398       -2.255      868.711
01/14/2015  04:36:00      -16.329       -4.655        9.372       14.559       11.778       11.855      211.968      138.715      140.551        0.043        0.025       16.980        7.899        0.216      330.350       -2.334      868.719
01/14/2015  04:37:00      -27.973      -15.565        3.795       12.997       13.352        8.098      168.923      178.289       65.571        0.073        0.021       32.012        7.579        0.056      330.380       -2.285      868.727
01/14/2015  04:38:00      -35.659      -10.908       -1.297       18.104       15.739        9.561      327.749      247.732       91.415        0.103        0.033       37.290        4.353        0.014      330.383       -2.281      868.735
01/14/2015  04:39:00      -33.622        4.888        4.729       22.227       11.149       10.847      494.043      124.311      117.657        0.096        0.037       33.975        5.555        0.027      330.356       -2.324      868.745
01/14/2015  04:40:00        4.757        6.571        0.223       12.539       10.077       10.363      157.233      101.556      107.392        0.022        0.018        8.112        6.922        0.728      330.303       -2.408      868.760
01/14/2015  04:41:00       -9.097       12.664        2.473        7.133        7.483        7.760       50.883       56.002       60.223        0.021        0.008       15.593        5.647        0.131      330.269       -2.467      868.768
01/14/2015  04:42:00        5.620        7.408        2.641        6.954        6.887        7.027       48.356       47.433       49.379        0.012        0.007        9.298        4.768        0.263      330.248       -2.501      868.768
01/14/2015  04:43:00      -31.185       -4.101        6.310       25.643       13.270       11.466      657.586      176.101      131.480        0.100        0.048       31.454        5.884        0.035      330.196       -2.585      868.776
01/14/2015  04:44:00      -25.685      -14.044        3.216       29.859       22.210       15.943      891.544      493.300      254.190        0.125        0.082       29.273        9.056        0.096      330.145       -2.670      868.777
01/14/2015  04:45:00      -25.486        0.557        5.602       27.966       15.039        8.649      782.124      226.166       74.803        0.088        0.054       25.492        3.335        0.017      330.160       -2.647      868.778
01/14/2015  04:46:00      -55.229      -19.356       -7.051       11.716       11.102        9.639      137.257      123.260       92.903        0.191        0.018       58.523        6.503        0.012      330.175       -2.620      868.768
01/14/2015  04:47:00      -55.760      -16.967       -2.341       20.994       15.078       14.824      440.765      227.354      219.758        0.215        0.044       58.284       13.775        0.056      330.132       -2.691      868.764
01/14/2015  04:48:00      -34.883      -13.262        1.320       18.642       11.316        7.833      347.530      128.060       61.351        0.097        0.027       37.319        9.042        0.059      330.100       -2.744      868.768
01/14/2015  04:49:00      -42.729      -16.352       -2.656       22.357        9.356        7.470      499.839       87.532       55.795        0.137        0.032       45.751        2.977        0.004      330.162       -2.641      868.768
01/14/2015  04:50:00      -79.840      -20.915      -13.070        9.610        8.625        7.767       92.347       74.392       60.334        0.360        0.011       82.534        3.944        0.002      330.140       -2.678      868.765
01/14/2015  04:51:00      -82.110      -19.252       -6.307        8.175       11.222        7.663       66.835      125.941       58.721        0.370        0.013       84.337        3.305        0.002      330.135       -2.687      868.760
01/14/2015  04:52:00      -86.962      -26.543       -7.010       11.667       13.054        8.165      136.127      170.411       66.674        0.434        0.019       90.923        2.202        0.001      330.122       -2.708      868.744
01/14/2015  04:53:00      -88.257      -29.720       -9.501       10.569       13.594        8.673      111.697      184.789       75.224        0.457        0.019       93.127        4.700        0.003      330.064       -2.803      868.730
01/14/2015  04:54:00      -65.586      -13.909        0.193       20.143       11.877       13.284      405.748      141.068      176.458        0.261        0.036       67.045       13.838        0.043      329.998       -2.911      868.727
01/14/2015  04:55:00      -71.922       -8.874       -3.931       13.940       11.287       12.319      194.322      127.404      151.750        0.287        0.024       72.468        9.321        0.017      330.018       -2.877      868.732
01/14/2015  04:56:00      -89.814       -9.349      -10.791        8.906        8.449        8.771       79.321       71.378       76.930        0.425        0.011       90.299        2.934        0.001      329.967       -2.961      868.733
01/14/2015  04:57:00      -91.903       -6.697       -6.861       22.180       12.377       11.466      491.947      153.185      131.469        0.466        0.039       92.147        8.810        0.009      329.899       -3.073      868.727
01/14/2015  04:58:00      -95.257      -23.269       -3.297       32.678       19.169       14.469     1067.857      367.435      209.350        0.564        0.082       98.058       11.171        0.013      329.910       -3.056      868.719
01/14/2015  04:59:00     -103.225      -33.448       -2.025       25.448       22.553       15.719      647.583      508.651      247.081        0.659        0.070      108.509       14.915        0.019      329.856       -3.143      868.718
01/14/2015  05:00:00     -113.219      -17.543       -5.831       28.564       24.367       16.107      815.904      593.731      259.429        0.741        0.083      114.570       15.645        0.019      329.846       -3.160      868.716
01/14/2015  05:01:00      -92.699      -37.234        3.705       34.306       35.293       18.080     1176.926     1245.602      326.902        0.637        0.137       99.897       16.852        0.028      329.848       -3.157      868.718
01/14/2015  05:02:00     -115.054      -34.674        3.302       33.987       31.397       18.703     1155.096      985.796      349.787        0.847        0.125      120.165       16.373        0.019      329.828       -3.189      868.717
01/14/2015  05:03:00     -156.764      -43.726       -5.301       35.994       22.081       23.387     1295.579      487.580      546.938        1.442        0.117      162.748       21.192        0.017      329.758       -3.303      868.719
01/14/2015  05:04:00     -167.851      -46.883        1.354       33.971       27.045       20.009     1154.037      731.433      400.366        1.633        0.114      174.275       16.926        0.009      329.749       -3.318      868.721
01/14/2015  05:05:00     -166.862      -53.608       -2.394       32.667       22.933       20.453     1067.152      525.901      418.342        1.637        0.101      175.262       17.199        0.010      329.756       -3.307      868.726
01/14/2015  05:06:00     -138.183      -42.131       -2.754       38.030       31.331       20.133     1446.266      981.648      405.341        1.185        0.142      144.463       21.096        0.021      329.826       -3.191      868.733
01/14/2015  05:07:00     -132.579      -35.591       -6.489       32.043       22.171       14.641     1026.745      491.539      214.366        1.031        0.087      137.273       12.242        0.008      329.891       -3.085      868.743
01/14/2015  05:08:00     -103.566      -37.550      -11.301       23.060       24.417       16.754      531.766      596.173      280.699        0.684        0.070      110.163       10.358        0.009      329.962       -2.969      868.754
01/14/2015  05:09:00     -103.154      -25.837       -8.175       17.044       14.635       12.038      290.513      214.196      144.915        0.601        0.032      106.340        7.391        0.005      329.962       -2.969      868.768
01/14/2015  05:10:00      -93.726      -26.871       -6.926       14.554       14.215       13.356      211.824      202.074      178.395        0.507        0.030       97.502        9.494        0.009      329.920       -3.039      868.769
01/14/2015  05:11:00      -80.965      -14.039       -4.155       26.579       19.728       15.992      706.425      389.192      255.749        0.406        0.068       82.173       14.459        0.031      329.920       -3.038      868.766
01/14/2015  05:12:00      -74.768      -14.514       -0.981       25.860       27.301       15.960      668.762      745.363      254.723        0.374        0.083       76.164       15.168        0.040      329.919       -3.040      868.759
01/14/2015  05:13:00      -73.931      -11.768       -4.272       31.326       24.278       17.308      981.312      589.428      299.575        0.375        0.094       74.862       18.124        0.059      329.895       -3.079      868.750
01/14/2015  05:14:00      -79.213      -16.968       -5.753       31.116       26.262       14.605      968.222      689.698      213.297        0.423        0.094       81.010       12.793        0.025      329.887       -3.092      868.740
01/14/2015  05:15:00      -61.154      -17.303        1.656       25.767       17.467       14.767      663.915      305.099      218.072        0.261        0.059       63.555       13.525        0.045      329.841       -3.169      868.727
01/14/2015  05:16:00      -67.070      -29.299       -1.669       19.053       19.506       12.167      363.014      380.496      148.039        0.313        0.045       73.190        7.728        0.011      329.858       -3.140      868.708
01/14/2015  05:17:00      -66.381      -19.602       -6.578       18.705       18.180       11.580      349.865      330.498      134.100        0.282        0.041       69.215       10.096        0.021      329.797       -3.240      868.695
01/14/2015  05:18:00      -17.947       -2.245       -4.150       17.442       19.440       13.536      304.214      377.905      183.234        0.060        0.043       18.087        6.330        0.122      329.820       -3.202      868.689
01/14/2015  05:19:00      -69.983       -1.610      -11.774       25.013       24.437       13.401      625.668      597.183      179.585        0.322        0.070       70.001        5.127        0.005      329.799       -3.236      868.682
01/14/2015  05:20:00      -75.976       -7.805       -7.991       26.835       30.415       17.960      720.140      925.074      322.559        0.393        0.098       76.375       17.181        0.051      329.795       -3.243      868.673
01/14/2015  05:21:00      -71.754      -17.086       -5.729       20.699       24.324       15.120      428.436      591.648      228.603        0.336        0.062       73.760        5.146        0.005      329.789       -3.253      868.671
01/14/2015  05:22:00      -68.683        0.309       -7.563       12.613       14.554       10.507      159.080      211.818      110.393        0.263        0.024       68.684        7.721        0.013      329.852       -3.150      868.660
01/14/2015  05:23:00      -56.671       -4.887       -7.979       10.611       12.313       10.786      112.584      151.619      116.339        0.184        0.019       56.881        6.179        0.012      329.848       -3.157      868.659
01/14/2015  05:24:00      -46.082       -5.781      -13.442       12.692       14.536       10.673      161.087      211.305      113.922        0.141        0.024       46.443        6.229        0.018      329.902       -3.068      868.662
01/14/2015  05:25:00      -48.496      -17.181      -14.320       18.312       11.755        8.769      335.330      138.171       76.892        0.170        0.028       51.449        8.786        0.029      329.851       -3.151      868.664
01/14/2015  05:26:00      -50.442      -15.258       -5.778       14.885       12.761       12.241      221.576      162.854      149.840        0.167        0.027       52.699       11.852        0.051      329.911       -3.054      868.674
01/14/2015  05:27:00      -53.001      -30.842      -11.667       18.489       17.647       15.032      341.853      311.426      225.974        0.239        0.044       61.322        7.439        0.015      329.863       -3.132      868.680
01/14/2015  05:28:00      -55.586      -37.727      -10.875       20.858       13.513       13.589      435.059      182.604      184.667        0.272        0.040       67.180        6.441        0.009      329.808       -3.221      868.685
01/14/2015  05:29:00      -82.086      -46.475      -11.729       21.583       20.064       14.861      465.827      402.552      220.855        0.506        0.054       94.329       13.680        0.021      329.701       -3.397      868.692
01/14/2015  05:30:00      -26.810      -21.988        2.025       43.098       17.475       20.997     1857.447      305.392      440.879        0.190        0.130       34.673       24.902        0.516      329.744       -3.327      868.700
01/14/2015  05:31:00      -25.020      -23.784       -1.986       23.921       19.051       14.878      572.205      362.957      221.366        0.118        0.058       34.520       12.662        0.135      329.674       -3.441      868.710
01/14/2015  05:32:00      -91.021      -33.412       -9.142       17.763       20.536       12.922      315.510      421.740      166.981        0.519        0.045       96.960        5.513        0.003      329.663       -3.460      868.717
01/14/2015  05:33:00      -74.094      -20.599      -12.657       19.941       19.896       11.111      397.652      395.867      123.450        0.350        0.046       76.904        8.785        0.013      329.644       -3.490      868.725
01/14/2015  05:34:00      -63.017      -15.947       -7.109       21.032       12.361       10.666      442.344      152.802      113.765        0.249        0.035       65.004        7.694        0.014      329.674       -3.440      868.741
01/14/2015  05:35:00      -81.615      -29.137      -10.528       17.916       12.301       10.501      320.967      151.319      110.277        0.410        0.029       86.660        6.623        0.006      329.798       -3.238      868.764
01/14/2015  05:36:00      -61.719      -45.237       -8.251       17.923       19.963       15.591      321.242      398.512      243.085        0.344        0.048       76.522        7.009        0.008      329.791       -3.248      868.780
01/14/2015  05:37:00      -66.095      -23.955       -3.254       17.698       16.061       10.709      313.202      257.941      114.693        0.282        0.034       70.302        6.133        0.008      329.802       -3.231      868.796
01/14/2015  05:38:00      -95.172      -29.079       -9.302       17.699       26.167       12.955      313.243      684.733      167.826        0.558        0.058       99.516        9.275        0.009      329.786       -3.257      868.813
01/14/2015  05:39:00      -85.490      -42.960       -7.309       29.028       22.752       17.569      842.599      517.658      308.659        0.544        0.083       95.677       16.311        0.029      329.775       -3.275      868.822
01/14/2015  05:40:00     -105.499      -40.916      -10.759       21.462       25.529       14.021      460.613      651.720      196.591        0.711        0.065      113.155        4.965        0.002      329.706       -3.388      868.836
01/14/2015  05:41:00      -84.558      -16.483       -8.686       17.467       22.173       15.877      305.102      491.622      252.068        0.427        0.052       86.149       12.270        0.020      329.614       -3.540      868.845
01/14/2015  05:42:00      -81.581      -18.356       -4.419       20.814       16.413       11.363      433.208      269.397      129.113        0.392        0.042       83.620        9.388        0.013      329.648       -3.483      868.840
01/14/2015  05:43:00     -104.571       -9.210      -10.538       16.207       16.207       14.275      262.678      262.666      203.781        0.593        0.036      104.976        8.006        0.006      329.700       -3.397      868.835
01/14/2015  05:44:00      -94.401      -30.945       -9.834       21.106       25.606       14.775      445.481      655.680      218.293        0.564        0.066       99.343       10.423        0.011      329.641       -3.495      868.830
01/14/2015  05:45:00      -95.866      -32.564      -10.374       18.052       20.397       12.670      325.880      416.043      160.539        0.563        0.045      101.246        6.075        0.004      329.658       -3.467      868.812
01/14/2015  05:46:00     -138.629      -37.417      -10.132       25.209       21.983       12.913      635.472      483.267      166.734        1.100        0.064      143.589        7.569        0.003      329.670       -3.447      868.807
01/14/2015  05:47:00     -120.160      -22.562       -1.938       38.811       21.868       18.027     1506.289      478.193      324.975        0.863        0.115      122.260       20.989        0.029      329.673       -3.443      868.798
01/14/2015  05:48:00     -111.805      -29.058       -6.765       21.414       25.717       14.348      458.562      661.354      205.858        0.736        0.066      115.519        4.371        0.001      329.707       -3.386      868.801
01/14/2015  05:49:00     -114.458      -27.954       -7.833       32.982       16.873       19.445     1087.827      284.692      378.120        0.785        0.088      117.822       20.352        0.030      329.646       -3.488      868.807
01/14/2015  05:50:00      -79.013      -10.235        1.280       43.782       27.845       17.739     1916.896      775.351      314.658        0.468        0.150       79.673       15.194        0.036      329.630       -3.511      868.807
01/14/2015  05:51:00      -98.844      -13.775       -1.921       41.170       28.840       21.518     1694.985      831.759      463.004        0.648        0.149       99.799       23.102        0.054      329.656       -3.470      868.808
01/14/2015  05:52:00      -98.628      -42.157        0.068       30.104       34.827       21.606      906.238     1212.890      466.839        0.704        0.129      107.260       17.696        0.027      329.673       -3.442      868.810
01/14/2015  05:53:00     -110.267      -36.837       -9.043       33.655       24.829       17.818     1132.664      616.456      317.496        0.783        0.103      116.258       16.899        0.021      329.680       -3.432      868.811
01/14/2015  05:54:00      -96.903      -29.632       -5.241       26.133       34.529       20.876      682.909     1192.239      435.805        0.630        0.116      101.332       16.611        0.027      329.672       -3.445      868.817
01/14/2015  05:55:00     -110.741       -3.205       -8.232       24.333       19.630       17.539      592.102      385.320      307.620        0.681        0.064      110.787       13.087        0.014      329.647       -3.485      868.819
01/14/2015  05:56:00     -105.733       -8.005       -7.399       22.306       22.000       15.731      497.570      483.998      247.454        0.626        0.061      106.036        9.880        0.009      329.648       -3.484      868.837
01/14/2015  05:57:00     -102.429      -18.114       -3.621       18.374       17.182       13.842      337.601      295.212      191.590        0.583        0.041      104.018       12.161        0.014      329.669       -3.448      868.847
01/14/2015  05:58:00      -96.229      -15.115       -8.169       26.361       17.500       15.582      694.915      306.263      242.793        0.540        0.062       97.409       15.169        0.024      329.608       -3.549      868.850
01/14/2015  05:59:00      -94.910      -34.637       -8.150       18.379       17.343       10.327      337.804      300.770      106.656        0.551        0.037      101.033        6.083        0.004      329.600       -3.562      868.859
01/14/2015  06:00:00      -55.490      -30.695       -4.924       22.657       17.793       13.806      513.351      316.590      190.611        0.253        0.051       63.414       12.625        0.040      329.631       -3.511      868.859
01/14/2015  06:01:00      -80.906      -44.962      -11.384       18.178       19.938       11.807      330.437      397.529      139.414        0.478        0.043       92.560        5.169        0.003      329.624       -3.523      868.856
01/14/2015  06:02:00      -80.051      -47.411       -7.972       16.181       16.000       10.010      261.818      256.015      100.200        0.467        0.031       93.037        7.049        0.006      329.645       -3.490      868.852
01/14/2015  06:03:00      -69.804      -40.730       -3.302       36.065       23.308       14.144     1300.677      543.242      200.066        0.429        0.102       80.818       15.635        0.037      329.666       -3.454      868.853
01/14/2015  06:04:00      -34.397      -33.334        9.256       28.308       22.814       18.718      801.370      520.467      350.353        0.203        0.084       47.899       14.688        0.094      329.723       -3.359      868.867
01/14/2015  06:05:00      -68.310      -39.439       -4.022       37.970       24.310       19.482     1441.695      590.964      379.559        0.432        0.121       78.877       17.287        0.048      329.714       -3.375      868.883
01/14/2015  06:06:00      -86.506      -50.522       -7.631       22.863       24.432       21.005      522.721      596.917      441.198        0.583        0.078      100.179       15.498        0.024      329.781       -3.265      868.889
01/14/2015  06:07:00      -89.256      -51.299       -2.215       34.443       28.302       19.708     1186.343      800.994      388.388        0.649        0.119      102.948       16.062        0.024      329.798       -3.238      868.914
01/14/2015  06:08:00      -68.020      -37.608        1.757       41.603       23.370       19.876     1730.783      546.146      395.071        0.436        0.134       77.725       14.785        0.036      329.732       -3.345      868.934
01/14/2015  06:09:00      -84.383      -27.278       -6.323       25.735       31.206       16.750      662.285      973.802      280.550        0.491        0.096       88.682       12.486        0.020      329.747       -3.319      868.950
01/14/2015  06:10:00     -117.869      -21.249       -5.825       19.803       20.244       13.911      392.163      409.822      193.512        0.769        0.050      119.769       11.060        0.009      329.686       -3.422      868.955
01/14/2015  06:11:00      -98.215      -24.400        1.598       34.460       24.626       15.166     1187.524      606.453      229.998        0.613        0.101      101.201       16.996        0.028      329.647       -3.485      868.955
01/14/2015  06:12:00     -111.778      -27.023       -1.119       32.540       29.046       18.987     1058.840      843.642      360.507        0.774        0.113      114.998       17.769        0.024      329.699       -3.399      868.952
01/14/2015  06:13:00      -97.622      -35.641        1.198       28.669       21.879       15.436      821.916      478.684      238.272        0.617        0.077      103.925       14.127        0.018      329.656       -3.470      868.942
01/14/2015  06:14:00      -99.415      -21.727       -0.204       29.905       31.306       17.572      894.311      980.090      308.783        0.627        0.109      101.761       16.356        0.026      329.671       -3.445      868.942
01/14/2015  06:15:00      -88.767      -58.631       -1.054       34.649       24.779       16.980     1200.578      614.017      288.318        0.671        0.105      106.383       11.504        0.012      329.719       -3.367      868.944
01/14/2015  06:16:00      -92.461      -21.624       -3.769       26.374       29.687       17.705      695.607      881.342      313.450        0.546        0.095       94.956       16.145        0.029      329.663       -3.459      868.945
01/14/2015  06:17:00     -111.716      -19.747       -4.952       21.841       22.111       12.378      477.022      488.903      153.214        0.701        0.056      113.448        9.250        0.007      329.653       -3.477      868.942
01/14/2015  06:18:00      -82.081      -48.909       -7.180       17.050       29.931       12.712      290.709      895.888      161.599        0.526        0.067       95.548        7.264        0.006      329.674       -3.442      868.931
01/14/2015  06:19:00      -63.331      -15.895       -0.874       17.793       14.568       12.063      316.604      212.224      145.516        0.247        0.034       65.295        8.010        0.015      329.712       -3.379      868.917
01/14/2015  06:20:00      -51.494      -27.286       -5.464       17.577       12.145        8.663      308.950      147.492       75.055        0.198        0.027       58.277        3.957        0.005      329.747       -3.321      868.907
01/14/2015  06:21:00      -52.153      -27.278       -1.443       14.081       11.266       10.386      198.264      126.928      107.875        0.195        0.022       58.856        8.070        0.019      329.764       -3.292      868.897
01/14/2015  06:22:00      -40.168      -22.740       -5.870       19.507       13.883        9.970      380.529      192.736       99.402        0.142        0.034       46.158        7.992        0.030      329.806       -3.224      868.892
01/14/2015  06:23:00      -69.865      -24.061       -4.155       20.295       13.898        9.189      411.885      193.149       84.446        0.308        0.034       73.892        5.234        0.005      329.762       -3.295      868.891
01/14/2015  06:24:00      -95.218      -46.292       -7.947       12.350       14.662        9.122      152.512      214.964       83.206        0.586        0.023      105.874        5.650        0.003      329.790       -3.250      868.897
01/14/2015  06:25:00      -94.150      -41.623       -4.820       22.008       17.790       13.458      484.371      316.481      181.109        0.580        0.049      102.940        9.912        0.009      329.735       -3.339      868.899
01/14/2015  06:26:00      -88.602      -40.220       -2.099       19.154       18.976       14.079      366.889      360.104      198.213        0.520        0.046       97.303        9.997        0.011      329.734       -3.341      868.903
01/14/2015  06:27:00      -79.346      -35.431        1.848       27.903       25.423       14.772      778.569      646.347      218.227        0.460        0.082       86.898       16.238        0.035      329.798       -3.238      868.902
01/14/2015  06:28:00      -79.037      -29.640       -1.584       29.073       28.134       16.397      845.253      791.500      268.870        0.452        0.095       84.412       15.608        0.034      329.803       -3.228      868.897
01/14/2015  06:29:00      -93.966       -7.708       -3.714       12.452       14.894       11.036      155.056      221.826      121.794        0.470        0.025       94.281        7.777        0.007      329.678       -3.434      868.900
01/14/2015  06:30:00      -73.640      -19.346        7.170       26.987       15.842       16.916      728.304      250.984      286.165        0.356        0.063       76.139       17.656        0.054      329.648       -3.484      868.910
01/14/2015  06:31:00      -65.273      -15.825        1.526       28.248       22.656       14.574      797.947      513.312      212.414        0.302        0.076       67.164       10.043        0.022      329.682       -3.428      868.909
01/14/2015  06:32:00      -75.906       -7.188       -0.684       28.282       13.808       14.872      799.846      190.673      221.183        0.351        0.061       76.246       16.110        0.045      329.673       -3.442      868.915
01/14/2015  06:33:00      -67.734       -7.015       -1.626       25.229       19.704       13.999      636.487      388.262      195.968        0.293        0.061       68.096       14.533        0.046      329.658       -3.466      868.917
01/14/2015  06:34:00      -64.143       -6.438        0.645       22.977       16.059       12.062      527.930      257.903      145.481        0.254        0.047       64.465       11.837        0.034      329.689       -3.416      868.916
01/14/2015  06:35:00      -58.114      -10.157       -0.666       25.951       14.715       13.333      673.435      216.536      177.777        0.227        0.053       58.995        9.959        0.028      329.726       -3.355      868.920
01/14/2015  06:36:00      -95.784        2.685       -5.289       21.019       11.269       10.717      441.781      126.979      114.850        0.495        0.034       95.821       11.510        0.014      329.709       -3.382      868.914
01/14/2015  06:37:00      -81.479        1.040       -8.444       33.962       15.153       13.416     1153.416      229.625      179.983        0.414        0.078       81.486       17.364        0.045      329.726       -3.352      868.903
01/14/2015  06:38:00      -54.801        0.159       -6.218       17.487       20.749       15.080      305.787      430.521      227.392        0.200        0.048       54.801       11.059        0.041      329.777       -3.272      868.894
01/14/2015  06:39:00      -56.319       25.480      -10.366       19.149       20.598        9.590      366.695      424.292       91.976        0.241        0.044       61.815        3.959        0.004      329.704       -3.391      868.888
01/14/2015  06:40:00      -49.510       14.588      -10.377       18.735       26.853       16.443      351.006      721.104      270.386        0.206        0.067       51.615        6.373        0.015      329.621       -3.528      868.873
01/14/2015  06:41:00      -67.261        2.722       -9.970       18.945       23.352       15.213      358.925      545.304      231.439        0.288        0.057       67.316        9.696        0.021      329.546       -3.648      868.864
01/14/2015  06:42:00      -98.150        3.837      -10.578       28.514       30.128       18.222      813.024      907.671      332.026        0.591        0.103       98.225       11.373        0.013      329.488       -3.745      868.852
01/14/2015  06:43:00      -62.248       -4.943       -7.176       24.540       19.401       17.708      602.201      376.410      313.570        0.262        0.065       62.444       10.524        0.028      329.443       -3.821      868.840
01/14/2015  06:44:00      -68.460       -1.994       -7.096       42.826       19.521       18.044     1834.097      381.060      325.573        0.364        0.127       68.489       24.242        0.125      329.434       -3.834      868.828
01/14/2015  06:45:00      -76.937        3.426       -3.034       21.674       23.100       14.727      469.757      533.632      216.871        0.358        0.061       77.014       11.765        0.023      329.436       -3.830      868.813
01/14/2015  06:46:00      -75.634       -3.804       -6.283       26.207       21.095       11.375      686.830      444.983      129.396        0.352        0.063       75.730       11.992        0.025      329.441       -3.822      868.798
01/14/2015  06:47:00      -86.897       -8.883       -8.010       18.141       18.861       11.155      329.095      355.736      124.424        0.425        0.040       87.350        7.918        0.008      329.394       -3.899      868.795
01/14/2015  06:48:00      -75.525        0.935       -6.393       24.403       21.424       11.939      595.529      458.979      142.538        0.347        0.060       75.531       13.198        0.031      329.366       -3.944      868.794
01/14/2015  06:49:00      -89.824      -11.047       -9.454       26.772       15.877       15.153      716.729      252.085      229.625        0.474        0.060       90.501       13.993        0.024      329.267       -4.106      868.795
01/14/2015  06:50:00      -79.968      -23.905       -9.865       24.758       22.515       12.189      612.963      506.947      148.564        0.417        0.063       83.464        9.362        0.013      329.289       -4.070      868.801
01/14/2015  06:51:00      -74.604      -30.168       -1.697       25.745       29.992       18.203      662.796      899.516      331.340        0.419        0.095       80.473       14.767        0.034      329.274       -4.094      868.815
01/14/2015  06:52:00      -81.522       -0.169       -2.491       45.909       34.393       23.902     2107.640     1182.875      571.323        0.526        0.193       81.522       25.132        0.095      329.284       -4.077      868.843
01/14/2015  06:53:00     -100.106        2.481       -8.426       40.779       31.227       24.221     1662.940      975.114      586.654        0.666        0.161      100.137       18.327        0.033      329.296       -4.058      868.862
01/14/2015  06:54:00     -144.693       11.656      -15.134       37.744       35.424       25.002     1424.594     1254.882      625.119        1.230        0.165      145.162       21.768        0.022      329.287       -4.075      868.882
01/14/2015  06:55:00     -130.293        6.986       -9.691       63.776       34.491       26.649     4067.386     1189.605      710.182        1.154        0.298      130.480       31.408        0.058      329.313       -4.032      868.905
01/14/2015  06:56:00     -145.354        1.407      -18.906       31.080       34.348       20.764      965.961     1179.773      431.163        1.203        0.129      145.360       15.630        0.012      329.361       -3.954      868.922
01/14/2015  06:57:00     -151.068        5.466      -15.172       36.798       49.406       24.685     1354.124     2440.993      609.355        1.374        0.220      151.167       20.266        0.018      329.404       -3.882      868.931
01/14/2015  06:58:00     -148.891      -18.324      -15.874       47.772       40.322       24.680     2282.135     1625.854      609.120        1.364        0.226      150.014       22.407        0.022      329.357       -3.960      868.935
01/14/2015  06:59:00     -139.784       -0.549      -12.736       49.863       40.906       20.686     2486.273     1673.325      427.918        1.214        0.229      139.785       16.109        0.013      329.380       -3.922      868.930
01/14/2015  07:00:00     -116.256      -22.264       -8.005       37.103       30.503       22.511     1376.615      930.444      506.747        0.844        0.141      118.369       20.164        0.029      329.376       -3.928      868.934
01/14/2015  07:01:00     -135.536        3.976       -8.021       43.641       32.164       24.721     1904.505     1034.519      611.110        1.100        0.178      135.594       24.183        0.032      329.319       -4.021      868.943
01/14/2015  07:02:00      -89.697       -9.471       -9.534       36.334       34.782       19.067     1320.174     1209.795      363.537        0.556        0.145       90.195       16.811        0.035      329.398       -3.892      868.948
01/14/2015  07:03:00      -70.806        3.197       -6.995       35.329       26.343       18.797     1248.142      693.947      353.335        0.368        0.115       70.878       19.452        0.075      329.497       -3.730      868.947
01/14/2015  07:04:00     -144.021        4.933      -20.836       27.904       28.968       20.128      778.658      839.171      405.150        1.161        0.101      144.106       15.926        0.012      329.448       -3.810      868.951
01/14/2015  07:05:00      -98.879      -14.575       -5.963       29.977       25.072       17.361      898.632      628.588      301.393        0.593        0.091       99.947       14.649        0.021      329.338       -3.990      868.965
01/14/2015  07:06:00      -97.854      -32.435       -6.226       25.494       28.159       18.944      649.960      792.920      358.864        0.623        0.090      103.090       15.015        0.021      329.377       -3.926      868.964
01/14/2015  07:07:00      -89.202      -14.030       -5.383       39.701       23.964       21.287     1576.156      574.267      453.128        0.539        0.130       90.299       22.512        0.062      329.430       -3.840      868.962
01/14/2015  07:08:00      -99.413        6.598       -9.469       31.296       25.827       18.427      979.433      667.014      339.563        0.600        0.099       99.632       16.512        0.027      329.542       -3.657      868.977
01/14/2015  07:09:00      -99.113      -28.346      -25.166       27.486       20.731       12.834      755.462      429.766      164.709        0.630        0.067      103.087       14.182        0.019      329.556       -3.632      868.984
01/14/2015  07:10:00      -66.237      -27.240        6.490       20.896       20.940       13.871      436.637      438.479      192.415        0.312        0.053       71.619       11.030        0.024      329.572       -3.607      868.984
01/14/2015  07:11:00     -105.448      -20.386       -6.285       25.855       18.405       18.070      668.497      338.745      326.536        0.645        0.067      107.400       16.876        0.025      329.546       -3.649      868.982
01/14/2015  07:12:00     -107.308      -33.724       -5.027       17.623       16.453       11.242      310.554      270.698      126.375        0.669        0.035      112.483        8.136        0.005      329.588       -3.581      868.990
01/14/2015  07:13:00     -109.498      -41.277      -15.575       12.143       17.398       12.334      147.462      302.683      152.136        0.727        0.030      117.019        7.136        0.004      329.592       -3.575      868.983
01/14/2015  07:14:00     -124.096      -58.916       -6.337       37.061       26.143       18.248     1373.493      683.478      332.996        1.065        0.119      137.372       17.819        0.017      329.632       -3.510      868.980
01/14/2015  07:15:00     -105.151      -64.529       -1.136       46.810       33.686       22.079     2191.190     1134.739      487.499        0.952        0.191      123.373       22.722        0.034      329.700       -3.398      868.999
01/14/2015  07:16:00     -122.874      -59.221        1.164       26.477       23.632       16.036      701.010      558.461      257.165        1.006        0.076      136.400        9.688        0.005      329.771       -3.281      869.005
01/14/2015  07:17:00     -124.035      -49.776       -7.312       29.018       19.765       15.533      842.027      390.662      241.289        0.969        0.074      133.650       16.326        0.015      329.775       -3.275      869.000
01/14/2015  07:18:00      -87.331      -52.662       -5.999       24.537       27.159       13.126      602.049      737.601      172.282        0.597        0.076      101.980        3.898        0.001      329.759       -3.300      868.993
01/14/2015  07:19:00      -65.241      -24.696        4.712       28.662       17.928       15.601      821.507      321.428      243.403        0.314        0.069       69.759       13.499        0.037      329.779       -3.270      868.999
01/14/2015  07:20:00      -69.907      -39.633       -1.113       20.619       20.029       13.820      425.151      401.146      190.998        0.374        0.051       80.360       13.090        0.027      329.715       -3.372      868.995
01/14/2015  07:21:00      -75.149      -53.321       -3.160       29.639       16.942       14.074      878.477      287.026      198.081        0.493        0.068       92.144       14.893        0.026      329.707       -3.386      868.997
01/14/2015  07:22:00      -91.971      -51.360       -9.414       24.588       18.686       16.206      604.548      349.176      262.648        0.620        0.061      105.340       14.473        0.019      329.645       -3.489      868.991
01/14/2015  07:23:00      -71.056      -46.074        4.175       50.312       36.264       24.911     2531.252     1315.067      620.553        0.583        0.223       84.686       29.206        0.119      329.641       -3.493      868.987
01/14/2015  07:24:00     -114.972      -66.186       -4.307       22.055       19.852       16.304      486.405      394.094      265.818        0.938        0.057      132.662       14.772        0.012      329.610       -3.546      868.977
01/14/2015  07:25:00      -82.264      -51.004        4.747       40.992       21.860       20.753     1680.365      477.848      430.705        0.599        0.129       96.793       17.936        0.034      329.595       -3.570      868.982
01/14/2015  07:26:00      -54.551      -42.835       -0.578       35.163       20.628       19.658     1236.433      425.527      386.450        0.343        0.102       69.359       12.386        0.032      329.702       -3.395      868.993
01/14/2015  07:27:00      -45.312      -53.831        2.837       22.992       24.626       19.733      528.616      606.433      389.390        0.324        0.076       70.363       12.638        0.032      329.801       -3.233      868.992
01/14/2015  07:28:00      -83.223      -64.680       -3.654       29.889       26.716       22.476      893.335      713.742      505.166        0.662        0.106      105.402       19.188        0.033      329.729       -3.348      868.993
01/14/2015  07:29:00      -93.519      -46.337       -0.607       27.165       23.553       16.768      737.923      554.724      281.156        0.623        0.079      104.369       11.928        0.013      329.729       -3.351      868.992
01/14/2015  07:30:00      -87.575      -46.526        3.693       31.989       22.101       18.137     1023.290      488.475      328.959        0.584        0.092       99.166       15.651        0.025      329.747       -3.321      869.004
01/14/2015  07:31:00      -67.546      -39.227        0.617       26.910       21.939       15.440      724.125      481.314      238.379        0.377        0.072       78.110       11.571        0.022      329.766       -3.290      869.015
01/14/2015  07:32:00      -85.985      -36.443        1.860       33.432       15.781       15.245     1117.706      249.040      232.399        0.516        0.080       93.389       14.105        0.023      329.732       -3.346      869.028
01/14/2015  07:33:00      -88.315      -47.249       -4.190       34.645       24.761       16.288     1200.282      613.089      265.286        0.606        0.104      100.160       15.838        0.025      329.770       -3.284      869.039
01/14/2015  07:34:00      -65.687      -18.674       -0.827       25.293       25.168       12.314      639.725      633.447      151.635        0.304        0.071       68.290       10.064        0.022      329.786       -3.258      869.055
01/14/2015  07:35:00      -88.106      -12.613       -5.700       17.507       17.293       11.395      306.509      299.054      129.843        0.434        0.037       89.004        7.252        0.007      329.723       -3.360      869.073
01/14/2015  07:36:00      -89.275        0.800       -3.416       17.258       14.829       13.223      297.827      219.909      174.839        0.434        0.035       89.278        8.643        0.009      329.721       -3.362      869.086
01/14/2015  07:37:00      -83.691       -3.439       -2.800       23.211       16.669       14.365      538.761      277.844      206.361        0.402        0.051       83.762       11.371        0.018      329.710       -3.381      869.088
01/14/2015  07:38:00      -82.267      -10.630       -4.157       26.255       14.569       14.768      689.328      212.259      218.081        0.401        0.056       82.951       14.227        0.029      329.706       -3.388      869.086
01/14/2015  07:39:00      -79.572      -21.554       -7.531       23.611       19.626       11.422      557.484      385.198      130.472        0.396        0.054       82.439       11.073        0.018      329.702       -3.394      869.087
01/14/2015  07:40:00      -50.961       -5.803       -1.114       29.487       12.753       12.683      869.490      162.642      160.865        0.191        0.060       51.291       11.029        0.046      329.708       -3.385      869.091
01/14/2015  07:41:00      -65.843       -5.037       -4.847       22.397       11.327       13.581      501.620      128.309      184.452        0.260        0.041       66.036       14.532        0.048      329.680       -3.431      869.099
01/14/2015  07:42:00      -72.997      -12.600       -0.212       22.044       15.298       15.433      485.949      234.033      238.178        0.322        0.048       74.076       15.143        0.042      329.724       -3.359      869.106
01/14/2015  07:43:00      -93.351       -3.355       -8.636       17.155       12.397       13.022      294.302      153.690      169.575        0.471        0.031       93.411       10.208        0.012      329.715       -3.373      869.100
01/14/2015  07:44:00      -89.313      -16.461       -3.896       24.546       13.112       13.844      602.521      171.915      191.665        0.461        0.048       90.818        9.835        0.012      329.762       -3.297      869.105
01/14/2015  07:45:00      -77.710      -21.889       -0.162       22.225       16.588       11.204      493.969      275.150      125.524        0.371        0.045       80.734       10.584        0.017      329.733       -3.344      869.110
01/14/2015  07:46:00      -66.578      -33.036        3.099       27.809       17.605       16.168      773.320      309.933      261.411        0.344        0.067       74.324       16.897        0.052      329.843       -3.165      869.116
01/14/2015  07:47:00      -68.496      -36.397        3.129       28.139       21.580       13.274      791.827      465.687      176.202        0.373        0.072       77.566       10.041        0.017      329.882       -3.101      869.121
01/14/2015  07:48:00      -73.403      -24.845       -1.061       25.883       24.168       12.623      669.925      584.083      159.339        0.371        0.071       77.494       13.714        0.031      329.875       -3.112      869.126
01/14/2015  07:49:00      -76.829      -23.056        0.829       27.781       14.418       15.685      771.788      207.875      246.011        0.383        0.061       80.214       13.466        0.028      329.902       -3.069      869.126
01/14/2015  07:50:00      -68.285      -32.706       -3.544       26.194       14.366       15.339      686.136      206.368      235.292        0.344        0.056       75.713       14.370        0.036      329.930       -3.023      869.120
01/14/2015  07:51:00      -84.393      -37.286       -5.923       17.162       16.813       12.335      294.525      282.665      152.154        0.464        0.036       92.263        8.163        0.008      329.959       -2.974      869.113
01/14/2015  07:52:00      -68.443      -34.054       -3.139       15.319       16.058       10.675      234.674      257.850      113.961        0.323        0.030       76.447        6.050        0.006      329.947       -2.995      869.108
01/14/2015  07:53:00      -33.792      -26.150        0.273       22.002       16.322       10.196      484.101      266.395      103.955        0.134        0.043       42.728        6.681        0.024      330.025       -2.867      869.106
01/14/2015  07:54:00      -42.166      -16.991       -3.113       16.420       15.093        9.560      269.624      227.806       91.401        0.133        0.029       45.460        8.610        0.036      330.030       -2.858      869.112
01/14/2015  07:55:00      -26.941        7.890        0.752        9.794       13.096       10.035       95.926      171.506      100.705        0.058        0.018       28.072        7.709        0.075      330.089       -2.763      869.121
01/14/2015  07:56:00       -3.060        8.443       -3.181        5.147        4.554        4.256       26.491       20.739       18.114        0.008        0.003        8.981        1.908        0.045      330.212       -2.560      869.130
01/14/2015  07:57:00       10.671        6.991       12.301       10.438       10.362        9.189      108.946      107.368       84.434        0.031        0.015       12.757        7.463        0.342      330.307       -2.405      869.145
01/14/2015  07:58:00        0.535       21.983       22.211       11.789        9.962       15.419      138.971       99.236      237.730        0.073        0.024       21.989       11.004        0.250      330.369       -2.301      869.150
01/14/2015  07:59:00       -3.827        9.864       21.221        6.481       10.362       11.422       42.004      107.372      130.471        0.042        0.014       10.581        6.366        0.362      330.522       -2.050      869.155
01/14/2015  08:00:00      -17.022       -4.233        9.837       12.243        6.975        7.396      149.885       48.654       54.698        0.033        0.013       17.540        6.981        0.158      330.452       -2.164      869.163
01/14/2015  08:01:00      -42.680       -9.803        5.668       19.332       16.351       12.093      373.716      267.369      146.247        0.137        0.039       43.791        9.126        0.043      330.249       -2.499      869.164
01/14/2015  08:02:00      -17.624       -0.022        6.988       19.254       15.907       13.037      370.704      253.036      169.956        0.058        0.040       17.624        7.359        0.174      330.315       -2.392      869.169
01/14/2015  08:03:00       -7.500        8.884       10.994       31.017       27.531       15.541      962.032      757.975      241.532        0.111        0.098       11.627       18.616        2.564      330.348       -2.335      869.179
01/14/2015  08:04:00       20.054       40.262       -4.588       19.459        9.864       14.156      378.643       97.299      200.391        0.136        0.034       44.980       14.371        0.102      330.354       -2.327      869.182
01/14/2015  08:05:00        6.194       48.379       49.055       22.647       30.067       22.788      512.897      904.030      519.290        0.336        0.097       48.774       13.660        0.078      330.401       -2.250      869.188
01/14/2015  08:06:00       -4.125       13.336       36.212       14.011       26.930       21.493      196.295      725.220      461.968        0.144        0.069       13.960       15.043        1.161      330.550       -2.006      869.201
01/14/2015  08:07:00      -14.491        5.465       15.416       11.449       21.334       14.578      131.081      455.136      212.530        0.064        0.040       15.487       12.800        0.683      330.568       -1.975      869.215
01/14/2015  08:08:00      -19.910        1.071       21.024       16.179       17.235       18.657      261.759      297.036      348.074        0.087        0.045       19.939       13.171        0.436      330.605       -1.914      869.219
01/14/2015  08:09:00       14.394      -38.397       12.555       37.668       47.604       29.693     1418.905     2266.099      881.648        0.320        0.228       41.006       23.606        0.331      330.568       -1.975      869.213
01/14/2015  08:10:00       25.728      -27.530        2.134       32.108       53.457       30.477     1030.936     2857.605      928.819        0.312        0.241       37.681       34.155        0.822      330.615       -1.897      869.211
01/14/2015  08:11:00      -16.206       -7.657       31.647       32.903       20.664       19.756     1082.594      427.011      390.282        0.161        0.095       17.924       21.769        1.475      330.722       -1.724      869.220
01/14/2015  08:12:00      -34.173      -31.826       20.074       29.756       34.585       21.458      885.403     1196.136      460.437        0.256        0.127       46.698       17.304        0.137      330.609       -1.909      869.229
01/14/2015  08:13:00      -35.576       -7.787       21.842       15.407       39.870       18.085      237.385     1589.640      327.082        0.198        0.108       36.419       16.456        0.204      330.608       -1.909      869.242
01/14/2015  08:14:00       -8.441       13.279       27.641       22.541       15.280       24.114      508.097      233.488      581.479        0.117        0.066       15.734       18.204        1.339      330.743       -1.689      869.259
01/14/2015  08:15:00        4.684       16.278       26.401       18.119       27.000       12.681      328.283      728.982      160.798        0.110        0.061       16.939       12.847        0.575      330.804       -1.589      869.288
01/14/2015  08:16:00        7.717        1.066       13.474       19.776       20.211       13.345      391.070      408.482      178.100        0.061        0.049        7.790       11.932        2.346      330.870       -1.480      869.312
01/14/2015  08:17:00       15.410       14.378       22.984       22.190       14.098       16.069      492.404      198.764      258.204        0.096        0.047       21.076       16.061        0.581      330.847       -1.518      869.324
01/14/2015  08:18:00       33.326       29.205       34.900       27.318       24.579       20.339      746.248      604.115      413.663        0.247        0.088       44.312       19.303        0.190      330.678       -1.796      869.339
01/14/2015  08:19:00       47.135       38.622       11.794       15.591       19.246       15.762      243.092      370.420      248.455        0.236        0.043       60.937        8.341        0.019      330.620       -1.892      869.351
01/14/2015  08:20:00       11.023       24.704       50.848       18.657       30.405       18.713      348.100      924.434      350.168        0.247        0.081       27.051       12.568        0.216      330.838       -1.533      869.354
01/14/2015  08:21:00       -0.254       11.743       28.661       27.347       24.498       18.406      747.870      600.147      338.788        0.132        0.084       11.746       18.886        2.585      330.965       -1.324      869.349
01/14/2015  08:22:00       17.439       31.950        3.928       24.756       11.678       18.617      612.836      136.370      346.604        0.122        0.055       36.400        5.899        0.026      330.695       -1.768      869.349
01/14/2015  08:23:00       35.993       25.776       17.493       26.897       15.427       16.614      723.440      237.994      276.030        0.175        0.062       44.270       14.860        0.113      330.858       -1.499      869.344
01/14/2015  08:24:00       40.241       26.542        0.994       21.767       16.197       13.106      473.805      262.351      171.771        0.162        0.045       48.206        9.050        0.035      330.503       -2.082      869.341
01/14/2015  08:25:00       12.335       21.478        8.352       20.744       14.067       14.192      430.327      197.893      201.406        0.076        0.041       24.769        9.529        0.148      330.740       -1.694      869.340
01/14/2015  08:26:00       12.800       19.070       20.034       19.615       19.744       11.654      384.734      389.825      135.805        0.092        0.046       22.968        9.334        0.165      331.032       -1.214      869.346
01/14/2015  08:27:00       -3.239        8.675       25.805        8.309       15.946        5.940       69.044      254.277       35.283        0.056        0.018        9.260        2.927        0.100      331.430       -0.561      869.360
01/14/2015  08:28:00       23.456       26.745        7.509       28.739       20.763       21.430      825.958      431.090      459.265        0.152        0.086       35.574       11.138        0.098      330.814       -1.571      869.357
01/14/2015  08:29:00       52.459       36.370        0.630       15.600       13.582       16.765      243.356      184.459      281.066        0.239        0.035       63.834        7.933        0.015      330.663       -1.819      869.372
01/14/2015  08:30:00       48.043       36.356        3.686       13.656       12.370       16.717      186.491      153.011      279.455        0.213        0.031       60.248        5.556        0.009      330.683       -1.786      869.386
01/14/2015  08:31:00       42.974       34.940       11.988       20.102       15.628       23.182      404.090      244.226      537.405        0.220        0.059       55.386       15.982        0.083      330.825       -1.553      869.401
01/14/2015  08:32:00       22.418       36.363        5.410       22.643       19.554       18.012      512.714      382.375      324.425        0.154        0.061       42.718       15.155        0.126      331.035       -1.209      869.419
01/14/2015  08:33:00       81.020       41.211       -1.945       18.480       19.488       18.477      341.522      379.791      341.401        0.466        0.053       90.899        8.117        0.008      330.821       -1.559      869.421
01/14/2015  08:34:00       88.080       57.636        5.504       27.928       24.388       22.067      779.958      594.788      486.937        0.649        0.093      105.262       13.853        0.017      330.677       -1.798      869.418
01/14/2015  08:35:00       58.600       66.417        2.264       41.659       24.841       25.742     1735.479      617.094      662.673        0.543        0.151       88.573       20.730        0.055      330.848       -1.517      869.412
01/14/2015  08:36:00       24.528       27.115       26.320       25.277       36.294       26.924      638.945     1317.291      724.894        0.235        0.134       36.563       20.661        0.319      331.151       -1.019      869.406
01/14/2015  08:37:00        2.458       30.259       46.486       14.380       27.433       14.303      206.788      752.565      204.574        0.212        0.058       30.359        7.234        0.057      331.300       -0.774      869.389
01/14/2015  08:38:00        2.183       32.025       38.453       11.483       16.997       10.255      131.858      288.913      105.156        0.152        0.026       32.100        5.222        0.026      331.335       -0.716      869.386
01/14/2015  08:39:00       29.114       32.147       19.397       29.346       22.858       18.119      861.210      522.482      328.289        0.198        0.086       43.371       14.733        0.115      331.150       -1.020      869.387
01/14/2015  08:40:00       17.278       46.585       -1.978       24.207       19.140       16.034      585.966      366.332      257.077        0.184        0.060       49.685        9.958        0.040      331.088       -1.123      869.371
01/14/2015  08:41:00       25.394       40.650       12.537       30.457       27.029       24.989      927.599      730.554      624.449        0.237        0.114       47.930       15.958        0.111      331.224       -0.897      869.356
01/14/2015  08:42:00       55.935       52.066        0.351       17.664       13.668       18.598      312.012      186.823      345.874        0.334        0.042       76.417        7.323        0.009      330.988       -1.287      869.354
01/14/2015  08:43:00       62.390       39.318        1.027       14.853       14.861       16.007      220.604      220.859      256.232        0.307        0.035       73.746        6.466        0.008      330.848       -1.516      869.356
01/14/2015  08:44:00       54.612       49.751        0.690       26.109       16.842       19.531      681.668      283.663      381.448        0.340        0.067       73.876       14.195        0.037      331.092       -1.117      869.370
01/14/2015  08:45:00       28.714       33.135       20.903       28.443       17.691       15.101      808.998      312.970      228.045        0.185        0.068       43.845        5.994        0.019      331.235       -0.881      869.379
01/14/2015  08:46:00       33.818       27.637       12.612       29.031       18.219       19.041      842.800      331.915      362.559        0.180        0.077       43.675       12.811        0.086      331.339       -0.709      869.377
01/14/2015  08:47:00       59.733       38.112       10.734       25.193       23.385       21.523      634.707      546.853      463.253        0.339        0.082       70.856       13.383        0.036      331.323       -0.736      869.382
01/14/2015  08:48:00       54.266       28.995        3.250       23.950       23.729       18.262      573.605      563.076      333.502        0.263        0.074       61.527       11.882        0.037      331.187       -0.960      869.383
01/14/2015  08:49:00       13.032       37.306        4.079       26.228       26.143       16.170      687.912      683.438      261.459        0.161        0.082       39.517       10.264        0.067      331.465       -0.503      869.385
01/14/2015  08:50:00       49.152       64.343        1.575       44.329       35.156       23.873     1965.068     1235.949      569.903        0.516        0.189       80.969       16.870        0.043      331.409       -0.595      869.386
01/14/2015  08:51:00       37.381       71.110       -2.236       36.123       31.498       21.865     1304.846      992.141      478.084        0.462        0.139       80.336       12.902        0.026      331.304       -0.768      869.391
01/14/2015  08:52:00        9.764       55.913        0.892       20.444       33.993       23.866      417.950     1155.526      569.598        0.268        0.107       56.759       21.332        0.141      331.339       -0.707      869.388
01/14/2015  08:53:00       22.559       30.768       -3.294       20.697       45.250       23.179      428.370     2047.530      537.274        0.224        0.151       38.152       21.818        0.327      331.185       -0.962      869.391
01/14/2015  08:54:00       47.852       28.570       15.836       35.045       15.557       24.053     1228.171      242.015      578.561        0.270        0.102       55.732       16.550        0.088      331.337       -0.713      869.389
01/14/2015  08:55:00       58.336       21.862        9.208       37.916       25.579       20.592     1437.607      654.278      424.031        0.324        0.126       62.298       15.610        0.063      331.365       -0.668      869.389
01/14/2015  08:56:00       80.589       62.127       -3.677       24.761       25.961       23.295      613.085      673.948      542.640        0.610        0.091      101.756       16.342        0.026      331.349       -0.693      869.392
01/14/2015  08:57:00       97.020       68.340        7.854       21.308       20.350       26.586      454.023      414.109      706.831        0.786        0.079      118.673       14.952        0.016      331.213       -0.918      869.402
01/14/2015  08:58:00       31.437       43.370        9.505       35.454       38.262       32.113     1256.981     1463.957     1031.261        0.336        0.188       53.565       27.267        0.259      331.503       -0.441      869.436
01/14/2015  08:59:00       65.993       63.219       -6.966       52.425       29.789       23.363     2748.414      887.383      545.847        0.629        0.209       91.387       15.691        0.029      331.385       -0.634      869.451
01/14/2015  09:00:00       73.962       79.403       16.389       35.811       31.234       34.957     1282.401      975.553     1221.965        0.776        0.174      108.514       23.387        0.046      331.306       -0.764      869.472
01/14/2015  09:01:00       31.322       21.431       32.751       24.956       39.485       29.013      622.803     1559.104      841.770        0.277        0.151       37.952       25.212        0.441      331.625       -0.239      869.494
01/14/2015  09:02:00       46.195       38.916       24.447       35.079       40.093       41.730     1230.519     1607.412     1741.388        0.441        0.229       60.402       31.080        0.265      331.375       -0.650      869.503
01/14/2015  09:03:00       33.745        8.848       10.017       34.749       36.163       27.220     1207.521     1307.760      740.952        0.229        0.163       34.886       23.979        0.472      331.567       -0.334      869.500
01/14/2015  09:04:00       71.480       52.015        6.897       52.236       28.009       35.200     2728.621      784.494     1239.028        0.631        0.238       88.402       25.893        0.086      331.466       -0.501      869.488
01/14/2015  09:05:00       85.523       55.896       -0.755       31.670       30.039       26.789     1002.981      902.312      717.666        0.653        0.131      102.169       12.707        0.015      331.590       -0.296      869.490
01/14/2015  09:06:00       44.352       47.986       24.691       29.221       27.402       24.145      853.867      750.882      582.962        0.353        0.109       65.343       16.156        0.061      331.752       -0.030      869.505
01/14/2015  09:07:00       72.709       56.962       25.094       36.655       22.528       32.889     1343.556      507.523     1081.696        0.605        0.147       92.365       17.544        0.036      331.532       -0.391      869.500
01/14/2015  09:08:00       75.251       49.622        3.877       31.096       24.470       20.810      966.930      598.782      433.063        0.507        0.100       90.139        6.440        0.005      331.390       -0.625      869.497
01/14/2015  09:09:00       86.856       78.651        2.967       33.044       23.944       26.472     1091.884      573.317      700.774        0.805        0.118      117.174       11.348        0.009      331.445       -0.536      869.494
01/14/2015  09:10:00       52.005       65.722       45.506       39.961       34.361       31.967     1596.887     1180.681     1021.918        0.645        0.190       83.809       27.686        0.109      331.757       -0.021      869.485
01/14/2015  09:11:00       66.751       92.404       71.756       25.066       26.242       33.079      628.298      688.655     1094.201        1.028        0.121      113.992       18.580        0.027      331.501       -0.444      869.479
01/14/2015  09:12:00       59.003       71.751       53.787       44.767       35.983       36.628     2004.094     1294.780     1341.578        0.808        0.232       92.895       27.866        0.090      331.675       -0.157      869.475
01/14/2015  09:13:00      119.910       87.950       46.325       27.769       18.760       26.514      771.112      351.919      702.989        1.304        0.091      148.707       14.794        0.010      331.507       -0.435      869.479
01/14/2015  09:14:00       30.340       94.147       81.679       41.894       43.515       32.034     1755.147     1893.546     1026.195        1.056        0.234       98.915       29.124        0.087      331.841        0.115      869.477
01/14/2015  09:15:00       54.945       63.003       47.501       55.167       42.205       39.571     3043.380     1781.236     1565.837        0.782        0.320       83.596       31.505        0.142      331.826        0.092      869.483
01/14/2015  09:16:00       83.595       80.378        9.717       47.546       32.520       36.994     2260.647     1057.548     1368.554        0.911        0.234      115.969       27.363        0.056      331.711       -0.097      869.492
01/14/2015  09:17:00      108.467       82.115       17.345       54.345       43.052       34.115     2953.342     1853.439     1163.808        1.239        0.299      136.044       18.478        0.018      331.697       -0.122      869.499
01/14/2015  09:18:00      104.867      105.685       26.870       44.704       36.134       41.848     1998.483     1305.675     1751.271        1.397        0.253      148.884       23.640        0.025      331.734       -0.060      869.505
01/14/2015  09:19:00      114.786       70.219        7.974       50.084       43.148       28.414     2508.436     1861.746      807.374        1.167        0.259      134.561       13.480        0.010      331.716       -0.090      869.504
01/14/2015  09:20:00       36.653       53.597       79.393       46.462       55.459       31.362     2158.694     3075.739      983.546        0.837        0.311       64.931       31.136        0.230      332.031        0.429      869.490
01/14/2015  09:21:00       28.909       84.691       86.846       32.485       47.957       34.645     1055.270     2299.911     1200.291        1.005        0.228       89.489       29.773        0.111      331.833        0.103      869.497
01/14/2015  09:22:00       93.681       74.807       35.265       34.297       30.301       38.770     1176.279      918.150     1503.105        0.961        0.180      119.885       28.702        0.057      331.594       -0.290      869.503
01/14/2015  09:23:00       70.695       81.266       51.324       51.872       32.751       42.527     2690.711     1072.611     1808.507        0.990        0.279      107.712       39.191        0.132      331.735       -0.057      869.502
01/14/2015  09:24:00       83.276       62.357       31.501       20.438       18.355       23.841      417.704      336.911      568.383        0.657        0.066      104.035        3.912        0.001      331.526       -0.402      869.518
01/14/2015  09:25:00       82.654       50.234       16.325       41.823       22.199       31.088     1749.193      492.798      966.479        0.641        0.160       96.722       15.648        0.026      331.812        0.069      869.536
01/14/2015  09:26:00       35.249       54.001       17.206       50.210       36.387       29.670     2521.070     1324.049      880.289        0.459        0.236       64.487        9.543        0.022      332.124        0.584      869.546
01/14/2015  09:27:00       -0.472       29.845       60.965       26.557       48.431       32.521      705.287     2345.560     1057.619        0.436        0.205       29.848       30.405        1.038      332.463        1.142      869.550
01/14/2015  09:28:00       84.136       74.088       42.047       65.884       38.099       48.603     4340.700     1451.558     2362.300        1.124        0.408      112.106       40.988        0.134      331.910        0.230      869.558
01/14/2015  09:29:00       42.576      -14.240       15.970       41.928       42.853       26.019     1757.954     1836.413      677.008        0.327        0.214       44.894       22.424        0.249      331.949        0.294      869.558
01/14/2015  09:30:00       13.330       47.572       64.977       38.220       56.328       51.647     1460.761     3172.835     2667.407        0.698        0.365       49.405       46.157        0.873      332.209        0.723      869.552
01/14/2015  09:31:00       84.855       62.791       52.000       29.446       28.125       29.977      867.042      791.038      898.645        0.820        0.128      105.560       17.171        0.026      331.708       -0.103      869.567
01/14/2015  09:32:00       90.800       63.989       24.660       50.798       32.017       35.406     2580.414     1025.091     1253.569        0.890        0.243      111.082       30.151        0.074      331.935        0.272      869.582
01/14/2015  09:33:00       79.590       44.561        2.555       46.738       37.187       31.283     2184.415     1382.863      978.603        0.644        0.227       91.215       17.473        0.037      331.764       -0.009      869.602
01/14/2015  09:34:00      101.554       74.765       43.348       64.355       35.062       34.133     4141.549     1229.309     1165.049        1.216        0.327      126.108       30.077        0.057      332.095        0.534      869.602
01/14/2015  09:35:00        0.351       63.135       93.465       49.445       59.044       37.846     2444.854     3486.150     1432.340        1.004        0.368       63.136       32.141        0.259      332.313        0.895      869.595
01/14/2015  09:36:00        7.684      -18.903       42.299       27.164       52.228       39.553      737.893     2727.728     1564.448        0.362        0.252       20.405       28.375        1.934      332.500        1.204      869.603
01/14/2015  09:37:00      103.750       55.910       43.151       61.191       65.094       41.957     3744.279     4237.186     1760.385        1.275        0.487      117.856       34.168        0.084      332.078        0.508      869.611
01/14/2015  09:38:00      109.279       72.419       50.696       66.825       50.353       39.829     4465.595     2535.416     1586.337        1.417        0.429      131.097       40.068        0.093      332.049        0.459      869.612
01/14/2015  09:39:00       18.053       61.021       65.826       55.026       37.466       38.482     3027.889     1403.672     1480.862        0.715        0.296       63.635       41.519        0.426      332.444        1.110      869.618
01/14/2015  09:40:00       -2.049       51.256       62.093       18.215       30.434       27.299      331.772      926.247      745.223        0.424        0.100       51.297       18.077        0.124      332.670        1.484      869.634
01/14/2015  09:41:00       37.964       57.588       34.547       37.412       33.832       52.754     1399.683     1144.600     2783.006        0.564        0.266       68.976       31.421        0.208      332.308        0.888      869.651
01/14/2015  09:42:00       62.790       82.490       70.842       48.909       48.401       54.925     2392.103     2342.640     3016.712        1.176        0.388      103.668       48.514        0.219      332.011        0.397      869.673
01/14/2015  09:43:00      121.574       81.820       38.553       74.850       44.792       46.631     5602.581     2006.358     2174.409        1.637        0.489      146.543       40.962        0.078      332.063        0.479      869.689
01/14/2015  09:44:00       94.671       84.831       -1.110       45.386       40.838       33.933     2059.897     1667.718     1151.431        1.052        0.244      127.117       22.668        0.032      332.153        0.631      869.687
01/14/2015  09:45:00      113.794       96.408       34.861       42.885       33.032       34.474     1839.085     1091.140     1188.490        1.379        0.206      149.143       28.238        0.036      332.047        0.456      869.700
01/14/2015  09:46:00       65.070       48.146        2.762       81.637       46.738       38.188     6664.579     2184.423     1458.306        0.843        0.515       80.945       30.698        0.144      331.887        0.191      869.710
01/14/2015  09:47:00       34.124       26.343       16.806       28.802       18.590       16.532      829.532      345.592      273.304        0.179        0.072       43.109       10.058        0.054      332.181        0.676      869.691
01/14/2015  09:48:00      104.415       72.204        5.774       46.311       34.129       35.846     2144.667     1164.817     1284.967        1.037        0.230      126.948       12.692        0.010      332.240        0.773      869.692
01/14/2015  09:49:00      112.988       59.754        6.484       27.167       33.948       28.075      738.033     1152.485      788.197        0.953        0.134      127.816       16.050        0.016      332.096        0.535      869.693
01/14/2015  09:50:00       55.745       50.464        0.302       25.470       38.543       25.648      648.726     1485.566      657.801        0.422        0.140       75.194       17.709        0.055      332.187        0.687      869.694
01/14/2015  09:51:00       15.381       33.650        4.768       34.524       29.036       23.468     1191.894      843.067      550.761        0.199        0.129       36.999       16.224        0.192      332.579        1.333      869.691
01/14/2015  09:52:00      104.481       67.045       10.868       66.432       44.868       37.710     4413.232     2013.130     1422.078        1.169        0.392      124.143       13.916        0.013      332.595        1.361      869.664
01/14/2015  09:53:00      159.522       71.165       33.373       61.054       46.251       44.955     3727.540     2139.201     2020.944        1.976        0.394      174.676       26.187        0.022      332.411        1.053      869.650
01/14/2015  09:54:00      144.266       69.707        9.576       44.543       53.402       32.712     1984.122     2851.780     1070.073        1.583        0.295      160.224       24.385        0.023      332.276        0.833      869.640
01/14/2015  09:55:00      111.420       79.581       29.499       51.725       33.985       43.000     2675.444     1154.985     1848.993        1.265        0.284      136.922       27.474        0.040      332.348        0.953      869.623
01/14/2015  09:56:00      128.914       83.260       13.826       44.272       38.832       36.308     1960.044     1507.941     1318.292        1.426        0.239      153.464       17.201        0.013      332.328        0.920      869.619
01/14/2015  09:57:00      146.049      103.838       12.970       44.312       29.806       35.522     1963.533      888.407     1261.780        1.820        0.206      179.200       26.639        0.022      332.335        0.929      869.612
01/14/2015  09:58:00      150.387       82.043       -2.384       47.971       31.775       32.101     2301.238     1009.626     1030.501        1.685        0.217      171.310       17.675        0.011      332.235        0.766      869.617
01/14/2015  09:59:00      152.754       85.122       -4.484       53.029       33.078       37.623     2812.085     1094.153     1415.522        1.796        0.266      174.870       22.831        0.017      332.111        0.562      869.629
01/14/2015  10:00:00      107.978       77.448        5.098       41.059       41.023       38.799     1685.813     1682.871     1505.328        1.128        0.244      132.881       24.082        0.033      332.250        0.789      869.635
01/14/2015  10:01:00       57.074       47.517        8.857       42.173       29.798       32.601     1778.601      887.951     1062.833        0.466        0.186       74.265       20.593        0.077      332.470        1.155      869.641
01/14/2015  10:02:00       60.952       76.740        1.276       47.772       32.994       38.574     2282.183     1088.578     1487.935        0.723        0.243       98.001       28.761        0.086      332.561        1.306      869.646
01/14/2015  10:03:00       44.859       69.409       -3.255       46.236       40.635       25.656     2137.792     1651.193      658.253        0.564        0.222       82.644       26.868        0.106      332.666        1.477      869.649
01/14/2015  10:04:00       90.605       65.041       24.118       29.407       25.708       31.422      864.768      660.906      987.349        0.777        0.126      111.533       16.354        0.022      332.583        1.340      869.646
01/14/2015  10:05:00       83.748       73.396       25.592       43.257       30.743       32.822     1871.177      945.157     1077.265        0.847        0.195      111.358       13.396        0.014      332.636        1.426      869.637
01/14/2015  10:06:00       81.021       55.617       48.869       60.044       50.886       47.649     3605.237     2589.335     2270.458        1.025        0.423       98.274       38.093        0.150      332.837        1.760      869.634
01/14/2015  10:07:00       28.708       14.094       58.810       53.292       73.556       56.460     2839.993     5410.464     3187.683        0.796        0.572       31.981       59.004        3.404      333.197        2.355      869.624
01/14/2015  10:08:00       25.131       86.846      104.519       60.789       51.949       38.992     3695.310     2698.714     1520.351        1.350        0.396       90.409       27.756        0.094      332.997        2.023      869.627
01/14/2015  10:09:00       20.865       55.256       75.455       53.211       78.054       47.147     2831.376     6092.432     2222.870        1.016        0.557       59.064       37.662        0.407      332.991        2.014      869.633
01/14/2015  10:10:00       48.664       77.669       64.385       50.325       32.037       48.828     2532.645     1026.356     2384.206        0.924        0.297       91.655       44.866        0.240      332.855        1.790      869.625
01/14/2015  10:11:00       81.672       47.668       46.247       57.739       35.247       52.207     3333.800     1242.340     2725.573        0.919        0.365       94.564       40.030        0.179      332.862        1.801      869.607
01/14/2015  10:12:00       33.622       69.647       76.744       42.349       58.116       48.375     1793.467     3377.448     2340.119        0.969        0.376       77.338       38.510        0.248      332.996        2.023      869.593
01/14/2015  10:13:00      110.611      133.918      113.285       84.780       43.958       55.593     7187.709     1932.319     3090.631        2.760        0.611      173.692       56.397        0.105      332.781        1.664      869.556
01/14/2015  10:14:00       95.260       74.351       46.873       49.517       41.689       46.507     2451.979     1737.935     2162.898        1.158        0.318      120.841       32.297        0.071      332.884        1.836      869.551
01/14/2015  10:15:00       64.037       61.267       53.251       32.430       33.264       38.290     1051.702     1106.470     1466.097        0.716        0.181       88.625       15.845        0.032      332.981        1.998      869.535
01/14/2015  10:16:00       68.185      -32.211       25.721       59.261       98.093       58.733     3511.920     9622.206     3449.525        1.146        0.829       75.411       49.535        0.431      333.084        2.168      869.514
01/14/2015  10:17:00       65.277      -89.628        7.764       65.616       88.828       51.267     4305.439     7890.460     2628.332        1.359        0.741      110.879       49.187        0.197      333.196        2.351      869.511
01/14/2015  10:18:00       21.763       42.089       75.336       59.646       62.525       49.394     3557.697     3909.376     2439.807        0.891        0.495       47.383       36.460        0.592      333.431        2.741      869.512
01/14/2015  10:19:00       44.675      -44.717       36.876       48.508       64.158       33.596     2352.987     4116.271     1128.674        0.648        0.380       63.210       26.906        0.181      333.530        2.905      869.521
01/14/2015  10:20:00       15.041       55.827       64.337       48.996       35.395       38.088     2400.603     1252.777     1450.699        0.629        0.255       57.818       32.539        0.317      333.469        2.804      869.524
01/14/2015  10:21:00       98.536       68.941       12.302       44.911       36.212       30.898     2016.961     1311.283      954.666        0.945        0.214      120.259       19.568        0.026      333.085        2.169      869.531
01/14/2015  10:22:00       66.670       74.042       55.570       72.964       52.272       54.715     5323.690     2732.398     2993.768        1.203        0.552       99.634       43.748        0.193      333.193        2.348      869.535
01/14/2015  10:23:00      120.586       85.639       35.491       32.531       28.966       37.877     1058.243      839.020     1434.704        1.323        0.167      147.902       16.172        0.012      332.867        1.810      869.542
01/14/2015  10:24:00       35.008       59.119       69.650       45.440       44.433       33.655     2064.825     1974.318     1132.684        0.737        0.259       68.707       26.264        0.146      333.553        2.943      869.539
01/14/2015  10:25:00       17.462       -5.588       37.668       34.620       47.671       36.784     1198.544     2272.531     1353.076        0.329        0.241       18.335       36.807        4.030      333.516        2.882      869.547
01/14/2015  10:26:00       -9.421       46.479       69.327       14.839       30.548       26.782      220.200      933.171      717.254        0.446        0.094       47.424       20.337        0.184      333.765        3.296      869.546
01/14/2015  10:27:00       60.177       47.254       37.262       61.750       48.309       43.899     3813.076     2333.756     1927.109        0.766        0.404       76.512       40.043        0.274      333.607        3.032      869.541
01/14/2015  10:28:00       93.032       66.016       25.036       54.984       41.628       39.211     3023.284     1732.853     1537.502        0.997        0.315      114.075       31.752        0.077      333.320        2.558      869.540
01/14/2015  10:29:00       95.648       72.143       31.308       44.460       32.839       39.511     1976.678     1078.393     1561.156        0.997        0.231      119.805       28.360        0.056      333.163        2.299      869.538
01/14/2015  10:30:00       62.453       83.658       99.818       46.326       46.114       30.038     2146.116     2126.517      902.255        1.302        0.259      104.398       18.927        0.033      333.320        2.558      869.533
01/14/2015  10:31:00      107.578       81.587       69.005       54.408       40.607       31.522     2960.263     1648.905      993.609        1.430        0.280      135.017       21.150        0.025      333.205        2.367      869.525
01/14/2015  10:32:00       71.466      105.188       98.362       62.314       37.461       41.904     3883.066     1403.291     1755.927        1.644        0.352      127.168       36.663        0.083      333.214        2.382      869.518
01/14/2015  10:33:00       57.862       60.736       43.457       40.330       28.735       26.944     1626.518      825.688      725.953        0.605        0.159       83.886       13.970        0.028      333.319        2.555      869.521
01/14/2015  10:34:00       14.557      -17.262       32.560       28.240       57.131       33.868      797.516     3264.007     1147.063        0.339        0.260       22.581       32.171        2.030      333.708        3.200      869.520
01/14/2015  10:35:00       75.387       39.532       31.918       65.829       60.143       35.165     4333.503     3617.226     1236.545        0.872        0.459       85.123       35.884        0.178      333.613        3.043      869.520
01/14/2015  10:36:00       98.926       75.693       18.171       78.826       53.468       30.553     6213.503     2858.864      933.497        1.292        0.500      124.562       35.419        0.081      333.421        2.725      869.518
01/14/2015  10:37:00       87.419       59.236       25.248       42.300       42.725       35.395     1789.327     1825.435     1252.793        0.833        0.243      105.599       28.284        0.072      333.535        2.913      869.522
01/14/2015  10:38:00       69.183       87.889       52.299       51.019       49.101       34.351     2602.958     2410.875     1179.999        1.072        0.310      111.851       25.419        0.052      333.915        3.543      869.510
01/14/2015  10:39:00        9.276       58.506       75.071       39.004       40.942       30.033     1521.286     1676.281      902.007        0.662        0.205       59.237       20.536        0.120      333.934        3.574      869.508
01/14/2015  10:40:00      -10.669       45.316       83.131       23.807       35.710       26.079      566.792     1275.190      680.090        0.580        0.126       46.555       20.912        0.202      334.123        3.887      869.509
01/14/2015  10:41:00       24.164       73.359      101.306       59.601       46.143       24.483     3552.281     2129.218      599.432        1.125        0.314       77.236       20.494        0.070      333.893        3.508      869.512
01/14/2015  10:42:00       61.769       54.769       55.496       48.451       35.628       27.477     2347.481     1269.328      755.006        0.713        0.219       82.553       21.481        0.068      333.503        2.861      869.506
01/14/2015  10:43:00       42.486       50.838       61.537       67.554       38.669       41.563     4563.559     1495.269     1727.521        0.798        0.389       66.254       41.852        0.399      333.956        3.611      869.489
01/14/2015  10:44:00       31.192       86.664       99.125       59.151       63.545       53.590     3498.885     4037.947     2871.902        1.436        0.520       92.107       43.762        0.226      333.968        3.630      869.468
01/14/2015  10:45:00      115.919       54.464        8.918       64.712       38.038       35.403     4187.578     1446.926     1253.389        1.168        0.344      128.076       25.916        0.041      333.551        2.940      869.466
01/14/2015  10:46:00       92.158       52.940       20.331       67.766       47.435       48.988     4592.259     2250.092     2399.804        1.047        0.462      106.281       24.719        0.054      333.654        3.110      869.446
01/14/2015  10:47:00      109.312       83.364       55.227       83.051       71.499       80.287     6897.412     5112.087     6446.015        2.020        0.923      137.472       61.515        0.200      333.852        3.436      869.422
01/14/2015  10:48:00       78.365       83.144       52.801       80.185       53.780       65.450     6429.668     2892.305     4283.731        1.472        0.680      114.254       65.214        0.326      333.696        3.180      869.413
01/14/2015  10:49:00       55.906       76.068       42.289       46.374       33.457       38.993     2150.540     1119.352     1520.431        0.774        0.240       94.403       33.120        0.123      333.728        3.232      869.404
01/14/2015  10:50:00       -0.895       10.116       15.522       19.188       33.353       30.923      368.161     1112.448      956.248        0.139        0.122       10.155        8.143        0.643      334.003        3.689      869.379
01/14/2015  10:51:00       11.501       19.737        6.284       41.561       33.941       27.297     1727.310     1152.013      745.118        0.209        0.181       22.844       21.624        0.896      334.225        4.057      869.372
01/14/2015  10:52:00       36.374      -64.315       -7.147       49.066       54.101       33.864     2407.428     2926.934     1146.788        0.599        0.324       73.889       24.864        0.113      334.022        3.722      869.351
01/14/2015  10:53:00       62.823      -43.278       13.176       76.315       73.365       43.612     5823.948     5382.474     1902.016        0.955        0.655       76.288       47.757        0.392      334.063        3.789      869.340
01/14/2015  10:54:00      -48.206      -21.955        6.376       45.969       51.465       23.022     2113.146     2648.693      529.997        0.407        0.265       52.970       24.330        0.211      333.713        3.208      869.327
01/14/2015  10:55:00      -17.189       15.970        8.786       50.640       41.826       44.556     2564.430     1749.413     1985.277        0.346        0.315       23.463       43.181        3.387      334.176        3.977      869.300
01/14/2015  10:56:00       30.639      -18.444       31.683       54.124       78.874       34.964     2929.401     6221.047     1222.488        0.633        0.519       35.762        6.899        0.037      334.216        4.041      869.280
01/14/2015  10:57:00       62.195      -35.145       38.438       66.260       89.912       49.847     4390.396     8084.094     2484.700        1.077        0.748       71.438       63.935        0.801      334.103        3.856      869.267
01/14/2015  10:58:00       77.178     -110.370        7.663       74.443       78.932       41.183     5541.744     6230.321     1696.030        1.583        0.673      134.677       46.775        0.121      333.946        3.592      869.249
01/14/2015  10:59:00       69.881     -151.953      -15.215       58.216       42.781       39.554     3389.126     1830.226     1564.515        1.749        0.339      167.252       34.236        0.042      333.745        3.260      869.220
01/14/2015  11:00:00       44.523      -23.747       44.768       56.166       75.602       42.252     3154.654     5715.662     1785.233        0.760        0.533       50.460       46.569        0.852      334.119        3.882      869.210
01/14/2015  11:01:00      120.029       89.298       64.182       68.672       61.777       51.101     4715.813     3816.458     2611.322        1.882        0.557      149.604       41.091        0.075      333.784        3.325      869.187
01/14/2015  11:02:00       46.059        1.664       30.611       42.972       42.328       40.060     1846.553     1791.681     1604.817        0.415        0.262       46.089       31.261        0.460      334.053        3.771      869.182
01/14/2015  11:03:00       81.951       37.973       57.683       61.035       46.905       43.458     3725.265     2200.057     1888.589        0.965        0.391       90.321       40.620        0.202      334.049        3.764      869.148
01/14/2015  11:04:00       65.100       63.398       85.538       61.726       55.747       40.010     3810.152     3107.746     1600.836        1.204        0.426       90.870       24.532        0.073      334.403        4.352      869.120
01/14/2015  11:05:00       83.891      -15.036       65.983       87.837      170.191       97.121     7715.340    28965.048     9432.454        2.886        2.306       85.227      115.403        1.833      334.135        3.905      869.093
01/14/2015  11:06:00       53.340       94.774      110.006       62.373       74.134       46.066     3890.408     5495.895     2122.031        1.772        0.575      108.753       40.882        0.141      333.806        3.362      869.114
01/14/2015  11:07:00       43.376      -41.243       27.739       56.862      100.133       64.142     3233.276    10026.692     4114.142        1.086        0.869       59.853       73.059        1.490      334.122        3.886      869.090
01/14/2015  11:08:00       46.175       90.287       98.438       51.029       58.580       28.948     2603.962     3431.668      837.986        1.342        0.344      101.410       28.346        0.078      334.117        3.879      869.086
01/14/2015  11:09:00       57.515       55.225       51.709       40.352       39.379       32.802     1628.279     1550.684     1075.968        0.664        0.213       79.735       25.136        0.099      333.938        3.582      869.074
01/14/2015  11:10:00       14.636      -14.182        7.567       37.841       52.176       42.259     1431.913     2722.382     1785.848        0.321        0.297       20.380       40.551        3.959      333.726        3.229      869.052
01/14/2015  11:11:00      -11.882      -18.119        0.754       26.673       21.371       20.919      711.438      456.728      437.622        0.104        0.080       21.667       13.684        0.399      334.055        3.777      869.034
01/14/2015  11:12:00       -0.337      -24.723      -11.452       27.663       46.651       31.759      765.217     2176.331     1008.619        0.235        0.198       24.725       31.774        1.651      334.194        4.006      869.020
01/14/2015  11:13:00       35.480      -35.764       24.488       60.418      109.578       59.900     3650.383    12007.334     3588.050        1.119        0.962       50.377       69.956        1.928      334.423        4.385      869.002
01/14/2015  11:14:00      155.440     -138.913      -19.537       62.579       58.448       47.468     3916.110     3416.139     2253.257        2.671        0.479      208.467       48.790        0.055      333.841        3.417      868.995
01/14/2015  11:15:00       51.962       -6.733       32.497       65.265       92.051       62.337     4259.463     8473.335     3885.920        1.021        0.831       52.397       73.492        1.967      334.158        3.946      868.985
01/14/2015  11:16:00       -9.695       32.780       66.742       30.575       37.754       28.441      934.843     1425.357      808.894        0.440        0.158       34.184       20.315        0.353      334.553        4.601      868.961
01/14/2015  11:17:00       35.081     -100.489      -18.646       84.915       81.926       54.914     7210.527     6711.922     3015.497        1.430        0.847      106.436       46.182        0.188      334.224        4.055      868.938
01/14/2015  11:18:00        1.403      -10.279       22.724       54.237       47.412       34.489     2941.623     2247.910     1189.513        0.350        0.319       10.374       28.273        7.428      334.425        4.390      868.943
01/14/2015  11:19:00      -23.071      -61.099       -1.102       27.565       57.619       23.025      759.840     3319.935      530.171        0.444        0.230       65.310       16.915        0.067      334.444        4.421      868.932
01/14/2015  11:20:00      -36.103      -31.545       17.442       55.313       44.737       33.503     3059.548     2001.372     1122.443        0.439        0.309       47.943       32.018        0.446      334.321        4.216      868.906
01/14/2015  11:21:00      -79.098      -17.803       -0.097       27.605       28.085       23.225      762.015      788.766      539.392        0.433        0.105       81.077       25.014        0.095      333.901        3.520      868.899
01/14/2015  11:22:00       30.511       58.432       54.855       35.945       27.541       29.489     1292.047      758.495      869.580        0.514        0.146       65.918        8.763        0.018      334.362        4.285      868.864
01/14/2015  11:23:00       20.388       98.359        1.349       37.835       36.284       29.280     1431.519     1316.518      857.331        0.685        0.180      100.450       23.121        0.053      334.115        3.874      868.841
01/14/2015  11:24:00      -30.486       30.207       -2.445       22.613       33.113       22.132      511.325     1096.476      489.845        0.197        0.105       42.917       14.464        0.114      334.362        4.285      868.808
01/14/2015  11:25:00      -40.626       17.914        7.673       36.001       20.107       27.478     1296.066      404.288      755.015        0.224        0.123       44.400       20.643        0.216      334.425        4.390      868.774
01/14/2015  11:26:00        0.802       18.522       16.534       39.771       22.340       18.452     1581.756      499.089      340.469        0.152        0.121       18.539       18.937        1.043      334.504        4.521      868.749
01/14/2015  11:27:00      -28.428      -31.535       -8.774       30.609       26.132       19.914      936.936      682.902      396.563        0.195        0.101       42.458       16.627        0.153      334.206        4.026      868.722
01/14/2015  11:28:00      -45.834       -5.040        9.260       24.445       23.973       19.813      597.558      574.717      392.560        0.189        0.078       46.110       10.894        0.056      334.286        4.159      868.694
01/14/2015  11:29:00        2.088       47.751       44.747       42.750       32.318       22.269     1827.530     1044.449      495.899        0.383        0.168       47.796       24.435        0.261      334.582        4.650      868.662
01/14/2015  11:30:00      -58.203      -48.400       -2.524       31.831       35.624       19.718     1013.236     1269.047      388.790        0.420        0.134       75.698        7.757        0.011      334.380        4.314      868.645
01/14/2015  11:31:00      -40.513      -38.654       -0.416       40.352       49.086       36.269     1628.271     2409.436     1315.452        0.424        0.268       55.995       28.410        0.257      334.646        4.755      868.628
01/14/2015  11:32:00      -66.929      -38.557       10.561       49.929       34.743       26.209     2492.920     1207.056      686.897        0.523        0.219       77.240       20.875        0.073      334.553        4.603      868.606
01/14/2015  11:33:00      -28.709      -61.215       -2.826       37.562       56.207       31.940     1410.875     3159.213     1020.191        0.508        0.280       67.613       25.490        0.142      334.539        4.578      868.585
01/14/2015  11:34:00      -26.473      -65.326       -1.336       50.596       50.480       39.644     2559.985     2548.205     1571.649        0.582        0.334       70.486       29.613        0.177      334.582        4.650      868.572
01/14/2015  11:35:00       21.815      -68.605       23.830       36.318       50.086       39.704     1319.004     2508.616     1576.395        0.558        0.270       71.990       33.971        0.223      334.622        4.716      868.559
01/14/2015  11:36:00       78.393     -138.603      -19.301       49.563       47.193       32.082     2456.484     2227.154     1029.262        1.572        0.286      159.236       22.016        0.019      334.428        4.393      868.542
01/14/2015  11:37:00       34.414      -33.979        8.793       57.577       62.165       45.415     3315.056     3864.452     2062.539        0.583        0.462       48.363       47.556        0.967      334.622        4.717      868.530
01/14/2015  11:38:00      -39.056      -20.010        1.296       36.415       42.044       21.921     1326.073     1767.739      480.515        0.275        0.179       43.883       14.858        0.115      334.660        4.778      868.509
01/14/2015  11:39:00      -70.500      -74.715        0.909       22.711       36.362       16.214      515.781     1322.199      262.894        0.633        0.105      102.725       15.162        0.022      334.094        3.840      868.492
01/14/2015  11:40:00       41.888       59.901       58.453       55.695       49.123       43.095     3101.928     2413.054     1857.200        0.806        0.369       73.093       36.065        0.243      334.584        4.652      868.447
01/14/2015  11:41:00       21.966       38.558       91.122       54.020      107.916       52.891     2918.162    11645.933     2797.455        1.381        0.868       44.376       64.566        2.117      334.771        4.963      868.417
01/14/2015  11:42:00       56.041       81.741       53.378       72.972       53.530       46.252     5324.935     2865.492     2139.217        1.150        0.516       99.107       39.036        0.155      334.685        4.819      868.394
01/14/2015  11:43:00      125.435      101.005       57.658       39.377       39.143       41.680     1550.544     1532.209     1737.221        1.704        0.241      161.047       29.785        0.034      334.280        4.149      868.386
01/14/2015  11:44:00       71.706       46.407       23.147       38.382       41.803       36.318     1473.168     1747.480     1318.965        0.618        0.227       85.413       12.785        0.022      334.377        4.309      868.344
01/14/2015  11:45:00       51.176       29.467       -0.666       26.918       33.778       32.676      724.578     1140.969     1067.727        0.321        0.147       59.053       22.736        0.148      334.598        4.675      868.321
01/14/2015  11:46:00       47.575      -89.249       -0.286       45.404       44.196       44.470     2061.501     1953.259     1977.607        0.811        0.300      101.138       34.547        0.117      334.656        4.772      868.297
01/14/2015  11:47:00        8.448      -38.987       23.832       57.099       65.278       35.227     3260.259     4261.223     1240.976        0.546        0.438       39.892       33.472        0.704      334.923        5.215      868.279
01/14/2015  11:48:00       37.228       45.134       78.641       57.841       50.681       36.895     3345.567     2568.526     1361.256        0.844        0.364       58.507       35.928        0.377      334.832        5.065      868.269
01/14/2015  11:49:00       57.204       46.756       56.259       45.175       36.896       23.567     2040.752     1361.319      555.408        0.629        0.198       73.881       20.905        0.080      334.657        4.774      868.259
01/14/2015  11:50:00       67.738        2.860       50.780       49.403       40.132       34.632     2440.698     1610.617     1199.344        0.621        0.263       67.798       27.058        0.159      334.521        4.548      868.237
01/14/2015  11:51:00        9.654      -33.084       -4.328       14.641       20.157       13.301      214.351      406.308      176.925        0.100        0.040       34.464        7.778        0.051      334.469        4.463      868.210
01/14/2015  11:52:00       61.501       23.754       45.978       52.477       56.108       42.870     2753.848     3148.121     1837.874        0.710        0.387       65.929       43.168        0.429      334.851        5.095      868.175
01/14/2015  11:53:00       67.034       73.781       69.833       65.761       71.050       54.987     4324.450     5048.040     3023.565        1.360        0.620       99.685       51.406        0.266      334.855        5.102      868.138
01/14/2015  11:54:00      103.870       67.124       44.012       83.099       59.211       54.250     6905.518     3505.914     2943.101        1.529        0.668      123.671       46.662        0.142      334.670        4.793      868.123
01/14/2015  11:55:00      159.576      101.389       18.988       66.118       47.443       52.793     4371.622     2250.817     2787.072        2.276        0.470      189.061       40.774        0.047      334.366        4.289      868.099
01/14/2015  11:56:00       51.804      122.028       95.189       65.010       57.217       47.641     4226.266     3273.792     2269.647        1.820        0.488      132.569       43.303        0.107      334.805        5.020      868.087
01/14/2015  11:57:00      102.826       93.893      106.361       80.556       58.425       59.623     6489.267     3413.440     3554.877        2.208        0.673      139.245       55.326        0.158      334.730        4.894      868.068
01/14/2015  11:58:00      164.358       54.942       30.378       72.367       59.057       52.203     5236.975     3487.747     2725.107        2.120        0.572      173.298       33.578        0.038      334.761        4.945      868.045
01/14/2015  11:59:00       35.388       48.079       51.557       60.519       45.920       44.887     3662.514     2108.666     2014.855        0.700        0.389       59.698       25.446        0.182      335.111        5.530      868.029
01/14/2015  12:00:00       14.347       89.378      115.017       56.100       47.922       31.564     3147.211     2296.547      996.296        1.393        0.322       90.522       26.004        0.083      335.233        5.731      868.028
01/14/2015  12:01:00      163.230      122.609       64.286       48.664       34.058       34.525     2368.188     1159.942     1192.005        2.526        0.236      204.150       22.310        0.012      334.445        4.419      868.009
01/14/2015  12:02:00      121.556       78.397       20.455       48.074       38.926       39.061     2311.064     1515.251     1525.780        1.335        0.268      144.644       23.359        0.026      334.689        4.827      867.978
01/14/2015  12:03:00      108.137      -13.914       36.832       69.095       62.054       55.830     4774.119     3850.667     3117.001        1.249        0.587      109.028       52.463        0.232      334.908        5.190      867.962
01/14/2015  12:04:00       53.738       81.879       87.704       70.565       52.445       45.602     4979.349     2750.509     2079.538        1.354        0.490       97.938       38.424        0.154      335.152        5.597      867.951
01/14/2015  12:05:00       29.385       52.817       96.371       69.967       93.267       41.170     4895.368     8698.728     1694.972        1.411        0.764       60.441       49.121        0.661      335.225        5.717      867.921
01/14/2015  12:06:00       23.950       27.625       89.581       52.164      103.248       53.984     2721.093    10660.057     2914.254        1.283        0.815       36.562       61.562        2.835      335.256        5.769      867.904
01/14/2015  12:07:00       16.558       16.016       63.679       34.733       48.294       27.999     1206.410     2332.357      783.968        0.445        0.216       23.036       29.372        1.626      335.174        5.632      867.901
01/14/2015  12:08:00       23.072      -29.833       -0.587       41.771       52.059       32.323     1744.797     2710.115     1044.762        0.346        0.275       37.713       28.740        0.581      335.284        5.815      867.881
01/14/2015  12:09:00      -24.909       -4.488       26.422       23.495       28.175       24.375      552.010      793.855      594.151        0.164        0.097       25.310       15.567        0.378      335.531        6.225      867.877
01/14/2015  12:10:00       67.031       32.389       24.503       45.876       38.125       42.913     2104.653     1453.520     1841.535        0.577        0.270       74.446       12.388        0.028      335.175        5.636      867.883
01/14/2015  12:11:00        7.738       10.017        9.859       46.777       45.504       27.794     2188.098     2070.642      772.528        0.264        0.252       12.658       24.118        3.630      335.586        6.318      867.869
01/14/2015  12:12:00       13.795       -4.976       33.400       29.366       41.065       32.512      862.361     1686.317     1057.034        0.247        0.180       14.665       21.974        2.245      335.669        6.456      867.862
01/14/2015  12:13:00       77.205       75.578       56.398       77.257       41.663       38.384     5968.645     1735.773     1473.298        1.201        0.459      108.041       25.234        0.055      335.032        5.397      867.874
01/14/2015  12:14:00       44.866       29.305       43.838       36.878       41.954       32.483     1359.970     1760.162     1055.167        0.448        0.209       53.588       25.572        0.228      335.039        5.409      867.870
01/14/2015  12:15:00       21.153       49.485       37.707       41.523       33.927       29.578     1724.169     1151.015      874.861        0.403        0.188       53.817       26.236        0.238      335.276        5.802      867.851
01/14/2015  12:16:00      102.486       33.100       43.178       71.182       69.329       47.006     5066.820     4806.468     2209.529        1.277        0.604      107.699       52.272        0.236      335.259        5.774      867.854
01/14/2015  12:17:00      -20.167      -11.249       17.203       46.253       59.720       33.804     2139.374     3566.443     1142.719        0.384        0.342       23.092       24.038        1.084      335.684        6.483      867.842
01/14/2015  12:18:00      -21.381      -92.505      -24.308       59.009       66.258       33.852     3482.079     4390.083     1145.934        0.931        0.451       94.944       38.472        0.164      335.354        5.931      867.825
01/14/2015  12:19:00      -52.894      -93.847       -8.415       54.414       74.528       33.909     2960.867     5554.424     1149.791        1.067        0.483      107.726       28.434        0.070      335.573        6.296      867.817
01/14/2015  12:20:00     -137.379       -6.775      -19.873       42.831       53.322       28.700     1834.479     2843.257      823.716        1.241        0.275      137.546       21.918        0.025      335.096        5.503      867.822
01/14/2015  12:21:00      -67.494       -0.902       -7.285       54.060       46.266       29.256     2922.493     2140.565      855.916        0.526        0.296       67.500       16.605        0.061      335.215        5.702      867.808
01/14/2015  12:22:00      -25.847        3.625        9.525       16.085       18.727       12.956      258.739      350.709      167.860        0.077        0.039       26.100        7.247        0.077      335.394        5.999      867.786
01/14/2015  12:23:00      -51.059      -67.600       17.879       31.032       95.988       32.696      962.964     9213.661     1069.000        0.937        0.562       84.715       43.122        0.259      335.455        6.101      867.780
01/14/2015  12:24:00      -41.943      -59.311       -1.623       27.531       50.989       28.877      757.967     2599.928      833.881        0.473        0.210       72.643       18.929        0.068      335.125        5.552      867.774
01/14/2015  12:25:00      -29.196      -41.872        3.614       37.307       54.326       41.586     1391.785     2951.357     1729.359        0.434        0.304       51.046       28.524        0.312      335.473        6.131      867.752
01/14/2015  12:26:00       -0.519      -34.815       27.726       48.189       44.739       43.246     2322.172     2001.557     1870.190        0.409        0.310       34.818       34.880        1.004      335.574        6.297      867.754
01/14/2015  12:27:00      -13.248      -56.136       16.210       43.701       41.674       40.980     1909.770     1736.742     1679.385        0.446        0.266       57.678       21.033        0.133      335.410        6.025      867.750
01/14/2015  12:28:00       58.161       42.296       36.582       79.843       49.471       41.310     6374.871     2447.385     1706.555        0.852        0.526       71.915       33.529        0.217      335.501        6.177      867.736
01/14/2015  12:29:00       59.479       71.002       14.729       47.767       28.700       35.508     2281.656      823.705     1260.837        0.658        0.218       92.623       25.335        0.075      335.162        5.613      867.732
01/14/2015  12:30:00       51.684       10.833       -6.588       43.994       64.424       21.534     1935.449     4150.507      463.712        0.469        0.327       52.807       16.511        0.098      335.211        5.696      867.711
01/14/2015  12:31:00       31.990       -7.084       30.559       42.853       47.051       35.990     1836.383     2213.822     1295.266        0.368        0.267       32.765       24.550        0.561      335.763        6.614      867.690
01/14/2015  12:32:00       59.229      -15.186       48.323       60.201       61.742       45.143     3624.108     3812.123     2037.917        0.777        0.474       61.145       39.146        0.410      335.455        6.100      867.676
01/14/2015  12:33:00       39.213        8.103       48.199       46.411       53.776       40.692     2153.980     2891.843     1655.878        0.531        0.335       40.041       37.093        0.858      335.661        6.444      867.649
01/14/2015  12:34:00       36.302       44.045       62.138       33.714       36.384       33.725     1136.655     1323.793     1137.344        0.536        0.180       57.077       13.167        0.053      335.700        6.510      867.641
01/14/2015  12:35:00       27.006       34.143       29.883       62.829       46.081       48.487     3947.475     2123.415     2350.957        0.560        0.421       43.533       41.459        0.907      335.577        6.302      867.622
01/14/2015  12:36:00      120.132       80.335       22.524       54.213       36.254       51.514     2939.072     1314.369     2653.744        1.415        0.345      144.518       17.936        0.015      335.149        5.591      867.607
01/14/2015  12:37:00       70.652       61.886       20.177       52.067       33.829       34.121     2710.935     1144.398     1164.209        0.712        0.251       93.923       25.694        0.075      335.277        5.804      867.603
01/14/2015  12:38:00       35.920       92.439      -13.485       32.447       38.857       27.460     1052.790     1509.862      754.077        0.667        0.166       99.172       23.391        0.056      335.333        5.897      867.612
01/14/2015  12:39:00       75.124       76.163      -18.624       34.615       32.010       25.573     1198.227     1024.671      654.000        0.733        0.144      106.979       16.657        0.024      335.256        5.770      867.607
01/14/2015  12:40:00       70.525       58.926       12.057       40.472       35.834       27.418     1637.964     1284.064      751.740        0.613        0.184       91.903        9.754        0.011      335.461        6.109      867.618
01/14/2015  12:41:00       38.495       15.838       54.575       55.884       74.140       50.618     3122.981     5496.775     2562.190        0.794        0.559       41.626       55.375        1.770      335.670        6.458      867.630
01/14/2015  12:42:00       62.030      -69.171       -7.746       66.694       70.486       63.539     4448.093     4968.289     4037.242        1.107        0.673       92.910       56.362        0.368      335.550        6.258      867.634
01/14/2015  12:43:00       43.886      -91.017       -0.504       43.509       69.752       35.284     1892.995     4865.397     1244.976        0.911        0.400      101.045       37.608        0.139      335.367        5.955      867.651
01/14/2015  12:44:00       28.089        2.635       30.320       34.934       51.627       35.978     1220.368     2665.298     1294.432        0.345        0.259       28.212       38.383        1.851      335.698        6.506      867.641
01/14/2015  12:45:00      -11.008      -21.325       23.670       20.018       25.732       22.611      400.701      662.116      511.260        0.135        0.079       23.999       12.985        0.293      335.911        6.860      867.623
01/14/2015  12:46:00       -0.682       47.689       82.484       36.564       58.941       50.985     1336.953     3474.060     2599.466        0.824        0.371       47.694       44.408        0.867      335.780        6.642      867.620
01/14/2015  12:47:00      112.104       85.228       34.541       44.641       34.246       44.710     1992.819     1172.755     1999.012        1.309        0.258      140.823       28.178        0.040      335.225        5.717      867.602
01/14/2015  12:48:00        7.831       55.522       13.309       34.610       47.892       23.720     1197.831     2293.617      562.645        0.369        0.203       56.071       25.826        0.212      335.472        6.130      867.585
01/14/2015  12:49:00        6.079      -19.457        8.516       33.342       43.930       28.017     1111.674     1929.827      784.974        0.216        0.191       20.384       13.563        0.443      335.805        6.683      867.571
01/14/2015  12:50:00       89.373      -81.131      -13.121       73.827       87.109       55.559     5450.451     7588.058     3086.789        1.543        0.806      120.705       52.873        0.192      335.543        6.247      867.549
01/14/2015  12:51:00       54.974       30.611       77.707       55.067       56.795       43.060     3032.333     3225.615     1854.184        0.905        0.406       62.922       45.664        0.527      335.724        6.548      867.532
01/14/2015  12:52:00      124.509      117.583       78.706       47.468       46.539       52.045     2253.219     2165.835     2708.727        2.132        0.356      171.254       41.025        0.057      335.245        5.750      867.522
01/14/2015  12:53:00       97.629      106.143       87.307       35.270       39.078       40.344     1243.986     1527.110     1627.653        1.641        0.220      144.214       26.830        0.035      335.326        5.885      867.511
01/14/2015  12:54:00       35.993       24.530       40.272       20.298       27.362       21.359      412.020      748.686      456.223        0.257        0.081       43.557       15.677        0.130      335.487        6.154      867.482
01/14/2015  12:55:00       30.669       21.862        7.596       28.361       21.513       24.749      804.345      462.798      612.489        0.168        0.094       37.663       13.357        0.126      335.588        6.321      867.464
01/14/2015  12:56:00       21.822       26.144       56.488       42.712       79.788       63.446     1824.339     6366.070     4025.349        0.828        0.611       34.055       59.762        3.080      335.835        6.733      867.432
01/14/2015  12:57:00       90.048       78.417       53.697       95.434       79.280       74.107     9107.687     6285.273     5491.829        1.901        1.044      119.406       69.682        0.341      335.564        6.282      867.411
01/14/2015  12:58:00      130.716       67.874        8.293       50.875       51.638       38.876     2588.309     2666.507     1511.315        1.426        0.338      147.287       26.086        0.031      335.442        6.079      867.414
01/14/2015  12:59:00       24.211       45.069       -1.084       24.614       30.149       25.361      605.829      908.938      643.169        0.239        0.108       51.161       24.557        0.230      335.582        6.312      867.412
01/14/2015  13:00:00       -6.714       59.054       -4.958       16.452       40.785       14.751      270.655     1663.382      217.605        0.285        0.108       59.435       19.110        0.103      335.635        6.400      867.394
01/14/2015  13:01:00       71.690       79.111       15.726       47.322       56.771       35.014     2239.340     3222.936     1225.950        0.917        0.334      106.761       30.809        0.083      335.625        6.384      867.404
01/14/2015  13:02:00      112.537       71.046       30.340       37.921       39.576       36.076     1437.998     1566.244     1301.480        1.147        0.215      133.086        9.968        0.006      335.585        6.317      867.413
01/14/2015  13:03:00      103.149       69.903        8.026       43.102       52.051       38.264     1857.739     2709.340     1464.150        1.081        0.302      124.604       32.990        0.070      335.654        6.432      867.419
01/14/2015  13:04:00       80.273       78.835       61.445       58.671       53.617       52.065     3442.311     2874.819     2710.773        1.273        0.451      112.512       21.690        0.037      335.729        6.556      867.422
01/14/2015  13:05:00       92.405       69.050       40.216       50.799       51.601       38.863     2580.499     2662.681     1510.359        1.084        0.338      115.354       25.074        0.047      335.715        6.535      867.447
01/14/2015  13:06:00       33.380       46.492       45.865       45.575       41.308       33.043     2077.094     1706.335     1091.850        0.513        0.244       57.234       24.901        0.189      335.985        6.984      867.450
01/14/2015  13:07:00       20.502       50.630       26.140       33.549       25.965       39.105     1125.534      674.185     1529.174        0.350        0.166       54.624       21.007        0.148      335.621        6.377      867.445
01/14/2015  13:08:00       56.603       40.460       28.692       30.129       23.813       32.584      907.762      567.053     1061.714        0.410        0.127       69.577       19.539        0.079      335.524        6.217      867.440
01/14/2015  13:09:00       58.543       47.764        3.540       31.716       21.860       24.049     1005.874      477.854      578.373        0.389        0.103       75.556       14.637        0.038      335.352        5.927      867.434
01/14/2015  13:10:00       38.429       51.204        3.988       32.618       38.266       26.230     1063.948     1464.278      688.024        0.366        0.161       64.021       21.078        0.108      335.659        6.441      867.412
01/14/2015  13:11:00      -24.865       26.243       10.441       57.375       37.434       35.355     3291.887     1401.280     1249.979        0.368        0.297       36.152       34.659        0.919      335.750        6.593      867.384
01/14/2015  13:12:00     -100.055      -26.859      -21.225       59.716       43.200       31.243     3566.019     1866.254      976.135        0.879        0.320      103.598       33.002        0.101      335.526        6.219      867.360
01/14/2015  13:13:00       29.461       35.215        7.624       49.292       33.803       34.088     2429.660     1142.664     1161.958        0.345        0.237       45.914       20.937        0.208      335.764        6.615      867.346
01/14/2015  13:14:00       21.962       52.084        5.882       41.317       31.727       25.100     1707.060     1006.631      630.034        0.329        0.167       56.525       15.739        0.078      335.624        6.380      867.331
01/14/2015  13:15:00       38.686       31.383       -0.565       37.002       17.731       18.382     1369.168      314.395      337.910        0.225        0.101       49.815        9.571        0.037      335.720        6.543      867.314
01/14/2015  13:16:00       49.789       53.017       21.336       32.797       30.082       32.647     1075.627      904.940     1065.815        0.440        0.152       72.730       15.535        0.046      335.873        6.797      867.314
01/14/2015  13:17:00       37.587       -4.884        5.882       30.403       17.604       21.807      924.365      309.886      475.527        0.159        0.085       37.903       15.472        0.167      335.816        6.701      867.307
01/14/2015  13:18:00        6.129      -11.948       17.471       13.486       17.213       16.441      181.864      296.298      270.291        0.062        0.037       13.428        6.160        0.210      336.137        7.237      867.280
01/14/2015  13:19:00       28.775       76.256       85.707       41.144       55.623       49.384     1692.852     3093.921     2438.763        1.061        0.361       81.504       46.599        0.327      336.076        7.134      867.258
01/14/2015  13:20:00       27.392       36.109       69.273       49.621       55.790       42.980     2462.255     3112.495     1847.285        0.714        0.371       45.323       38.654        0.727      336.288        7.489      867.240
01/14/2015  13:21:00        8.385       49.607       54.647       32.111       38.816       32.821     1031.105     1506.668     1077.195        0.457        0.181       50.311       24.144        0.230      336.237        7.403      867.221
01/14/2015  13:22:00       16.464        8.565       36.397       41.138       45.309       27.549     1692.351     2052.907      758.945        0.309        0.225       18.559       24.115        1.688      336.431        7.729      867.216
01/14/2015  13:23:00       18.277      -48.590       11.399       24.200       41.908       35.109      585.626     1756.292     1232.658        0.320        0.179       51.914       23.589        0.206      336.477        7.806      867.208
01/14/2015  13:24:00       46.558       45.743       25.538       34.776       35.219       33.861     1209.374     1240.391     1146.565        0.425        0.180       65.269       19.710        0.091      336.129        7.223      867.198
01/14/2015  13:25:00       10.762       92.513       72.458       45.593       52.534       42.012     2078.742     2759.783     1764.986        1.026        0.330       93.137       25.971        0.078      336.313        7.531      867.199
01/14/2015  13:26:00       64.126      -74.351       24.513       66.851      103.714       49.659     4469.048    10756.632     2466.015        1.396        0.885       98.185       51.706        0.277      336.264        7.447      867.202
01/14/2015  13:27:00       29.001        8.166       69.316       40.708       72.852       48.445     1657.113     5307.387     2346.957        0.751        0.466       30.129       47.941        2.532      336.324        7.551      867.206
01/14/2015  13:28:00       67.661     -109.693        2.127       57.253       75.521       44.261     3277.930     5703.478     1959.001        1.378        0.547      128.882       47.417        0.135      336.145        7.249      867.217
01/14/2015  13:29:00       40.698      -73.030       -0.172       52.645       46.063       38.890     2771.504     2121.809     1512.468        0.670        0.320       83.605       23.279        0.078      335.973        6.963      867.241
01/14/2015  13:30:00       43.497     -157.732      -29.144       39.220       57.029       21.088     1538.195     3252.354      444.707        1.643        0.262      163.620       23.995        0.022      335.670        6.457      867.248
01/14/2015  13:31:00       36.866      -39.298       -9.504       53.136       50.958       34.885     2823.442     2596.766     1216.995        0.481        0.332       53.883       27.286        0.256      335.998        7.004      867.254
01/14/2015  13:32:00      -36.577      -30.122       13.547       36.501       37.376       24.161     1332.287     1396.979      583.744        0.287        0.166       47.383       22.650        0.229      336.031        7.059      867.258
01/14/2015  13:33:00      -37.732      -25.149       18.445       69.820       46.101       36.794     4874.828     2125.268     1353.770        0.537        0.418       45.345       39.975        0.777      336.150        7.259      867.253
01/14/2015  13:34:00       27.922       25.359       27.345       49.529       32.829       33.581     2453.077     1077.764     1127.700        0.341        0.233       37.719       26.339        0.488      336.025        7.050      867.237
01/14/2015  13:35:00       47.127       -7.583       51.865       50.735       72.790       47.170     2574.049     5298.454     2224.967        0.753        0.505       47.734       45.509        0.909      336.322        7.547      867.232
01/14/2015  13:36:00       58.154      -24.007       24.777       38.128       35.107       34.717     1453.771     1232.517     1205.252        0.423        0.195       62.914       25.388        0.163      336.099        7.174      867.225
01/14/2015  13:37:00       56.802       17.999       33.408       32.186       61.280       35.536     1035.965     3755.292     1262.810        0.536        0.303       59.585       40.245        0.456      335.862        6.779      867.204
01/14/2015  13:38:00       44.796       35.981       47.017       43.810       30.405       31.905     1919.286      924.452     1017.960        0.469        0.193       57.457       25.321        0.194      336.184        7.315      867.199
01/14/2015  13:39:00       29.351       82.845      106.648       48.440       71.523       55.367     2346.481     5115.555     3065.469        1.481        0.526       87.891       56.476        0.413      336.261        7.443      867.198
01/14/2015  13:40:00      162.571      112.573       44.452       71.393       65.268       64.910     5096.988     4259.881     4213.268        2.732        0.679      197.743       47.546        0.058      335.869        6.788      867.206
01/14/2015  13:41:00      112.620        5.325       12.621       57.806       52.749       38.389     3341.527     2782.500     1473.746        1.023        0.380      112.746       28.742        0.065      335.947        6.920      867.214
01/14/2015  13:42:00      134.264      -15.994       -4.414       49.381       79.311       38.570     2438.466     6290.185     1487.625        1.426        0.511      135.213       17.294        0.016      335.995        7.001      867.193
01/14/2015  13:43:00       31.899       61.178       82.161       63.644       56.208       42.041     4050.541     3159.395     1767.464        1.024        0.449       68.995       41.689        0.365      336.347        7.587      867.181
01/14/2015  13:44:00       95.154       75.749       49.724       34.475       28.728       31.155     1188.529      825.318      970.661        1.012        0.149      121.623       22.882        0.035      335.938        6.905      867.183
01/14/2015  13:45:00       43.647       32.009       33.192       37.818       24.487       22.480     1430.230      599.628      505.373        0.328        0.127       54.126       12.740        0.055      336.254        7.432      867.164
01/14/2015  13:46:00       41.541      -92.071        1.522       42.541       58.351       33.369     1809.745     3404.895     1113.501        0.827        0.316      101.009       32.518        0.104      336.504        7.851      867.150
01/14/2015  13:47:00      161.118     -187.813      -49.179       87.060       70.147       42.558     7579.411     4920.566     1811.217        3.898        0.716      247.452       46.024        0.035      336.074        7.128      867.118
01/14/2015  13:48:00      109.316     -128.118      -19.381       62.009       76.311       45.807     3845.066     5823.416     2098.261        2.025        0.588      168.417       40.315        0.057      336.100        7.173      867.120
01/14/2015  13:49:00      139.388     -164.372      -46.825       61.833       88.214       30.953     3823.352     7781.701      958.090        3.060        0.628      215.516       31.131        0.021      335.927        6.883      867.105
01/14/2015  13:50:00       79.665      -48.736        7.795       35.650       37.007       23.498     1270.941     1369.544      552.179        0.599        0.160       93.390       26.294        0.079      335.915        6.868      867.110
01/14/2015  13:51:00       26.199      -12.618       27.658       72.518       70.919       49.622     5258.850     5029.511     2462.322        0.718        0.638       29.080       52.397        3.247      336.344        7.582      867.107
01/14/2015  13:52:00       82.115      120.742      134.068       71.378       72.293       51.437     5094.841     5226.214     2645.762        2.613        0.648      146.019       51.791        0.126      336.149        7.255      867.110
01/14/2015  13:53:00       21.180       98.437      122.021       55.678       67.028       53.108     3100.084     4492.814     2820.442        1.772        0.521      100.690       42.973        0.182      336.133        7.230      867.126
01/14/2015  13:54:00       82.422      -92.586        4.092       42.206       44.966       29.952     1781.381     2021.899      897.149        1.004        0.235      123.958       23.094        0.035      336.073        7.129      867.143
01/14/2015  13:55:00       34.957      -77.227        3.430       35.716       37.842       27.731     1275.641     1432.028      769.009        0.534        0.174       84.771       18.752        0.049      336.109        7.190      867.135
01/14/2015  13:56:00       27.916       11.618       30.303       40.316       61.265       31.807     1625.408     3753.360     1011.708        0.411        0.320       30.237       34.537        1.305      336.260        7.441      867.135
01/14/2015  13:57:00       93.027       90.815        4.775       42.071       28.576       32.920     1769.982      816.580     1083.750        1.030        0.184      130.005       19.233        0.022      336.072        7.128      867.140
01/14/2015  13:58:00       66.873       58.419       13.889       36.658       26.721       34.065     1343.784      713.985     1160.456        0.565        0.161       88.796       20.508        0.053      336.182        7.312      867.149
01/14/2015  13:59:00       21.085       27.183       29.108       30.674       28.919       13.567      940.911      836.299      184.062        0.200        0.098       34.402       13.862        0.162      336.475        7.802      867.151
01/14/2015  14:00:00       -0.188       33.859       11.925       15.125       24.814       18.414      228.777      615.726      339.086        0.124        0.059       33.860        8.272        0.060      336.482        7.814      867.144
01/14/2015  14:01:00       51.355       38.038        3.451       22.861       31.253       26.093      522.605      976.741      680.859        0.314        0.109       63.907       23.099        0.131      336.168        7.288      867.135
01/14/2015  14:02:00       40.772       46.570       10.742       23.314       33.339       19.672      543.557     1111.464      386.974        0.299        0.102       61.896       13.208        0.046      336.200        7.342      867.138
01/14/2015  14:03:00       33.416       16.725        9.692       34.076       41.528       19.931     1161.182     1724.571      397.232        0.239        0.164       37.368       17.063        0.208      336.207        7.352      867.125
01/14/2015  14:04:00       -6.292       80.777       -4.351       16.251       39.110       19.626      264.086     1529.619      385.197        0.438        0.109       81.022       24.924        0.095      336.360        7.609      867.118
01/14/2015  14:05:00      -14.436       63.839      -14.207       20.852       28.645       12.155      434.793      820.534      147.732        0.294        0.070       65.451       12.444        0.036      336.126        7.217      867.112
01/14/2015  14:06:00       16.324        5.021       12.890       21.099       22.004       21.296      445.151      484.198      453.507        0.092        0.069       17.079       13.722        0.646      336.622        8.047      867.101
01/14/2015  14:07:00       -7.769      -11.312        7.116       19.231       15.948       17.517      369.849      254.349      306.852        0.058        0.047       13.723        9.612        0.491      336.904        8.519      867.093
01/14/2015  14:08:00      -10.360      -54.750        5.043       29.958       47.305       31.527      897.493     2237.790      993.945        0.363        0.206       55.721       24.553        0.194      336.706        8.188      867.095
01/14/2015  14:09:00        0.523      -92.896       -1.737       30.598       29.046       35.800      936.252      843.680     1281.642        0.585        0.153       92.897       20.988        0.051      336.502        7.848      867.098
01/14/2015  14:10:00      -11.449        7.749       19.909       19.485       29.116       19.558      379.676      847.757      382.527        0.110        0.080       13.825       18.361        1.764      337.006        8.688      867.112
01/14/2015  14:11:00       14.045       59.300        1.155       36.357       32.780       20.731     1321.841     1074.530      429.758        0.327        0.141       60.941       17.263        0.080      336.668        8.124      867.110
01/14/2015  14:12:00       83.812       53.952       20.608       29.459       23.802       29.098      867.836      566.532      846.703        0.632        0.114       99.676       12.221        0.015      336.487        7.822      867.125
01/14/2015  14:13:00       35.488       17.890        3.164       50.953       42.539       31.357     2596.162     1809.599      983.238        0.349        0.269       39.742       19.680        0.245      336.783        8.317      867.142
01/14/2015  14:14:00       32.354       51.846       73.411       68.169       74.698       61.844     4647.064     5579.769     3824.674        1.159        0.703       61.113       60.635        0.984      336.671        8.130      867.141
01/14/2015  14:15:00       43.651       92.235       89.337       53.323       45.940       40.447     2843.350     2110.447     1635.966        1.249        0.329      102.043       30.094        0.087      336.579        7.975      867.142
01/14/2015  14:16:00      122.085       85.388       51.458       50.367       32.796       42.972     2536.798     1075.590     1846.593        1.515        0.273      148.983       25.267        0.029      336.371        7.627      867.164
01/14/2015  14:17:00       32.005       62.350       62.127       39.189       31.703       29.754     1535.782     1005.080      885.328        0.610        0.171       70.085       27.058        0.149      336.426        7.718      867.168
01/14/2015  14:18:00       26.440       32.560       37.259       36.333       39.925       41.837     1320.083     1593.990     1750.316        0.391        0.233       41.943       36.432        0.754      336.503        7.850      867.159
01/14/2015  14:19:00       -3.243        1.567        3.467       10.833       17.342       15.346      117.349      300.733      235.496        0.034        0.033        3.602        8.752        5.903      336.616        8.037      867.150
01/14/2015  14:20:00       97.984       69.145       28.979       62.289       56.652       37.535     3879.953     3209.408     1408.865        1.186        0.425      119.925       32.032        0.071      336.290        7.493      867.155
01/14/2015  14:21:00       36.114       -3.504       29.775       35.705       40.834       27.720     1274.875     1667.431      768.404        0.296        0.186       36.283       25.328        0.487      336.389        7.658      867.165
01/14/2015  14:22:00       80.529       49.280       -5.121       21.653       17.441       21.005      468.867      304.188      441.220        0.508        0.061       94.411       13.096        0.019      336.155        7.268      867.161
01/14/2015  14:23:00       57.089       42.105       18.323       21.766       14.817       26.777      473.771      219.557      717.027        0.339        0.071       70.936        6.778        0.009      336.229        7.390      867.157
01/14/2015  14:24:00       29.851       38.683       32.351       30.571       24.209       40.063      934.583      586.081     1605.043        0.328        0.156       48.861       25.910        0.281      336.344        7.583      867.151
01/14/2015  14:25:00      -26.569       66.666       -3.971       45.225       64.844       23.038     2045.308     4204.755      530.756        0.597        0.339       71.766       29.186        0.165      336.593        7.998      867.145
01/14/2015  14:26:00      -48.548      138.602      -14.129       24.625       62.785       22.971      606.410     3941.906      527.653        1.342        0.254      146.858        8.979        0.004      336.389        7.658      867.153
01/14/2015  14:27:00      -57.569      121.583      -15.089       37.155       57.885       31.589     1380.497     3350.687      997.870        1.203        0.286      134.523       34.961        0.068      336.506        7.854      867.166
01/14/2015  14:28:00        8.351       93.783       -2.169       34.922       38.140       36.426     1219.569     1454.635     1326.849        0.643        0.200       94.154       28.410        0.091      336.418        7.706      867.178
01/14/2015  14:29:00        9.082       77.633       -5.199       16.428       35.497       23.060      269.892     1260.022      531.775        0.410        0.103       78.163       15.931        0.042      336.439        7.742      867.183
01/14/2015  14:30:00      -31.096      129.485      -17.260       31.957       56.361       26.397     1021.254     3176.609      696.803        1.146        0.245      133.167       25.152        0.036      336.359        7.606      867.192
01/14/2015  14:31:00        6.649       38.734      -15.100       11.549       53.077       16.982      133.388     2817.118      288.383        0.251        0.162       39.300       14.188        0.130      336.507        7.854      867.218
01/14/2015  14:32:00       -3.097      -12.587        3.644       13.413       29.868       17.334      179.901      892.117      300.456        0.078        0.069       12.962       19.189        2.191      336.650        8.095      867.223
01/14/2015  14:33:00       14.090      -33.685       17.131       19.104       16.927       23.382      364.963      286.524      546.719        0.141        0.060       36.513       14.748        0.163      336.609        8.026      867.217
01/14/2015  14:34:00       -5.087       31.764        6.689       22.999       34.672       20.111      528.969     1202.165      404.451        0.161        0.107       32.168       21.638        0.452      336.871        8.463      867.214
01/14/2015  14:35:00      -17.802       -0.826        9.346       28.787       25.234       18.965      828.674      636.756      359.681        0.111        0.091       17.821       11.144        0.391      337.104        8.853      867.209
01/14/2015  14:36:00        5.438       71.756      -13.074       18.132       28.834       13.107      328.787      831.400      171.782        0.334        0.067       71.962        7.319        0.010      336.521        7.878      867.199
01/14/2015  14:37:00       -8.625       44.085      -11.377       17.255       28.485       21.805      297.726      811.371      475.447        0.187        0.079       44.921       21.775        0.235      336.596        8.004      867.174
01/14/2015  14:38:00       26.085       43.170       -6.223       19.358       26.417       23.691      374.729      697.860      561.269        0.211        0.082       50.439       15.027        0.089      336.527        7.887      867.156
01/14/2015  14:39:00        5.470       72.455      -18.503       32.497       35.444       15.344     1056.032     1256.279      235.425        0.408        0.127       72.661       16.101        0.049      336.418        7.707      867.135
01/14/2015  14:40:00       41.689       47.717        2.967       49.112       27.530       21.518     2411.951      757.910      463.017        0.383        0.182       63.363       20.526        0.105      336.548        7.925      867.107
01/14/2015  14:41:00       41.271       73.637       -0.903       54.109       36.422       31.003     2927.763     1326.591      961.201        0.617        0.261       84.414       24.499        0.084      336.518        7.873      867.089
01/14/2015  14:42:00       25.945       53.341        7.958       35.929       25.121       22.406     1290.877      631.082      502.026        0.300        0.121       59.316       17.247        0.085      336.620        8.044      867.080
01/14/2015  14:43:00       67.242       35.587       10.731       21.112       22.174       20.105      445.699      491.694      404.195        0.362        0.067       76.078        9.442        0.015      336.501        7.846      867.078
01/14/2015  14:44:00      -11.652      -42.837      -19.759       31.410       15.621       16.916      986.608      244.023      286.167        0.194        0.076       44.394       18.438        0.172      336.474        7.799      867.071
01/14/2015  14:45:00      -28.878      -30.715      -27.571       26.791       18.352       16.797      717.772      336.779      282.142        0.194        0.067       42.159       13.033        0.096      336.650        8.095      867.061
01/14/2015  14:46:00       11.508      -15.930        8.694       20.116       29.203       18.080      404.651      852.791      326.874        0.102        0.079       19.652       14.375        0.535      336.807        8.357      867.064
01/14/2015  14:47:00        4.367      -25.687       12.794       35.803       28.716       17.206     1281.823      824.634      296.031        0.162        0.120       26.055        8.335        0.102      336.985        8.653      867.077
01/14/2015  14:48:00      -71.381      -23.600       -0.014       37.645       30.761       24.262     1417.182      946.223      588.651        0.430        0.148       75.181       24.902        0.110      337.103        8.852      867.096
01/14/2015  14:49:00      -79.727       16.751      -16.329       41.256       32.676       18.773     1702.025     1067.736      352.430        0.501        0.156       81.468       18.153        0.050      336.963        8.616      867.095
01/14/2015  14:50:00       -7.776        6.646        9.191       26.969       22.156       19.659      727.328      490.901      386.480        0.090        0.080       10.229       13.342        1.701      337.127        8.892      867.102
01/14/2015  14:51:00        9.259       12.585       28.928       17.761       27.804       31.204      315.442      773.064      973.701        0.157        0.103       15.624       25.520        2.668      336.956        8.604      867.110
01/14/2015  14:52:00       19.419       17.845       43.239       24.718       44.557       19.951      610.961     1985.298      398.051        0.278        0.150       26.373       24.441        0.859      337.029        8.727      867.113
01/14/2015  14:53:00       -0.982       42.883       66.345       25.213       30.336       17.265      635.704      920.292      298.067        0.405        0.093       42.894       16.095        0.141      337.025        8.722      867.116
01/14/2015  14:54:00       57.405       58.157       47.909       63.438       41.688       38.144     4024.356     1737.869     1455.000        0.809        0.361       81.716       29.346        0.129      336.841        8.414      867.111
01/14/2015  14:55:00       -3.027        6.312       17.419       21.910       39.007       32.019      480.030     1521.573     1025.231        0.169        0.151        7.000       25.183       12.942      336.986        8.657      867.113
01/14/2015  14:56:00       18.139       41.952       47.564       48.891       31.307       49.513     2390.317      980.098     2451.558        0.509        0.291       45.705       42.743        0.875      336.852        8.432      867.120
01/14/2015  14:57:00       38.636       12.710       20.553       30.860       25.179       26.949      952.364      634.005      726.271        0.219        0.116       40.673       24.478        0.362      336.694        8.169      867.123
01/14/2015  14:58:00       23.767       25.165       17.413       29.550       40.364       32.294      873.212     1629.232     1042.873        0.252        0.177       34.614       27.535        0.633      336.676        8.139      867.125
01/14/2015  14:59:00       26.475      -40.986       -1.547       24.256       25.083       13.077      588.367      629.165      171.001        0.189        0.069       48.794        9.367        0.037      336.687        8.157      867.125
01/14/2015  15:00:00       36.296      -36.772        9.137       18.429       21.866       20.917      339.623      478.124      437.538        0.200        0.063       51.668       17.800        0.119      336.765        8.286      867.131
01/14/2015  15:01:00       67.385       37.512       22.275       22.060       28.256       23.321      486.630      798.428      543.854        0.414        0.091       77.122        7.964        0.011      336.672        8.132      867.134
01/14/2015  15:02:00       14.779       47.694      -13.456       26.865       32.524       10.248      721.728     1057.800      105.022        0.228        0.094       49.932       10.941        0.048      336.688        8.159      867.152
01/14/2015  15:03:00       23.477       36.653        8.975       35.878       40.311       28.234     1287.216     1625.015      797.167        0.284        0.185       43.527       22.030        0.256      336.791        8.330      867.175
01/14/2015  15:04:00       22.453       40.784       -4.661       44.626       31.163       23.877     1991.456      971.163      570.112        0.286        0.177       46.556       23.310        0.251      336.718        8.208      867.204
01/14/2015  15:05:00       -5.110      -19.342      -26.915       25.209       25.093       10.044      635.488      629.637      100.883        0.125        0.068       20.006       12.103        0.366      336.728        8.226      867.226
01/14/2015  15:06:00      -35.399       38.967       15.756       44.486       41.839       24.570     1978.984     1750.482      603.670        0.368        0.217       52.645       27.724        0.277      337.065        8.789      867.233
01/14/2015  15:07:00      -26.379      119.146      -10.973       23.324       51.732       22.437      544.024     2676.233      503.412        0.937        0.186      122.031       22.075        0.033      336.878        8.475      867.248
01/14/2015  15:08:00      -55.537       15.581       -0.466       28.333       49.330       25.451      802.735     2433.486      647.766        0.361        0.194       57.681       16.198        0.079      336.931        8.563      867.257
01/14/2015  15:09:00      -36.522       11.103        4.396       52.871       45.547       31.820     2795.362     2074.501     1012.499        0.368        0.294       38.172       23.865        0.391      337.078        8.810      867.250
01/14/2015  15:10:00       23.545        9.879       -6.194       21.901       28.685       15.999      479.635      822.843      255.953        0.112        0.078       25.533       12.718        0.248      336.746        8.255      867.253
01/14/2015  15:11:00       -7.152       71.838        5.609       40.021       79.889       29.530     1601.641     6382.192      872.031        0.705        0.443       72.193       41.247        0.326      336.743        8.250      867.248
01/14/2015  15:12:00      -42.072      130.358      -22.065       17.984       31.451       19.217      323.411      989.171      369.275        1.047        0.084      136.979       16.004        0.014      336.727        8.223      867.247
01/14/2015  15:13:00      -56.494      103.364      -10.312       22.391       34.536       15.964      501.338     1192.724      254.863        0.797        0.097      117.795       17.894        0.023      336.850        8.428      867.252
01/14/2015  15:14:00       40.058       47.466       13.305       31.606       20.236       31.188      998.930      409.478      972.679        0.321        0.119       62.110       26.042        0.176      336.768        8.291      867.260
01/14/2015  15:15:00       27.054       18.500       49.669       41.464       40.835       37.811     1719.254     1667.494     1429.681        0.418        0.241       32.774       35.918        1.201      336.935        8.570      867.263
01/14/2015  15:16:00       39.309       38.761       27.099       53.839       40.517       38.969     2898.616     1641.651     1518.592        0.492        0.303       55.205       35.339        0.410      336.899        8.509      867.262
01/14/2015  15:17:00       47.223       42.181       38.530       32.512       27.921       19.493     1057.061      779.599      379.966        0.385        0.111       63.319       11.508        0.033      336.937        8.574      867.261
01/14/2015  15:18:00       34.349       32.157        6.075       28.101       27.916       24.953      789.661      779.309      622.628        0.222        0.110       47.052       12.825        0.074      336.892        8.498      867.262
01/14/2015  15:19:00      -10.388       50.483       -5.505       14.661       26.255       12.240      214.951      689.338      149.807        0.187        0.053       51.541       10.164        0.039      336.915        8.538      867.262
01/14/2015  15:20:00       21.212        6.080       -2.214       14.214       10.183        9.607      202.032      103.700       92.288        0.044        0.020       22.066        6.580        0.089      336.997        8.673      867.265
01/14/2015  15:21:00       12.284       21.309        8.592        8.277       12.158       13.305       68.504      147.821      177.032        0.054        0.020       24.596        8.149        0.110      337.010        8.695      867.272
01/14/2015  15:22:00       10.619       22.245       18.384       15.325       15.565       12.830      234.858      242.270      164.620        0.079        0.032       24.649       11.114        0.203      337.072        8.798      867.272
01/14/2015  15:23:00       15.832        8.113        7.594       20.623       19.972       16.027      425.298      398.865      256.880        0.073        0.054       17.790       13.304        0.559      337.095        8.836      867.279
01/14/2015  15:24:00       11.052       24.205       -3.662       14.588       15.163        7.685      212.817      229.903       59.066        0.061        0.025       26.609        4.911        0.034      337.021        8.713      867.283
01/14/2015  15:25:00      -11.811       13.659       -6.377       13.438       20.727       13.128      180.582      429.601      172.338        0.057        0.039       18.058       13.253        0.539      337.209        9.028      867.297
01/14/2015  15:26:00       -0.506       31.085       18.956       23.689       21.191       11.952      561.181      449.058      142.862        0.124        0.058       31.089        5.227        0.028      337.213        9.035      867.307
01/14/2015  15:27:00       -4.305       40.311       -3.249       42.983       35.755       25.447     1847.505     1278.423      647.563        0.271        0.189       40.540        9.964        0.060      337.032        8.733      867.309
01/14/2015  15:28:00       19.841       85.518       -5.291       48.677       41.973       23.988     2369.435     1761.721      575.444        0.622        0.235       87.790       22.613        0.066      336.969        8.625      867.306
01/14/2015  15:29:00        4.393      145.442      -11.473       47.614       74.585       36.973     2267.062     5562.975     1367.033        1.525        0.460      145.509       30.531        0.044      336.870        8.461      867.298
01/14/2015  15:30:00       33.018      120.494       -8.689       53.202       80.941       43.498     2830.449     6551.416     1892.053        1.348        0.564      124.936       40.379        0.104      336.881        8.479      867.288
01/14/2015  15:31:00      112.924       89.950        7.180       62.529       48.137       41.038     3909.842     2317.216     1684.119        1.440        0.396      144.370       29.921        0.043      336.839        8.409      867.294
01/14/2015  15:32:00       78.067       59.440       13.676       40.668       21.277       25.250     1653.874      452.730      637.549        0.628        0.137       98.120       14.179        0.021      336.816        8.372      867.288
01/14/2015  15:33:00       18.945      158.736      -34.467       32.221       33.575       20.475     1038.182     1127.290      419.217        1.466        0.129      159.863       16.189        0.010      336.834        8.402      867.293
01/14/2015  15:34:00      -29.058      154.446      -24.993       30.864       39.739       16.903      952.584     1579.153      285.712        1.407        0.141      157.156       13.726        0.008      336.877        8.472      867.302
01/14/2015  15:35:00        9.083       84.941      -17.922       17.481       30.903       15.981      305.600      954.985      255.391        0.457        0.076       85.425        7.955        0.009      336.946        8.587      867.299
01/14/2015  15:36:00      -19.226      101.727      -14.293       30.629       19.590       17.548      938.138      383.757      307.931        0.628        0.081      103.528        2.555        0.001      336.970        8.630      867.301
01/14/2015  15:37:00       23.902       24.466        9.565       30.366       41.036       27.759      922.109     1683.978      770.557        0.232        0.169       34.204       25.218        0.544      337.040        8.744      867.308
01/14/2015  15:38:00        7.134       27.720       -0.051       21.404       27.767       17.387      458.130      771.030      302.325        0.118        0.077       28.623       16.727        0.342      337.114        8.868      867.305
01/14/2015  15:39:00       12.642       21.092       -2.616       17.980       13.314       13.471      323.282      177.260      181.458        0.065        0.034       24.590        9.995        0.165      337.043        8.751      867.303
01/14/2015  15:40:00       19.397       28.379       31.832       27.558       19.928       26.641      759.463      397.132      709.722        0.203        0.093       34.375        8.297        0.058      337.062        8.783      867.299
01/14/2015  15:41:00       39.267       31.896       -3.775       20.648       29.715       20.971      426.325      882.958      439.800        0.216        0.087       50.589       14.704        0.084      337.016        8.704      867.300
01/14/2015  15:42:00       -6.491       36.190        4.655       44.300       34.054       23.222     1962.532     1159.643      539.263        0.252        0.183       36.768       20.498        0.311      337.145        8.922      867.301
01/14/2015  15:43:00       27.256       90.042       -3.975       59.584       62.128       40.898     3550.197     3859.902     1672.621        0.897        0.454       94.077       38.567        0.168      337.115        8.871      867.300
01/14/2015  15:44:00       78.407      -96.453        9.382       79.233       98.763       52.185     6277.878     9754.111     2723.285        1.714        0.938      124.301       69.624        0.314      337.092        8.830      867.312
01/14/2015  15:45:00      115.197     -135.852      -13.534       53.415       74.141       45.055     2853.111     5496.889     2029.952        2.114        0.519      178.118       38.819        0.047      336.942        8.579      867.316
01/14/2015  15:46:00       59.619      -89.511        1.042       49.413       81.112       29.215     2441.604     6579.189      853.503        1.072        0.494      107.549       32.235        0.090      337.086        8.821      867.329
01/14/2015  15:47:00       36.806       57.891       50.190       51.111       48.012       49.009     2612.382     2305.146     2401.846        0.727        0.366       68.601       36.558        0.284      337.035        8.737      867.343
01/14/2015  15:48:00       88.597       73.775       71.884       66.854       54.994       56.059     4469.518     3024.377     3142.627        1.455        0.532      115.291       45.846        0.158      336.997        8.674      867.331
01/14/2015  15:49:00      159.146       89.726       30.108       62.618       50.689       43.251     3921.022     2569.378     1870.651        2.132        0.418      182.696       29.038        0.025      336.926        8.553      867.340
01/14/2015  15:50:00       91.530       77.561       52.992       46.017       39.932       42.863     2117.604     1594.590     1837.225        1.137        0.277      119.973       24.514        0.042      336.971        8.630      867.331
01/14/2015  15:51:00      114.316      112.742      100.316       69.390       53.781       53.386     4815.040     2892.422     2850.100        2.320        0.528      160.558       45.937        0.082      336.996        8.670      867.332
01/14/2015  15:52:00       87.126       71.063       48.705       66.341       55.241       41.185     4401.099     3051.557     1696.195        1.208        0.457      112.432       26.681        0.056      336.889        8.493      867.338
01/14/2015  15:53:00       36.752       27.817       28.428       39.260       25.558       23.120     1541.380      653.195      534.528        0.283        0.136       46.092       17.275        0.140      336.957        8.605      867.327
01/14/2015  15:54:00       46.395       23.620       47.206       74.552       37.811       35.728     5557.957     1429.635     1276.490        0.660        0.413       52.062       30.021        0.333      336.966        8.622      867.316
01/14/2015  15:55:00       90.429      114.971       95.206       76.092       64.498       66.441     5790.014     4160.021     4414.407        2.241        0.718      146.273       60.135        0.169      336.967        8.622      867.291
01/14/2015  15:56:00       42.054      129.900      102.852       59.566       44.147       37.602     3548.090     1948.921     1413.943        1.806        0.346      136.538       29.439        0.046      337.030        8.727      867.276
01/14/2015  15:57:00       99.249       82.499       63.625      106.234       79.742       80.556    11285.569     6358.718     6489.290        2.242        1.207      129.060       75.919        0.346      336.909        8.525      867.264
01/14/2015  15:58:00      107.731       55.856        2.029       51.885       44.473       40.350     2692.059     1977.835     1628.118        1.051        0.315      121.350       27.310        0.051      336.853        8.434      867.264
01/14/2015  15:59:00       50.654       65.579       -2.482       46.301       47.431       37.454     2143.766     2249.735     1402.788        0.633        0.290       82.864       28.464        0.118      336.838        8.409      867.264
01/14/2015  16:00:00       79.482       73.798        1.358       60.997       44.390       38.306     3720.597     1970.512     1467.328        0.946        0.358      108.459       19.878        0.034      336.811        8.364      867.257
01/14/2015  16:01:00       95.720       79.219        6.964       94.508       50.056       50.525     8931.682     2505.608     2552.822        1.474        0.700      124.250       22.182        0.032      336.793        8.332      867.257
01/14/2015  16:02:00       90.062      108.981       15.769       64.538       81.570       66.834     4165.169     6653.680     4466.831        1.776        0.764      141.379       59.003        0.174      336.814        8.367      867.260
01/14/2015  16:03:00       97.466       78.025       13.349       70.966       52.506       39.485     5036.122     2756.922     1559.073        1.256        0.468      124.850       29.967        0.058      336.781        8.313      867.254
01/14/2015  16:04:00      127.651      104.959        5.587       71.949       46.014       50.022     5176.717     2117.329     2502.163        1.857        0.490      165.261       30.728        0.035      336.776        8.304      867.264
01/14/2015  16:05:00       93.854       71.090       36.314       48.528       41.248       42.623     2354.993     1701.370     1816.752        1.053        0.294      117.739       24.841        0.045      336.817        8.373      867.263
01/14/2015  16:06:00      138.157       81.768       33.942       79.797       55.200       50.701     6367.510     3047.072     2570.610        1.945        0.599      160.541       39.754        0.061      336.801        8.345      867.269
01/14/2015  16:07:00        3.915       19.904       40.205       28.867       40.335       25.031      833.303     1626.897      626.571        0.256        0.154       20.286       25.963        1.638      336.847        8.424      867.266
01/14/2015  16:08:00       55.688       55.286       18.783       39.746       32.516       22.617     1579.721     1057.258      511.528        0.483        0.157       78.471       20.805        0.070      336.749        8.260      867.277
01/14/2015  16:09:00       95.693       74.740       24.682       35.771       30.809       27.886     1279.586      949.168      777.609        0.918        0.150      121.422       19.164        0.025      336.768        8.292      867.273
01/14/2015  16:10:00       98.086       89.537        8.434       60.797       50.146       42.783     3696.255     2514.623     1830.407        1.287        0.402      132.807       26.986        0.041      336.784        8.318      867.277
01/14/2015  16:11:00      147.868       82.198       12.458       65.116       48.229       34.695     4240.120     2326.021     1203.725        1.827        0.388      169.178       21.433        0.016      336.736        8.237      867.280
01/14/2015  16:12:00      107.112       85.961        6.522       48.607       39.562       36.119     2362.670     1565.113     1304.610        1.207        0.262      137.340       22.295        0.026      336.744        8.251      867.283
01/14/2015  16:13:00      152.910       91.094        7.288       61.978       56.340       38.657     3841.212     3174.230     1494.335        2.012        0.425      177.988       16.914        0.009      336.734        8.233      867.284
01/14/2015  16:14:00      118.142       62.701        9.012       53.385       45.467       33.357     2849.919     2067.286     1112.714        1.200        0.301      133.749       16.357        0.015      336.737        8.240      867.287
01/14/2015  16:15:00       75.085       87.304        3.509       61.771       47.878       46.776     3815.683     2292.340     2188.002        1.078        0.415      115.151       34.717        0.091      336.715        8.203      867.283
01/14/2015  16:16:00       55.748       29.961        6.945       41.944       21.041       23.046     1759.284      442.706      531.108        0.339        0.137       63.288       16.097        0.065      336.712        8.199      867.274
01/14/2015  16:17:00       94.707       91.963       13.482       87.298       58.303       44.739     7620.984     3399.214     2001.593        1.531        0.651      132.010       27.410        0.043      336.730        8.228      867.271
01/14/2015  16:18:00      173.458      105.335       31.848       60.017       54.835       46.048     3601.987     3006.923     2120.456        2.546        0.436      202.936       15.691        0.006      336.760        8.276      867.271
01/14/2015  16:19:00      206.223      130.543       41.749       56.944       43.474       49.738     3242.653     1890.005     2473.882        3.446        0.380      244.068       26.494        0.012      336.712        8.194      867.276
01/14/2015  16:20:00      197.457      101.200       25.221       78.590       70.053       41.728     6176.396     4907.426     1741.234        3.134        0.641      221.879       32.331        0.021      336.677        8.136      867.287
01/14/2015  16:21:00      120.911      101.467       14.634       74.214       60.096       40.177     5507.648     3611.470     1614.195        1.793        0.537      157.845       34.879        0.049      336.687        8.156      867.295
01/14/2015  16:22:00      123.314       76.375       23.317       35.946       39.990       34.409     1292.115     1599.195     1183.974        1.283        0.204      145.050       24.107        0.028      336.666        8.123      867.312
01/14/2015  16:23:00      130.422       82.854       29.374       33.322       44.113       25.895     1110.359     1945.914      670.567        1.423        0.186      154.514       13.365        0.007      336.673        8.134      867.330
01/14/2015  16:24:00       95.649       64.600       17.282       36.661       29.665       26.773     1344.053      880.036      716.772        0.828        0.147      115.421       23.120        0.040      336.666        8.121      867.358
01/14/2015  16:25:00       93.196       61.873       27.254       33.973       29.763       26.965     1154.197      885.842      727.133        0.801        0.138      111.865       10.650        0.009      336.657        8.107      867.377
01/14/2015  16:26:00       76.125       34.551       22.456       29.796       21.021       23.700      887.781      441.877      561.712        0.469        0.095       83.599       17.657        0.045      336.659        8.111      867.402
01/14/2015  16:27:00       85.767       55.809       17.303       37.395       23.098       27.586     1398.374      533.526      760.962        0.673        0.135      102.326        6.580        0.004      336.656        8.106      867.420
01/14/2015  16:28:00       75.281       46.129       13.075       28.542       30.599       21.872      814.627      936.292      478.397        0.510        0.111       88.290       18.307        0.043      336.650        8.096      867.425
01/14/2015  16:29:00       79.691       42.566       39.749       41.023       31.547       32.411     1682.901      995.216     1050.486        0.673        0.186       90.347       22.495        0.062      336.643        8.082      867.439
01/14/2015  16:30:00      113.381       52.764       36.494       46.773       48.327       41.765     2187.714     2335.507     1744.343        1.162        0.313      125.057       29.558        0.056      336.644        8.087      867.453
01/14/2015  16:31:00       77.155       47.214       29.750       47.922       39.398       34.889     2296.471     1552.178     1217.241        0.707        0.253       90.454       25.753        0.081      336.616        8.037      867.461
01/14/2015  16:32:00       68.744       41.902       21.463       47.749       36.535       30.896     2279.977     1334.806      954.534        0.576        0.228       80.508       24.867        0.095      336.569        7.960      867.476
01/14/2015  16:33:00       34.810       77.468       77.170       31.670       50.103       48.667     1003.015     2510.341     2368.493        0.952        0.294       84.930       44.483        0.274      336.584        7.984      867.478
01/14/2015  16:34:00       60.855       50.793       59.650       54.097       49.094       39.818     2926.514     2410.269     1585.510        0.838        0.346       79.267       27.332        0.119      336.605        8.021      867.492
01/14/2015  16:35:00       36.481       49.872       65.343       55.054       41.327       32.664     3030.952     1707.921     1066.958        0.695        0.290       61.790       36.334        0.346      336.621        8.046      867.501
01/14/2015  16:36:00       64.954       49.570       41.717       60.059       41.221       38.923     3607.137     1699.183     1515.026        0.762        0.341       81.709       33.226        0.165      336.577        7.974      867.522
01/14/2015  16:37:00       30.555        5.093       39.083       50.909       63.708       39.517     2591.754     4058.736     1561.574        0.535        0.411       30.977       44.743        2.086      336.627        8.057      867.523
01/14/2015  16:38:00       15.326        7.005       55.571       58.305       70.501       37.638     3399.448     4970.396     1416.594        0.658        0.489       16.851       47.554        7.964      336.647        8.089      867.530
01/14/2015  16:39:00       99.709      -44.962       49.938       89.236      109.423       59.475     7963.029    11973.346     3537.333        1.896        1.174      109.377       77.493        0.502      336.615        8.036      867.529
01/14/2015  16:40:00       34.686      -41.071       37.681       39.292       53.168       42.647     1543.876     2826.846     1818.749        0.525        0.309       53.758       37.364        0.483      336.616        8.037      867.556
01/14/2015  16:41:00      107.451     -121.426      -14.157       38.160       43.334       21.273     1456.219     1877.794      452.537        1.514        0.189      162.142       13.142        0.007      336.612        8.032      867.563
01/14/2015  16:42:00       52.212      -67.317       -4.480       35.487       31.490       25.350     1259.306      991.644      642.619        0.509        0.145       85.192       21.032        0.061      336.610        8.027      867.588
01/14/2015  16:43:00       61.668      -54.213       -6.539       44.218       47.016       34.233     1955.256     2210.525     1171.882        0.606        0.267       82.110       25.410        0.096      336.590        7.995      867.600
01/14/2015  16:44:00       31.390       -5.414       29.827       43.768       55.331       34.684     1915.649     3061.500     1202.984        0.404        0.309       31.853       41.018        1.658      336.557        7.940      867.610
01/14/2015  16:45:00       10.102       20.354       45.512       19.131       28.720       19.593      365.985      824.832      383.904        0.208        0.079       22.723       18.221        0.643      336.589        7.993      867.620
01/14/2015  16:46:00       30.341       49.331       51.164       29.799       28.476       16.400      888.003      810.907      268.962        0.397        0.098       57.915        9.277        0.026      336.491        7.828      867.639
01/14/2015  16:47:00       60.891       40.288       43.849       32.157       29.931       29.335     1034.099      895.893      860.549        0.502        0.140       73.013        8.625        0.014      336.515        7.869      867.648
01/14/2015  16:48:00      106.263       78.234       49.579       36.559       27.311       32.079     1336.569      745.870     1029.072        1.149        0.156      131.956       20.936        0.025      336.502        7.847      867.663
01/14/2015  16:49:00       86.630       61.849       41.848       65.353       37.200       35.607     4271.052     1383.875     1267.876        1.000        0.346      106.443       34.051        0.102      336.457        7.772      867.669
01/14/2015  16:50:00      102.629       66.581       31.181       41.732       30.187       30.833     1741.522      911.242      950.653        0.977        0.180      122.335       25.056        0.042      336.456        7.771      867.680
01/14/2015  16:51:00       93.117       60.420       24.032       27.626       23.775       28.802      763.221      565.256      829.560        0.753        0.108      111.001        7.335        0.004      336.425        7.717      867.686
01/14/2015  16:52:00       77.735       38.002       31.014       32.477       28.446       19.435     1054.754      809.189      377.736        0.534        0.112       86.527       10.250        0.014      336.374        7.632      867.689
01/14/2015  16:53:00       70.123       54.714       34.520       24.479       22.527       22.870      599.232      507.451      523.037        0.537        0.081       88.943       12.106        0.019      336.382        7.645      867.691
01/14/2015  16:54:00       47.487       39.151       48.072       31.284       20.946       19.028      978.682      438.737      362.050        0.394        0.089       61.545       13.307        0.047      336.384        7.648      867.688
01/14/2015  16:55:00       65.450       28.991       42.681       33.272       28.085       24.141     1106.993      788.787      582.804        0.471        0.124       71.583       21.826        0.093      336.366        7.620      867.688
01/14/2015  16:56:00      107.522       50.242       -0.322       44.270       36.025       36.493     1959.877     1297.818     1331.733        0.934        0.229      118.681       27.544        0.054      336.421        7.710      867.695
01/14/2015  16:57:00       96.193       40.238       15.906       34.160       34.786       26.684     1166.930     1210.056      712.037        0.711        0.154      104.270       23.606        0.051      336.374        7.633      867.706
01/14/2015  16:58:00       82.563       51.706       19.952       21.377       15.448       21.599      456.976      238.646      466.520        0.552        0.058       97.417       15.678        0.026      336.336        7.568      867.714
01/14/2015  16:59:00       88.074       62.480       16.856       42.295       26.076       21.389     1788.900      679.967      457.492        0.744        0.146      107.985       13.694        0.016      336.392        7.662      867.722
01/14/2015  17:00:00       76.092       52.586        2.936       23.291       17.689       14.524      542.456      312.918      210.947        0.481        0.053       92.495        7.591        0.007      336.305        7.517      867.727
01/14/2015  17:01:00       67.131       57.933       10.273       49.541       24.532       23.589     2454.351      601.803      556.437        0.579        0.181       88.672       17.256        0.038      336.246        7.419      867.732
01/14/2015  17:02:00      104.400       76.252       10.596       34.267       23.108       28.583     1174.193      533.999      816.990        0.968        0.126      129.282       16.523        0.016      336.286        7.485      867.741
01/14/2015  17:03:00      104.848       79.080        9.449       37.262       30.652       29.210     1388.424      939.566      853.231        1.026        0.159      131.327       14.758        0.013      336.314        7.531      867.742
01/14/2015  17:04:00       95.879       71.548       14.683       33.092       31.036       26.925     1095.061      963.228      724.940        0.865        0.139      119.632       13.772        0.013      336.248        7.422      867.758
01/14/2015  17:05:00       85.887       71.279        5.405       34.629       24.229       24.376     1199.159      587.049      594.210        0.743        0.119      111.612       15.849        0.020      336.233        7.397      867.787
01/14/2015  17:06:00       61.056       54.841        8.667       38.303       28.112       26.060     1467.102      790.304      679.134        0.487        0.147       82.069       15.561        0.036      336.175        7.300      867.817
01/14/2015  17:07:00       35.289      112.428      -11.305       37.342       68.043       31.380     1394.439     4629.819      984.714        1.051        0.350      117.836       40.115        0.116      336.090        7.157      867.834
01/14/2015  17:08:00       65.757       79.255       -0.995       47.332       41.972       27.993     2240.292     1761.648      783.616        0.770        0.239      102.982       27.102        0.069      336.067        7.118      867.853
01/14/2015  17:09:00       77.048       88.129       -4.011       39.163       54.822       35.456     1533.757     3005.474     1257.156        0.976        0.290      117.060       31.917        0.074      335.975        6.966      867.874
01/14/2015  17:10:00      156.616      111.832       12.923       43.006       35.360       34.058     1849.477     1250.336     1159.965        2.073        0.213      192.445       16.939        0.008      335.958        6.936      867.894
01/14/2015  17:11:00      128.753       86.914       18.224       33.810       30.849       30.115     1143.128      951.646      906.918        1.373        0.150      155.343       17.753        0.013      335.909        6.856      867.918
01/14/2015  17:12:00       77.411       64.540       10.531       44.647       40.064       22.729     1993.397     1605.099      516.610        0.719        0.206      100.786       11.924        0.014      335.856        6.769      867.926
01/14/2015  17:13:00       93.582       49.191        9.495       31.857       32.378       23.768     1014.896     1048.350      564.911        0.695        0.131      105.723       17.036        0.026      335.834        6.731      867.933
01/14/2015  17:14:00       72.220       31.999        9.322       27.830       16.862       18.100      774.487      284.318      327.593        0.386        0.069       78.991       10.757        0.019      335.805        6.684      867.946
01/14/2015  17:15:00       57.806       39.029       -0.250       22.932       25.376       18.532      525.885      643.926      343.447        0.319        0.076       69.748       17.430        0.062      335.778        6.638      867.956
01/14/2015  17:16:00       79.917       36.135        7.782       36.042       25.645       28.088     1299.017      657.679      788.953        0.525        0.137       87.707       19.692        0.050      335.777        6.636      867.969
01/14/2015  17:17:00       33.182       51.975        2.366       25.058       34.447       27.682      627.908     1186.602      766.318        0.319        0.129       61.664       25.921        0.177      335.722        6.547      867.971
01/14/2015  17:18:00       78.824       51.943        3.983       30.490       28.849       23.086      929.629      832.283      532.974        0.561        0.115       94.400       19.964        0.045      335.750        6.594      867.970
01/14/2015  17:19:00       54.196       54.847        9.275       49.693       37.836       26.660     2469.357     1431.543      710.735        0.532        0.231       77.107       22.290        0.084      335.662        6.444      867.974
01/14/2015  17:20:00       23.482       54.595        1.935       20.781       38.722       18.829      431.843     1499.379      354.546        0.291        0.114       59.431       20.660        0.121      335.654        6.431      867.975
01/14/2015  17:21:00       44.952       40.228       -2.170       40.743       37.425       15.185     1659.992     1400.611      230.590        0.347        0.165       60.324       16.727        0.077      335.642        6.413      867.971
01/14/2015  17:22:00       26.341       32.684        1.112       25.242       18.617       16.371      637.179      346.590      268.011        0.151        0.063       41.977       13.124        0.098      335.612        6.361      867.987
01/14/2015  17:23:00        2.278       97.660      -19.538       17.186       30.146       12.672      295.364      908.752      160.583        0.564        0.068       97.687        6.393        0.004      335.663        6.448      867.998
01/14/2015  17:24:00      -11.293       95.993      -16.622       28.223       36.829       17.559      796.528     1356.344      308.324        0.604        0.123       96.655       15.291        0.025      335.610        6.359      868.007
01/14/2015  17:25:00      -41.152       87.782       -8.428       30.213       34.096       19.689      912.811     1162.552      387.667        0.597        0.123       96.949       16.990        0.031      335.679        6.473      868.019
01/14/2015  17:26:00      -61.040      123.588      -23.006       33.120       25.852       19.037     1096.930      668.325      362.423        1.083        0.106      137.840       15.802        0.013      335.745        6.584      868.027
01/14/2015  17:27:00      -74.124       98.627      -18.508       37.236       31.910       21.326     1386.553     1018.257      454.790        0.921        0.143      123.376       12.762        0.011      335.704        6.515      868.031
01/14/2015  17:28:00      -63.267       72.108      -11.483       33.210       29.687       19.590     1102.929      881.322      383.762        0.585        0.118       95.928       16.274        0.029      335.640        6.408      868.032
01/14/2015  17:29:00      -72.342       76.669      -18.812       43.990       45.420       25.784     1935.109     2062.982      664.799        0.806        0.233      105.411       20.639        0.038      335.601        6.343      868.027
01/14/2015  17:30:00      -80.681       86.502      -19.136       23.649       24.768       13.256      559.270      613.444      175.723        0.785        0.067      118.288       11.377        0.009      335.581        6.311      868.037
01/14/2015  17:31:00      -65.697       55.362      -10.581       18.488       26.478       12.978      341.818      701.083      168.440        0.435        0.061       85.913       11.485        0.018      335.566        6.285      868.045
01/14/2015  17:32:00      -51.353       48.312      -14.045       30.899       31.294       13.045      954.755      979.327      170.184        0.364        0.105       70.507        5.477        0.006      335.562        6.279      868.051
01/14/2015  17:33:00      -83.467       30.587      -18.876       37.640       30.168       18.082     1416.779      910.107      326.945        0.546        0.133       88.894       18.217        0.042      335.557        6.271      868.066
01/14/2015  17:34:00      -61.471       26.968       -9.892       31.071       25.601       18.518      965.385      655.388      342.932        0.328        0.098       67.127       21.046        0.098      335.504        6.182      868.090
01/14/2015  17:35:00      -78.868       69.950      -25.907       25.332       37.287       13.827      641.709     1390.293      191.173        0.700        0.111      105.419       17.767        0.028      335.471        6.127      868.109
01/14/2015  17:36:00     -105.532       81.771      -23.818       63.745       43.218       26.575     4063.408     1867.781      706.235        1.251        0.332      133.504       31.005        0.054      335.461        6.112      868.132
01/14/2015  17:37:00      -78.027       72.858      -11.018       55.719       41.659       25.223     3104.566     1735.442      636.176        0.850        0.274      106.755       33.161        0.096      335.415        6.033      868.158
01/14/2015  17:38:00      -93.232       76.595      -25.171       36.467       32.861       21.324     1329.845     1079.868      454.711        0.903        0.143      120.661       20.713        0.029      335.399        6.007      868.183
01/14/2015  17:39:00      -62.672      111.082      -29.661       29.976       28.474       19.665      898.585      810.751      386.717        0.962        0.105      127.542        9.997        0.006      335.340        5.907      868.193
01/14/2015  17:40:00      -47.615      102.478       -5.171       43.492       58.349       22.752     1891.517     3404.574      517.660        0.930        0.291      113.000       22.856        0.041      335.380        5.973      868.200
01/14/2015  17:41:00      -69.459       65.949      -15.877       28.017       35.900       23.087      784.960     1288.838      533.009        0.602        0.130       95.780       19.884        0.043      335.306        5.851      868.218
01/14/2015  17:42:00      -84.561       94.763      -17.911       39.657       37.485       31.137     1572.681     1405.098      969.497        1.020        0.197      127.007       21.311        0.028      335.246        5.752      868.235
01/14/2015  17:43:00      -85.875      106.668      -22.498       45.761       50.365       21.260     2094.025     2536.604      451.981        1.217        0.254      136.940       22.815        0.028      335.242        5.745      868.247
01/14/2015  17:44:00     -116.596      142.679      -32.115       48.199       48.292       25.764     2323.115     2332.152      663.772        2.015        0.266      184.260       25.664        0.019      335.153        5.595      868.263
01/14/2015  17:45:00      -76.658      119.113      -11.957       46.278       48.420       28.993     2141.629     2344.508      840.586        1.277        0.266      141.649       30.208        0.045      335.168        5.622      868.277
01/14/2015  17:46:00     -128.121      130.221      -37.789       47.128       39.941       22.154     2221.075     1595.286      490.797        1.955        0.215      182.681       14.402        0.006      335.137        5.569      868.289
01/14/2015  17:47:00      -97.313      121.665      -19.578       49.305       56.252       29.692     2431.000     3164.273      881.589        1.557        0.324      155.796       29.734        0.036      335.109        5.524      868.313
01/14/2015  17:48:00      -67.459      115.321      -17.493       52.309       44.531       28.731     2736.266     1983.014      825.443        1.185        0.277      133.603       26.903        0.041      335.128        5.557      868.331
01/14/2015  17:49:00      -88.153       77.684      -18.116       36.603       52.113       27.158     1339.803     2715.767      737.531        0.946        0.240      117.498       27.858        0.056      335.121        5.547      868.341
01/14/2015  17:50:00      -74.555       98.938      -20.623       35.831       40.291       25.796     1283.835     1623.397      665.427        0.967        0.179      123.884       21.635        0.030      335.037        5.407      868.360
01/14/2015  17:51:00      -74.207      128.842      -17.083       34.557       46.659       22.263     1194.209     2177.063      495.639        1.313        0.193      148.684       18.007        0.015      335.040        5.411      868.372
01/14/2015  17:52:00      -74.806       85.067      -10.381       35.611       36.889       23.574     1268.128     1360.815      555.719        0.806        0.159      113.280       17.869        0.025      334.997        5.341      868.378
01/14/2015  17:53:00      -82.500      133.542      -17.718       48.408       66.902       36.581     2343.308     4475.898     1338.161        1.655        0.408      156.970       30.005        0.037      335.003        5.349      868.387
01/14/2015  17:54:00     -131.104      141.208      -40.149       37.408       53.168       23.958     1399.341     2826.832      573.982        2.177        0.240      192.686       23.591        0.015      335.011        5.362      868.386
01/14/2015  17:55:00      -88.258       82.860      -14.979       48.408       56.869       28.493     2343.371     3234.136      811.851        1.063        0.319      121.059       28.294        0.055      335.028        5.392      868.375
01/14/2015  17:56:00      -71.886      119.434      -14.125       42.648       49.774       29.366     1818.873     2477.487      862.361        1.239        0.258      139.399       29.714        0.045      335.058        5.442      868.379
01/14/2015  17:57:00     -107.173      112.823      -25.509       47.686       41.176       22.659     2273.968     1695.485      513.416        1.467        0.224      155.612       20.025        0.017      335.087        5.489      868.381
01/14/2015  17:58:00      -77.362      133.366      -29.541       48.117       43.968       25.432     2315.204     1933.215      646.801        1.477        0.245      154.180       21.006        0.019      335.047        5.423      868.387
01/14/2015  17:59:00      -33.014       73.452       -8.007       41.015       34.197       16.816     1682.245     1169.456      282.763        0.484        0.157       80.530       17.608        0.048      335.032        5.398      868.403
01/14/2015  18:00:00      -18.561       67.880       -7.054       26.766       26.505       16.723      716.411      702.527      279.646        0.335        0.085       70.372        9.330        0.018      335.023        5.381      868.412
01/14/2015  18:01:00      -18.426       81.047      -12.571       14.955       29.247       14.807      223.638      855.415      219.237        0.418        0.065       83.115       15.848        0.036      334.990        5.327      868.420
01/14/2015  18:02:00      -18.638       50.532        0.764       18.322       30.162       14.919      335.682      909.735      222.570        0.218        0.073       53.859       18.538        0.118      334.940        5.244      868.434
01/14/2015  18:03:00      -24.701       50.007      -10.367       23.043       26.147       15.611      530.967      683.654      243.693        0.234        0.073       55.775       11.677        0.044      335.029        5.392      868.439
01/14/2015  18:04:00      -47.705       54.197       -5.799       31.720       32.887       17.698     1006.128     1081.569      313.220        0.382        0.120       72.202       18.621        0.067      335.011        5.363      868.437
01/14/2015  18:05:00      -26.967       47.535       -4.489       27.610       25.831       13.490      762.324      667.242      181.979        0.231        0.081       54.652       14.510        0.070      334.990        5.327      868.439
01/14/2015  18:06:00      -30.643       93.429      -10.089       36.702       33.070       17.950     1347.025     1093.606      322.197        0.627        0.138       98.326        8.259        0.007      334.987        5.322      868.436
01/14/2015  18:07:00      -31.355       80.418      -10.984       25.251       24.352       14.066      637.629      593.039      197.844        0.450        0.071       86.314       11.183        0.017      334.969        5.294      868.427
01/14/2015  18:08:00      -11.841      127.328      -19.044       20.051       26.959       16.154      402.031      726.812      260.940        0.905        0.069      127.878        9.350        0.005      334.998        5.341      868.435
01/14/2015  18:09:00      -22.056      134.617      -22.838       20.275       33.594       11.772      411.068     1128.544      138.570        1.040        0.084      136.412       11.251        0.007      334.957        5.273      868.421
01/14/2015  18:10:00      -29.459      131.945      -19.732       19.534       32.491       13.718      381.579     1055.662      188.193        1.015        0.081      135.193       12.208        0.008      335.001        5.345      868.432
01/14/2015  18:11:00      -34.594       85.241       -9.858       28.520       37.987       15.062      813.372     1442.975      226.865        0.552        0.124       91.993       17.458        0.036      334.957        5.272      868.425
01/14/2015  18:12:00      -66.061      101.376      -14.501       44.765       33.337       23.472     2003.924     1111.369      550.948        0.926        0.183      121.000       21.368        0.031      335.046        5.421      868.429
01/14/2015  18:13:00      -39.922       68.022       -9.427       27.252       29.071       15.583      742.677      845.138      242.832        0.407        0.092       78.872       12.410        0.025      335.057        5.440      868.429
01/14/2015  18:14:00      -59.460        4.467      -11.499       20.976       18.488        9.089      439.993      341.794       82.608        0.228        0.043       59.627        6.145        0.011      334.876        5.139      868.440
01/14/2015  18:15:00      -80.158       66.777      -21.315       22.080       24.874       14.957      487.519      618.709      223.718        0.633        0.066      104.328       10.141        0.009      335.039        5.410      868.450
01/14/2015  18:16:00      -66.126       32.163      -11.565       33.495       27.685       13.932     1121.917      766.465      194.109        0.381        0.104       73.533       12.417        0.029      335.020        5.376      868.468
01/14/2015  18:17:00      -40.475      -12.342       -7.805       21.781       33.116       13.846      474.398     1096.660      191.703        0.181        0.088       42.315       11.177        0.070      334.900        5.179      868.460
01/14/2015  18:18:00      -58.975       -0.894       -7.409       16.281       19.018       10.427      265.065      361.685      108.721        0.213        0.037       58.981        4.237        0.005      334.925        5.219      868.475
01/14/2015  18:19:00      -68.280        1.754       -9.532       20.413       15.759       13.145      416.688      248.332      172.785        0.280        0.042       68.302        8.212        0.014      334.958        5.274      868.479
01/14/2015  18:20:00      -85.214       35.535      -19.682       12.929       16.856       11.798      167.147      284.108      139.195        0.475        0.030       92.326        3.030        0.001      334.960        5.279      868.489
01/14/2015  18:21:00      -78.756       47.127      -15.668       19.274       22.282       13.683      371.479      496.510      187.221        0.486        0.053       91.780       11.859        0.017      334.946        5.254      868.505
01/14/2015  18:22:00      -77.792       69.386      -22.772       27.578       27.116       19.318      760.573      735.270      373.197        0.663        0.093      104.240       11.152        0.011      334.990        5.329      868.511
01/14/2015  18:23:00      -88.546       63.226      -22.179       16.366       49.757       13.782      267.851     2475.744      189.950        0.763        0.147      108.803       18.404        0.029      334.969        5.293      868.528
01/14/2015  18:24:00      -88.968       74.804      -20.844       22.262       29.687       18.709      495.581      881.325      350.035        0.784        0.086      116.237       12.495        0.012      334.932        5.230      868.523
01/14/2015  18:25:00      -67.223       22.120       -9.652       23.612       22.798       17.160      557.546      519.746      294.465        0.324        0.069       70.769       14.274        0.041      334.878        5.142      868.517
01/14/2015  18:26:00      -41.964        5.445       -5.675       18.437       13.232        8.795      339.933      175.090       77.353        0.121        0.030       42.316        8.768        0.043      334.849        5.094      868.525
01/14/2015  18:27:00      -38.506       10.476      -11.208       19.785       18.239       11.377      391.462      332.679      129.426        0.129        0.043       39.906       11.514        0.083      334.820        5.046      868.522
01/14/2015  18:28:00      -78.536       71.330      -28.499       15.971       21.316       12.447      255.067      454.360      154.921        0.647        0.043      106.094        4.725        0.002      334.887        5.154      868.524
01/14/2015  18:29:00      -84.185       39.802      -18.718       19.896       24.095       14.407      395.850      580.560      207.569        0.510        0.059       93.119       11.810        0.016      334.855        5.103      868.525
01/14/2015  18:30:00      -79.484       22.916      -17.113       21.540       20.128       14.472      463.972      405.145      209.448        0.411        0.054       82.722       12.641        0.023      334.858        5.108      868.520
01/14/2015  18:31:00      -46.021       12.562       -7.481       13.209       26.327       13.621      174.485      693.105      185.522        0.169        0.053       47.705       13.416        0.079      334.792        4.999      868.530
01/14/2015  18:32:00      -64.270       50.690      -24.206       27.546       17.052       10.363      758.759      290.763      107.388        0.422        0.058       81.854        9.672        0.014      334.857        5.108      868.520
01/14/2015  18:33:00      -68.348       21.220       -9.180       15.920       14.695       10.883      253.441      215.948      118.441        0.290        0.029       71.567        5.126        0.005      334.814        5.037      868.526
01/14/2015  18:34:00      -39.684       25.608        3.437       24.745       16.528       14.320      612.338      273.172      205.068        0.167        0.055       47.230       10.899        0.053      334.700        4.845      868.526
01/14/2015  18:35:00      -34.770        7.421        2.209       22.865       14.024       11.621      522.793      196.659      135.058        0.106        0.043       35.553       13.499        0.144      334.624        4.719      868.524
01/14/2015  18:36:00      -33.631       32.622      -10.249       13.279       12.716        6.985      176.319      161.688       48.787        0.134        0.019       46.854        4.881        0.011      334.733        4.900      868.533
01/14/2015  18:37:00       -2.046       50.366       -6.879        8.367       12.886        5.406       70.008      166.050       29.226        0.143        0.013       50.407        4.236        0.007      334.764        4.952      868.538
01/14/2015  18:38:00       -4.143       52.731       -9.708        8.520       11.317        7.858       72.582      128.071       61.746        0.158        0.013       52.893        4.376        0.007      334.779        4.976      868.534
01/14/2015  18:39:00        7.185       53.278       -7.484        7.856        8.858        4.799       61.717       78.469       23.032        0.155        0.008       53.760        4.338        0.007      334.711        4.865      868.537
01/14/2015  18:40:00        9.718       61.147       -9.205        8.714       11.385        6.611       75.927      129.614       43.699        0.208        0.012       61.915        4.641        0.006      334.658        4.778      868.539
01/14/2015  18:41:00        2.858       77.659      -10.441        6.109       22.046        6.863       37.319      486.040       47.098        0.336        0.029       77.712        8.474        0.012      334.635        4.737      868.533
01/14/2015  18:42:00       -4.228       94.321      -15.213        7.319       18.906        6.297       53.570      357.427       39.647        0.480        0.023       94.416        5.557        0.003      334.646        4.756      868.525
01/14/2015  18:43:00      -14.594       94.151      -10.553        9.808       14.098        9.626       96.193      198.746       92.664        0.479        0.019       95.275        6.591        0.005      334.617        4.707      868.531
01/14/2015  18:44:00      -53.898       54.717      -10.943       20.176       26.328       10.650      407.063      693.164      113.433        0.362        0.061       76.804       11.089        0.021      334.556        4.607      868.525
01/14/2015  18:45:00      -68.816       71.396      -13.227       15.030       18.610       11.890      225.900      346.351      141.368        0.536        0.036       99.162        9.471        0.009      334.592        4.667      868.519
01/14/2015  18:46:00      -69.765       56.372      -14.281       11.205       16.626        9.811      125.553      276.427       96.254        0.437        0.025       89.694        9.256        0.011      334.585        4.654      868.525
01/14/2015  18:47:00      -72.323       58.012      -16.172       15.288       24.455       10.287      233.716      598.026      105.814        0.490        0.047       92.714       14.095        0.023      334.632        4.732      868.523
01/14/2015  18:48:00      -31.245       13.974       -1.964       22.255       14.882       11.614      495.306      221.478      134.880        0.101        0.043       34.228       11.219        0.107      334.469        4.462      868.529
01/14/2015  18:49:00      -11.321       47.942       -1.802       13.456       27.565       13.249      181.067      759.839      175.547        0.177        0.056       49.260       12.053        0.060      334.739        4.910      868.543
01/14/2015  18:50:00       -0.621       64.649       -2.913       16.031       22.931       11.646      257.002      525.831      135.627        0.255        0.046       64.652       13.806        0.046      334.721        4.881      868.549
01/14/2015  18:51:00       10.274       53.765       -9.951        8.939       17.860        6.449       79.911      318.962       41.585        0.177        0.022       54.738        8.694        0.025      334.606        4.688      868.549
01/14/2015  18:52:00       10.200       56.166       -9.823       12.344       13.032        9.427      152.377      169.823       88.874        0.188        0.021       57.085        9.017        0.025      334.521        4.549      868.551
01/14/2015  18:53:00       14.367       59.721       -7.844       13.340        9.424        5.924      177.956       88.804       35.092        0.207        0.015       61.425        4.627        0.006      334.573        4.634      868.564
01/14/2015  18:54:00       21.932       69.673      -13.300       13.178       22.586        9.768      173.649      510.120       95.415        0.315        0.039       73.043       12.147        0.028      334.527        4.557      868.565
01/14/2015  18:55:00       14.555       73.138      -14.397       19.241       15.327        9.455      370.218      234.925       89.394        0.323        0.035       74.572        8.959        0.014      334.497        4.509      868.567
01/14/2015  18:56:00        1.983       75.615      -12.054        6.840        9.393        6.062       46.786       88.221       36.747        0.302        0.009       75.641        4.657        0.004      334.533        4.569      868.569
01/14/2015  18:57:00        9.637       68.754      -11.862        8.820       13.862        6.726       77.793      192.158       45.240        0.264        0.016       69.426        8.036        0.013      334.547        4.591      868.577
01/14/2015  18:58:00        7.200       35.019       -0.748       10.775       12.007        5.516      116.108      144.167       30.427        0.078        0.015       35.751        4.588        0.016      334.536        4.573      868.572
01/14/2015  18:59:00       18.438       33.528       -1.898       11.628       18.650       11.231      135.216      347.806      126.142        0.104        0.030       38.264        7.913        0.043      334.468        4.461      868.580
01/14/2015  19:00:00       21.381       25.638        0.283       17.526       16.084       10.343      307.165      258.688      106.987        0.089        0.034       33.383        9.101        0.074      334.429        4.398      868.583
01/14/2015  19:01:00       27.316       22.444       -1.088       11.670        9.656        7.684      136.188       93.237       59.046        0.077        0.014       35.354        6.614        0.035      334.411        4.366      868.572
01/14/2015  19:02:00       17.514       48.544       -7.637       11.409        9.651        6.635      130.176       93.134       44.020        0.149        0.013       51.607        5.748        0.012      334.381        4.317      868.561
01/14/2015  19:03:00        1.334       54.604      -10.961       13.015       17.087        5.763      169.383      291.966       33.208        0.180        0.025       54.621        4.046        0.005      334.425        4.389      868.565
01/14/2015  19:04:00       12.900       39.429       -6.580        7.605        8.270        5.326       57.830       68.398       28.364        0.096        0.008       41.486        3.943        0.009      334.398        4.346      868.569
01/14/2015  19:05:00       -4.142       44.906       -8.864        9.892       10.965        4.740       97.860      120.239       22.464        0.118        0.012       45.097        3.259        0.005      334.373        4.303      868.575
01/14/2015  19:06:00      -30.447      -10.346       -8.068       13.205       22.998        7.132      174.359      528.922       50.861        0.093        0.038       32.157        5.437        0.029      334.264        4.123      868.584
01/14/2015  19:07:00      -46.270      -12.434       -8.393        7.249       10.718        7.072       52.553      114.886       50.009        0.129        0.011       47.911        3.741        0.006      333.822        3.391      868.602
01/14/2015  19:08:00      -61.356      -25.423      -10.914       11.231       10.335        9.698      126.146      106.803       94.051        0.243        0.016       66.415        4.317        0.004      333.889        3.501      868.614
01/14/2015  19:09:00      -74.945      -11.012       -9.581       11.294       11.122        7.900      127.552      123.700       62.415        0.307        0.016       75.750        3.843        0.003      333.770        3.303      868.621
01/14/2015  19:10:00      -58.809       -9.641      -10.409       15.592       12.853       13.644      243.106      165.187      186.165        0.213        0.030       59.594       12.057        0.041      333.771        3.304      868.631
01/14/2015  19:11:00      -96.739       -5.736      -17.449       26.981       16.323       12.476      727.950      266.454      155.651        0.542        0.058       96.909        8.943        0.009      333.713        3.208      868.649
01/14/2015  19:12:00      -86.928       -7.951      -10.242       31.656       19.082       17.402     1002.102      364.125      302.844        0.470        0.083       87.291       17.526        0.040      333.623        3.058      868.653
01/14/2015  19:13:00      -87.697        1.176       -4.952       33.273       27.836       19.601     1107.108      774.848      384.191        0.499        0.113       87.705       17.734        0.041      333.637        3.084      868.645
01/14/2015  19:14:00     -105.562       19.671       -8.095       50.020       36.472       22.014     2502.025     1330.199      484.622        0.796        0.216      107.379       23.342        0.047      333.597        3.016      868.642
01/14/2015  19:15:00     -148.660       14.425       -9.153       39.866       29.839       19.348     1589.259      890.338      374.360        1.262        0.143      149.358       15.040        0.010      333.611        3.039      868.645
01/14/2015  19:16:00     -190.398       26.573      -17.149       33.487       36.931       17.677     1121.357     1363.866      312.477        2.002        0.140      192.243       15.808        0.007      333.631        3.070      868.643
01/14/2015  19:17:00     -186.985       34.594      -17.245       27.068       28.963       16.790      732.683      838.856      281.919        1.916        0.093      190.158       10.595        0.003      333.611        3.039      868.640
01/14/2015  19:18:00     -151.473        6.079       -8.710       45.459       33.140       19.714     2066.483     1098.268      388.652        1.330        0.178      151.595       16.213        0.011      333.556        2.948      868.630
01/14/2015  19:19:00     -196.214       47.222      -14.934       50.918       36.120       26.810     2592.681     1304.669      718.750        2.278        0.231      201.817       22.625        0.013      333.567        2.963      868.635
01/14/2015  19:20:00     -218.264       36.093      -17.048       29.855       33.867       21.484      891.293     1146.981      461.544        2.587        0.125      221.229       15.477        0.005      333.500        2.852      868.624
01/14/2015  19:21:00     -219.080       34.046      -16.523       31.576       33.173       20.959      997.051     1100.478      439.267        2.598        0.127      221.710       17.953        0.007      333.516        2.878      868.619
01/14/2015  19:22:00     -118.616      -31.790      -10.789       55.305       40.088       26.237     3058.658     1607.076      688.397        1.027        0.268      122.802       28.086        0.052      333.479        2.820      868.621
01/14/2015  19:23:00     -120.542       -8.957       -9.601       44.180       41.074       25.299     1951.831     1687.058      640.055        0.949        0.214      120.874       22.905        0.036      333.488        2.834      868.621
01/14/2015  19:24:00     -138.067       -2.656      -10.146       34.953       42.532       23.652     1221.718     1808.969      559.398        1.138        0.180      138.093       15.670        0.013      333.506        2.865      868.637
01/14/2015  19:25:00     -133.311      -17.674      -13.747       36.239       29.357       19.248     1313.273      861.824      370.489        1.041        0.127      134.477       18.019        0.018      333.495        2.846      868.637
01/14/2015  19:26:00     -132.844       -4.449       -8.501       40.077       30.351       23.851     1606.135      921.201      568.851        1.042        0.155      132.918       20.281        0.023      333.417        2.717      868.638
01/14/2015  19:27:00     -179.287       32.789      -15.766       34.679       34.021       19.564     1202.624     1157.449      382.734        1.810        0.137      182.261        9.535        0.003      333.396        2.683      868.639
01/14/2015  19:28:00     -187.948       18.089      -17.209       20.832       27.633       17.694      433.970      763.572      313.077        1.873        0.076      188.817       13.777        0.005      333.473        2.810      868.634
01/14/2015  19:29:00     -160.960       16.037      -16.360       39.557       30.862       19.347     1564.788      952.468      374.297        1.466        0.145      161.757       18.344        0.013      333.361        2.626      868.621
01/14/2015  19:30:00     -186.662       35.435      -16.066       26.530       25.196       16.039      703.838      634.861      257.236        1.898        0.080      189.996        9.698        0.003      333.341        2.592      868.617
01/14/2015  19:31:00     -152.592        4.509      -17.827       43.951       23.775       17.985     1931.680      565.239      323.454        1.322        0.141      152.659       21.728        0.020      333.300        2.522      868.598
01/14/2015  19:32:00     -166.825       28.184      -11.173       29.676       25.496       16.831      880.643      650.035      283.279        1.528        0.091      169.189       13.138        0.006      333.338        2.589      868.602
01/14/2015  19:33:00     -162.655       17.460      -15.140       31.370       29.498       15.476      984.074      870.158      239.493        1.454        0.105      163.589       13.519        0.007      333.351        2.609      868.595
01/14/2015  19:34:00     -141.827        7.111      -12.760       40.087       35.773       20.538     1606.949     1279.698      421.805        1.182        0.165      142.005       15.827        0.012      333.307        2.536      868.606
01/14/2015  19:35:00     -129.799       -6.825       -8.410       49.279       31.611       19.852     2428.391      999.267      394.116        1.039        0.191      129.978       21.272        0.027      333.304        2.531      868.603
01/14/2015  19:36:00     -118.833        3.966       -2.163       44.557       27.659       25.567     1985.290      765.041      653.687        0.877        0.170      118.899       25.383        0.046      333.264        2.464      868.617
01/14/2015  19:37:00     -115.817        1.721       -0.699       47.619       33.297       29.986     2267.582     1108.697      899.178        0.885        0.214      115.830       28.012        0.058      333.233        2.414      868.611
01/14/2015  19:38:00     -118.313       -4.319       -3.447       37.539       30.562       22.660     1409.185      934.024      513.472        0.844        0.143      118.392       22.266        0.035      333.280        2.491      868.613
01/14/2015  19:39:00     -130.599       -0.762      -16.676       31.464       28.268       22.030      990.006      799.065      485.308        0.980        0.114      130.602       20.811        0.025      333.286        2.500      868.622
01/14/2015  19:40:00     -123.893      -17.606       -9.797       35.025       30.737       22.894     1226.736      944.747      524.151        0.923        0.135      125.137       23.045        0.034      333.236        2.417      868.626
01/14/2015  19:41:00     -124.646       -8.680       -7.042       40.542       27.029       21.882     1643.626      730.557      478.817        0.926        0.143      124.947       23.330        0.035      333.227        2.402      868.622
01/14/2015  19:42:00     -121.561      -26.742       -8.354       27.299       24.792       16.181      745.221      614.652      261.832        0.859        0.081      124.468       15.979        0.016      333.237        2.419      868.625
01/14/2015  19:43:00     -148.352        4.407      -11.940       40.246       26.625       22.486     1619.715      708.911      505.627        1.250        0.142      148.417       23.600        0.025      333.228        2.403      868.640
01/14/2015  19:44:00     -130.371       -7.195      -11.648       42.144       30.506       23.275     1776.122      930.626      541.731        1.022        0.162      130.570       21.938        0.028      333.286        2.500      868.645
01/14/2015  19:45:00     -116.471      -37.660       -6.816       41.292       26.532       17.805     1705.049      703.940      317.020        0.888        0.136      122.408       17.812        0.021      333.245        2.432      868.662
01/14/2015  19:46:00     -112.113      -18.435       -1.772       24.787       32.797       14.341      614.377     1075.671      205.660        0.740        0.095      113.619       13.838        0.015      333.252        2.445      868.670
01/14/2015  19:47:00     -114.324      -17.660      -13.069       28.964       22.466       19.353      838.922      504.717      374.539        0.764        0.086      115.680       16.813        0.021      333.246        2.436      868.670
01/14/2015  19:48:00      -98.396       -7.850       -5.251       23.200       30.016       18.162      538.248      900.968      329.855        0.577        0.088       98.709       13.044        0.017      333.189        2.339      868.673
01/14/2015  19:49:00     -107.519       -5.640       -5.497       40.248       24.714       24.233     1619.935      610.786      587.234        0.722        0.141      107.667       26.416        0.060      333.152        2.279      868.655
01/14/2015  19:50:00      -87.618       -9.030       -8.529       35.904       28.203       16.794     1289.132      795.436      282.037        0.510        0.118       88.082       14.111        0.026      333.196        2.352      868.661
01/14/2015  19:51:00     -104.569      -16.553      -11.178       28.030       21.262       19.239      785.674      452.067      370.136        0.647        0.080      105.871       17.586        0.028      333.211        2.377      868.655
01/14/2015  19:52:00      -86.726       -3.351      -10.437       14.782       16.569       14.397      218.511      274.521      207.271        0.417        0.035       86.790        4.024        0.002      333.299        2.523      868.651
01/14/2015  19:53:00     -101.065      -11.736       -6.824       18.568       16.157       18.374      344.788      261.060      337.591        0.567        0.047      101.744       12.405        0.015      333.233        2.413      868.674
01/14/2015  19:54:00     -103.996      -30.711      -12.918       23.666       19.886       13.272      560.087      395.446      176.158        0.653        0.057      108.436        7.232        0.004      333.205        2.367      868.687
01/14/2015  19:55:00     -106.249      -26.037       -7.532       30.294       16.353       19.909      917.710      267.407      396.359        0.680        0.079      109.393       16.492        0.023      333.206        2.367      868.700
01/14/2015  19:56:00     -125.454      -21.382       -9.531       19.413       20.460       13.509      376.865      418.626      182.495        0.863        0.049      127.263        9.735        0.006      333.212        2.378      868.710
01/14/2015  19:57:00     -100.713      -15.682      -10.325       31.701       33.895       20.980     1004.936     1148.864      440.154        0.654        0.130      101.927       20.871        0.042      333.139        2.257      868.711
01/14/2015  19:58:00      -97.837       -7.380       -6.549       37.714       28.382       23.557     1422.331      805.553      554.921        0.623        0.139       98.115       20.989        0.046      333.161        2.295      868.712
01/14/2015  19:59:00      -59.137        4.519        4.238       39.310       26.854       18.209     1545.289      721.146      331.572        0.307        0.130       59.310       18.493        0.097      333.105        2.201      868.712
01/14/2015  20:00:00      -90.766       -7.136       -1.096       42.347       39.028       27.543     1793.272     1523.210      758.612        0.618        0.204       91.046       25.462        0.078      333.201        2.360      868.696
01/14/2015  20:01:00      -69.924       -5.322        2.880       39.183       36.037       22.080     1535.339     1298.687      487.526        0.412        0.166       70.126       21.073        0.090      333.155        2.285      868.675
01/14/2015  20:02:00      -93.821       -2.486       -5.231       37.617       23.992       16.185     1415.034      575.633      261.968        0.554        0.113       93.854       16.775        0.032      333.162        2.295      868.665
01/14/2015  20:03:00      -76.021       -3.888       -1.481       34.599       29.561       18.987     1197.063      873.878      360.497        0.411        0.122       76.120       15.894        0.044      333.204        2.365      868.650
01/14/2015  20:04:00     -109.544       27.984      -10.327       61.089       27.507       23.716     3731.908      756.639      562.428        0.897        0.253      113.062       23.748        0.044      333.147        2.271      868.634
01/14/2015  20:05:00     -105.562       12.368       -1.657       48.255       29.105       22.201     2328.567      847.093      492.898        0.748        0.183      106.285       22.994        0.047      333.164        2.299      868.628
01/14/2015  20:06:00     -107.643        5.370       -8.370       37.786       27.559       19.379     1427.746      759.476      375.543        0.712        0.128      107.777       13.837        0.016      333.147        2.272      868.634
01/14/2015  20:07:00      -75.771        0.112       -3.774       47.764       30.478       20.482     2281.375      928.928      419.502        0.469        0.181       75.771       19.448        0.066      333.103        2.199      868.638
01/14/2015  20:08:00      -53.984       -0.347        0.275       39.750       30.733       20.105     1580.036      944.540      404.205        0.292        0.146       53.985       21.308        0.156      333.050        2.110      868.644
01/14/2015  20:09:00      -69.389       -1.314        3.076       44.357       31.223       17.787     1967.529      974.904      316.372        0.404        0.163       69.402       19.951        0.083      333.048        2.108      868.658
01/14/2015  20:10:00      -95.735       -1.199       -6.942       32.755       36.162       18.899     1072.880     1307.708      357.164        0.598        0.137       95.742       13.418        0.020      333.067        2.139      868.665
01/14/2015  20:11:00      -75.397       -0.945       -4.698       41.819       31.519       18.729     1748.798      993.468      350.758        0.440        0.155       75.403       18.745        0.062      333.012        2.050      868.655
01/14/2015  20:12:00      -95.824      -13.918       -5.895       37.109       28.347       19.058     1377.100      803.551      363.205        0.598        0.127       96.830       19.115        0.039      333.011        2.046      868.658
01/14/2015  20:13:00      -97.797      -10.257       -7.031       24.120       24.861       19.247      581.778      618.059      370.429        0.564        0.079       98.333       12.587        0.016      332.972        1.983      868.665
01/14/2015  20:14:00     -118.708       -7.975      -15.271       28.762       21.535       16.059      827.251      463.768      257.886        0.797        0.077      118.975       13.369        0.013      332.986        2.005      868.658
01/14/2015  20:15:00      -74.635      -17.280       -6.200       23.638       24.777       16.950      558.761      613.902      287.309        0.368        0.073       76.609       14.237        0.035      332.993        2.017      868.658
01/14/2015  20:16:00      -79.396      -15.987      -13.228       26.773       18.254       13.173      716.807      333.199      173.523        0.398        0.061       80.990        8.767        0.012      333.070        2.146      868.670
01/14/2015  20:17:00      -86.255      -23.666      -14.426       21.553       25.312       17.180      464.551      640.675      295.159        0.480        0.070       89.442       13.929        0.024      333.057        2.122      868.669
01/14/2015  20:18:00      -58.488       -7.028       -4.622       36.252       25.056       18.297     1314.201      627.783      334.762        0.288        0.114       58.909       15.780        0.072      332.963        1.968      868.672
01/14/2015  20:19:00      -47.236       -6.137       -0.678       38.426       26.802       18.969     1476.521      718.355      359.825        0.241        0.128       47.633       19.815        0.173      332.969        1.977      868.684
01/14/2015  20:20:00      -54.130      -10.336       -7.533       31.257       27.085       16.105      976.983      733.585      259.381        0.253        0.098       55.108       10.736        0.038      332.943        1.934      868.701
01/14/2015  20:21:00      -75.952        5.992       -0.816       47.771       36.658       24.177     2282.072     1343.782      584.508        0.501        0.211       76.188       18.011        0.056      332.917        1.893      868.706
01/14/2015  20:22:00      -91.879       -0.328       -5.539       38.633       31.093       19.005     1492.543      966.752      361.183        0.565        0.141       91.879       15.190        0.027      332.926        1.906      868.702
01/14/2015  20:23:00     -106.830       -0.321       -6.294       39.931       24.979       20.008     1594.514      623.962      400.335        0.704        0.131      106.830       17.332        0.026      332.969        1.978      868.705
01/14/2015  20:24:00      -84.792       -1.558       -3.634       37.351       32.777       19.922     1395.094     1074.337      396.884        0.504        0.143       84.806       18.540        0.048      332.914        1.888      868.704
01/14/2015  20:25:00      -87.926       -8.380       -2.455       33.988       25.800       21.456     1155.160      665.651      460.362        0.504        0.114       88.325       13.996        0.025      332.904        1.870      868.699
01/14/2015  20:26:00      -79.851       -8.594       -9.483       30.852       17.995       14.990      951.838      323.813      224.713        0.402        0.075       80.312        8.328        0.011      332.863        1.802      868.699
01/14/2015  20:27:00      -78.096      -21.529       -3.743       31.533       29.254       16.568      994.327      855.824      274.501        0.435        0.106       81.009       11.768        0.021      332.860        1.800      868.711
01/14/2015  20:28:00      -82.938      -22.413       -6.366       21.988       21.069       12.855      483.471      443.914      165.262        0.426        0.055       85.913        9.332        0.012      332.828        1.745      868.712
01/14/2015  20:29:00      -70.202        0.650       -5.395       22.421       18.326       18.331      502.712      335.829      336.036        0.307        0.059       70.205       12.565        0.032      332.865        1.807      868.731
01/14/2015  20:30:00     -110.178       -8.985      -12.850       20.540       24.195       14.464      421.874      585.410      209.196        0.680        0.061      110.544        7.198        0.004      332.860        1.799      868.745
01/14/2015  20:31:00     -101.562       -6.906      -12.627       22.412       15.597       18.434      502.302      243.261      339.816        0.580        0.054      101.797       14.662        0.021      332.868        1.813      868.753
01/14/2015  20:32:00     -123.229       -3.287      -14.171       27.358       22.356       18.483      748.448      499.791      341.624        0.849        0.079      123.273       15.968        0.017      332.903        1.869      868.762
01/14/2015  20:33:00      -76.350      -11.289       -9.894       24.916       21.706       18.309      620.806      471.135      335.213        0.374        0.071       77.180       14.303        0.034      332.903        1.870      868.772
01/14/2015  20:34:00      -91.344       -6.742      -12.381       26.133       19.726       15.887      682.947      389.099      252.406        0.493        0.066       91.593       13.037        0.020      332.852        1.785      868.779
01/14/2015  20:35:00      -75.197      -15.510      -14.189       15.943       12.314        9.695      254.167      151.647       93.992        0.330        0.025       76.780        4.771        0.004      332.899        1.862      868.777
01/14/2015  20:36:00      -72.487      -20.062      -10.093       10.510       15.458       11.522      110.463      238.938      132.753        0.312        0.024       75.212        6.086        0.007      332.942        1.934      868.771
01/14/2015  20:37:00      -62.196      -18.521       -7.323       20.829       17.871       14.466      433.838      319.362      209.274        0.261        0.048       64.895        6.623        0.010      332.941        1.931      868.774
01/14/2015  20:38:00      -96.921      -27.892      -15.694       21.486       17.217       12.637      461.637      296.436      159.685        0.567        0.046      100.855        5.122        0.003      332.912        1.883      868.778
01/14/2015  20:39:00     -118.413      -22.591      -14.523       13.558       17.440       13.504      183.826      304.157      182.348        0.771        0.034      120.549        8.245        0.005      332.873        1.821      868.781
01/14/2015  20:40:00     -130.277       -8.132      -16.616       24.540       17.605       15.355      602.199      309.945      235.766        0.923        0.057      130.530       11.107        0.007      332.823        1.738      868.785
01/14/2015  20:41:00     -128.263       -9.573      -21.940       15.254       17.125       12.621      232.699      293.275      159.285        0.885        0.034      128.620        6.869        0.003      332.785        1.675      868.802
01/14/2015  20:42:00     -139.296       -5.788      -16.877       29.713       20.300       16.963      882.881      412.108      287.733        1.065        0.079      139.417       12.444        0.008      332.823        1.738      868.823
01/14/2015  20:43:00     -123.023      -14.065      -10.402       30.898       19.968       20.336      954.707      398.722      413.553        0.860        0.088      123.825       18.764        0.023      332.762        1.636      868.843
01/14/2015  20:44:00      -89.247       -9.546      -11.097       23.690       19.868       19.237      561.201      394.748      370.055        0.475        0.066       89.757       12.496        0.019      332.843        1.769      868.856
01/14/2015  20:45:00      -79.702       -7.403      -10.283       30.787       15.412       13.602      947.847      237.528      185.021        0.394        0.069       80.046       14.324        0.032      332.806        1.710      868.863
01/14/2015  20:46:00      -83.585       -8.008      -14.514       22.840       17.692       13.343      521.665      312.997      178.040        0.414        0.051       83.968        6.960        0.007      332.767        1.644      868.865
01/14/2015  20:47:00      -64.318        0.100      -11.842       35.554       20.434       15.236     1264.071      417.569      232.139        0.310        0.096       64.318        7.908        0.015      332.788        1.679      868.888
01/14/2015  20:48:00      -80.320       -5.039      -11.421       44.390       29.454       21.586     1970.464      867.532      465.954        0.495        0.165       80.478       24.564        0.093      332.737        1.594      868.903
01/14/2015  20:49:00      -65.851      -13.808       -4.165       31.864       32.367       23.577     1015.292     1047.654      555.874        0.358        0.131       67.283       19.094        0.081      332.737        1.593      868.919
01/14/2015  20:50:00      -57.257       -6.297       -3.463       45.082       27.067       18.954     2032.410      732.623      359.269        0.323        0.156       57.602       18.419        0.102      332.707        1.545      868.938
01/14/2015  20:51:00      -35.547       -4.608       -3.338       23.917       26.008       18.072      572.021      676.406      326.614        0.144        0.079       35.845       15.438        0.185      332.740        1.600      868.966
01/14/2015  20:52:00      -40.005       -7.353       -0.396       35.233       26.835       17.840     1241.330      720.130      318.248        0.197        0.114       40.675       15.355        0.143      332.713        1.554      868.986
01/14/2015  20:53:00      -94.228        4.242       -6.902       35.564       33.947       18.790     1264.780     1152.393      353.059        0.586        0.139       94.323       15.194        0.026      332.701        1.534      868.996
01/14/2015  20:54:00      -67.476        0.493        0.306       35.444       29.710       22.397     1256.311      882.683      501.622        0.360        0.132       67.478       16.823        0.062      332.641        1.435      869.016
01/14/2015  20:55:00      -76.172       -4.919      -13.528       35.541       28.351       19.962     1263.182      803.759      398.482        0.424        0.123       76.331       21.874        0.082      332.604        1.375      869.029
01/14/2015  20:56:00      -78.317       -5.797      -15.388       34.182       19.441       15.251     1168.422      377.937      232.582        0.409        0.089       78.531       13.941        0.032      332.591        1.353      869.033
01/14/2015  20:57:00      -56.048       -0.630       -9.256       34.022       19.925       18.333     1157.488      397.001      336.101        0.256        0.095       56.052       16.746        0.089      332.582        1.338      869.031
01/14/2015  20:58:00      -61.988       -2.212      -10.324       23.998       19.848       13.769      575.884      393.947      189.584        0.256        0.058       62.027        7.053        0.013      332.593        1.356      869.027
01/14/2015  20:59:00      -63.306       -7.336       -3.868       21.488       21.921       15.643      461.716      480.548      244.717        0.263        0.059       63.729        4.998        0.006      332.672        1.488      869.029
01/14/2015  21:00:00      -49.575        8.752      -12.384       20.251       21.722       16.272      410.122      471.828      264.778        0.192        0.057       50.341       11.250        0.050      332.783        1.671      869.037
01/14/2015  21:01:00      -61.547       12.884      -14.771       20.450       24.418       14.095      418.210      596.225      198.664        0.269        0.061       62.881        4.695        0.006      332.816        1.725      869.043
01/14/2015  21:02:00      -64.619        9.107      -10.741       27.593       27.784       17.842      761.357      771.934      318.333        0.311        0.093       65.257       11.376        0.030      332.710        1.551      869.047
01/14/2015  21:03:00      -57.344       -7.011      -11.167       23.069       22.386       17.002      532.174      501.129      289.063        0.239        0.066       57.771       14.506        0.063      332.661        1.469      869.048
01/14/2015  21:04:00      -56.685       -4.295      -16.639       32.109       23.309       13.865     1030.983      543.295      192.227        0.264        0.088       56.848       12.931        0.052      332.710        1.552      869.056
01/14/2015  21:05:00      -70.400      -11.896      -11.023       25.540       23.227       15.908      652.277      539.516      253.073        0.333        0.072       71.398       12.837        0.032      332.712        1.553      869.054
01/14/2015  21:06:00      -58.063      -13.382      -12.507       29.052       31.766       18.349      844.041     1009.101      336.691        0.295        0.109       59.585       12.795        0.046      332.662        1.469      869.046
01/14/2015  21:07:00      -63.650       -2.898      -10.217       22.883       22.491       17.397      523.629      505.855      302.656        0.275        0.067       63.716       12.564        0.039      332.733        1.587      869.044
01/14/2015  21:08:00      -68.257       -8.603       -8.568       24.667       19.733       12.504      608.465      389.372      156.339        0.298        0.058       68.797       10.055        0.021      332.713        1.555      869.051
01/14/2015  21:09:00      -50.760       -9.768      -16.961       23.601       21.272       15.809      557.003      452.517      249.929        0.211        0.063       51.691       13.760        0.071      332.664        1.474      869.061
01/14/2015  21:10:00      -53.483      -15.633       -9.674       29.378       17.163       14.396      863.060      294.566      207.252        0.228        0.068       55.721       14.940        0.072      332.553        1.290      869.062
01/14/2015  21:11:00      -80.896      -15.757      -13.310       13.426       16.595       14.752      180.258      275.399      217.620        0.382        0.034       82.417        9.183        0.012      332.465        1.145      869.061
01/14/2015  21:12:00      -90.748      -16.023      -16.149       18.159       13.268       11.224      329.762      176.043      125.987        0.469        0.032       92.152        5.467        0.004      332.382        1.008      869.054
01/14/2015  21:13:00     -105.338      -13.277      -14.203       24.310       20.442       15.801      590.991      417.892      249.679        0.637        0.063      106.172        7.946        0.006      332.474        1.158      869.053
01/14/2015  21:14:00      -95.389      -21.554      -10.258       23.231       16.883       13.531      539.659      285.034      183.076        0.534        0.050       97.794        8.352        0.007      332.483        1.175      869.060
01/14/2015  21:15:00     -101.121       -9.235      -13.309       23.381       15.844       16.719      546.685      251.047      279.529        0.578        0.054      101.542       15.449        0.023      332.481        1.171      869.056
01/14/2015  21:16:00     -110.718      -16.888      -11.434       27.444       18.277       15.932      753.150      334.065      253.818        0.701        0.067      111.999       13.931        0.015      332.479        1.168      869.043
01/14/2015  21:17:00     -106.768      -16.855      -13.884       25.832       20.155       15.617      667.267      406.205      243.892        0.660        0.066      108.090        9.791        0.008      332.489        1.185      869.030
01/14/2015  21:18:00     -114.842      -12.600      -19.673       13.782       12.955       12.069      189.940      167.841      145.662        0.712        0.025      115.531        7.691        0.004      332.452        1.124      869.033
01/14/2015  21:19:00      -89.220      -33.371      -20.135       21.613       15.141       13.083      467.133      229.246      171.175        0.517        0.043       95.256        9.715        0.010      332.536        1.263      869.022
01/14/2015  21:20:00     -116.283      -24.272      -15.221       21.455       18.561       13.337      460.310      344.505      177.886        0.766        0.049      118.789        7.354        0.004      332.476        1.162      869.011
01/14/2015  21:21:00      -71.309      -36.989      -13.745       28.726       25.054       23.713      825.188      627.689      562.297        0.433        0.101       80.332       19.438        0.059      332.570        1.316      869.012
01/14/2015  21:22:00      -84.028      -54.497      -12.279       27.379       33.263       16.322      749.609     1106.452      266.416        0.615        0.106      100.153       12.739        0.016      332.578        1.331      869.013
01/14/2015  21:23:00     -112.282      -29.314      -21.508       16.858       19.409       13.342      284.178      376.697      177.997        0.738        0.042      116.046       10.343        0.008      332.561        1.303      869.008
01/14/2015  21:24:00     -127.582      -30.889      -16.659       17.055       17.076       12.042      290.882      291.606      145.015        0.912        0.036      131.268        7.861        0.004      332.474        1.160      868.994
01/14/2015  21:25:00     -131.848      -34.497      -10.560       15.582       12.983       11.253      242.804      168.547      126.624        0.961        0.027      136.287        2.311        0.000      332.495        1.192      868.995
01/14/2015  21:26:00     -120.485      -29.873       -9.258       18.228       14.306       13.585      332.245      204.671      184.560        0.811        0.036      124.133        6.325        0.003      332.510        1.218      868.996
01/14/2015  21:27:00     -108.993      -32.765      -10.605       16.542       12.895       11.048      273.653      166.285      122.049        0.681        0.028      113.811        7.395        0.004      332.549        1.282      868.997
01/14/2015  21:28:00     -113.031      -10.435      -13.175       15.133       14.116        9.790      228.997      199.263       95.846        0.679        0.026      113.512        7.518        0.004      332.569        1.317      868.994
01/14/2015  21:29:00     -102.234      -24.136      -16.356       16.144       10.657       11.035      260.619      113.565      121.762        0.590        0.025      105.044        5.719        0.003      332.605        1.376      869.005
01/14/2015  21:30:00     -124.374      -13.599      -17.056       12.396        9.564        8.379      153.667       91.476       70.215        0.813        0.016      125.115        3.896        0.001      332.576        1.327      869.003
01/14/2015  21:31:00     -108.465       -8.471      -15.474       12.003       11.028        9.755      144.062      121.614       95.158        0.622        0.018      108.796        2.526        0.001      332.588        1.347      869.011
01/14/2015  21:32:00     -104.227       -8.256      -14.392       12.133       13.956        9.202      147.203      194.782       84.680        0.578        0.021      104.553        5.918        0.003      332.549        1.282      869.028
01/14/2015  21:33:00      -92.580       -0.408      -10.552       15.904       11.106       10.724      252.945      123.335      114.999        0.459        0.025       92.581        3.726        0.002      332.560        1.301      869.040
01/14/2015  21:34:00      -80.005       -3.396      -12.541       20.288       12.421       11.754      411.610      154.291      138.145        0.364        0.035       80.077        6.948        0.008      332.559        1.300      869.054
01/14/2015  21:35:00      -80.669       -8.335       -8.401       35.523       16.701       15.778     1261.859      278.916      248.954        0.422        0.089       81.098       18.726        0.053      332.554        1.290      869.075
01/14/2015  21:36:00     -113.810      -11.973      -19.238       12.950       14.862        8.643      167.702      220.870       74.703        0.696        0.023      114.438        4.683        0.002      332.511        1.221      869.105
01/14/2015  21:37:00      -86.466      -22.947      -11.589       11.712       13.646       13.195      137.162      186.227      174.117        0.432        0.025       89.459        7.678        0.007      332.487        1.182      869.141
01/14/2015  21:38:00      -90.642      -14.130      -10.000       30.322       13.129       15.882      919.419      172.377      252.228        0.493        0.067       91.737       16.601        0.033      332.397        1.032      869.164
01/14/2015  21:39:00     -114.297      -11.295      -17.233       20.416       19.222       12.240      416.809      369.490      149.817        0.721        0.047      114.854        1.978        0.000      332.342        0.941      869.170
01/14/2015  21:40:00     -103.012      -15.370      -15.336       18.811       18.034       16.301      353.859      325.235      265.726        0.601        0.047      104.153        9.730        0.009      332.325        0.913      869.169
01/14/2015  21:41:00      -85.186      -38.756      -13.867       15.077       22.299       13.428      227.317      497.248      180.322        0.493        0.045       93.588        9.201        0.010      332.382        1.009      869.167
01/14/2015  21:42:00      -80.953      -29.296      -17.048       20.726       20.710       12.976      429.551      428.914      168.373        0.436        0.051       86.091       10.622        0.015      332.352        0.956      869.157
01/14/2015  21:43:00     -119.975      -32.983      -14.320       14.070       12.786       11.015      197.970      163.493      121.341        0.808        0.024      124.426        5.502        0.002      332.359        0.969      869.160
01/14/2015  21:44:00     -116.413      -22.431      -15.374       12.582        9.511        6.350      158.310       90.469       40.325        0.729        0.014      118.554        2.556        0.000      332.479        1.167      869.162
01/14/2015  21:45:00     -102.325      -13.539      -13.634       14.700       14.483       10.390      216.095      209.745      107.943        0.569        0.027      103.216        7.890        0.006      332.480        1.166      869.152
01/14/2015  21:46:00      -73.836      -35.757       -7.460       16.772       15.646        9.629      281.289      244.788       92.711        0.370        0.031       82.039        6.553        0.006      332.488        1.183      869.148
01/14/2015  21:47:00      -72.614      -25.655      -12.975        8.005       13.162        6.572       64.080      173.240       43.197        0.319        0.014       77.013        6.104        0.006      332.551        1.287      869.145
01/14/2015  21:48:00      -72.381      -21.019      -10.764        6.996        9.448        6.794       48.947       89.259       46.156        0.299        0.009       75.371        4.111        0.003      332.534        1.256      869.145
01/14/2015  21:49:00      -82.566      -34.829       -4.612       12.491       10.169        7.472      156.018      103.407       55.832        0.418        0.016       89.611        7.087        0.006      332.545        1.276      869.143
01/14/2015  21:50:00      -57.236      -32.603      -10.291       22.513        9.690       11.814      506.830       93.889      139.566        0.259        0.037       65.871        6.431        0.010      332.500        1.204      869.136
01/14/2015  21:51:00      -55.505      -32.803       -5.095       22.232       11.673       10.500      494.250      136.254      110.260        0.246        0.037       64.474        1.866        0.001      332.443        1.107      869.133
01/14/2015  21:52:00      -40.778      -37.295        6.680       36.048       22.433       12.887     1299.454      503.254      166.065        0.253        0.098       55.261       14.636        0.070      332.407        1.050      869.129
01/14/2015  21:53:00      -39.334      -44.186       -4.735       25.305       18.190       12.360      640.356      330.866      152.765        0.232        0.056       59.157       11.827        0.040      332.462        1.140      869.126
01/14/2015  21:54:00      -48.008      -31.632        2.142       26.355       19.049       16.436      694.597      362.847      270.139        0.232        0.066       57.492       16.533        0.083      332.474        1.160      869.122
01/14/2015  21:55:00      -32.747      -21.882       -3.215       37.322       14.773       13.392     1392.955      218.235      179.355        0.168        0.090       39.385       15.486        0.155      332.595        1.359      869.113
01/14/2015  21:56:00      -86.149      -32.794       -8.229       14.294       16.914       12.020      204.316      286.084      144.477        0.460        0.032       92.180        8.152        0.008      332.556        1.295      869.109
01/14/2015  21:57:00      -82.228      -23.875       -0.673       13.188       17.390       11.778      173.931      302.397      138.718        0.397        0.031       85.624        8.222        0.009      332.472        1.157      869.114
01/14/2015  21:58:00      -76.154      -36.346       -2.967       24.474       19.015       15.461      598.995      361.562      239.049        0.416        0.060       84.383       15.259        0.033      332.443        1.108      869.116
01/14/2015  21:59:00      -71.458      -31.827       -6.221       19.136       15.564        9.091      366.176      242.229       82.638        0.342        0.035       78.225        5.748        0.005      332.399        1.035      869.118
01/14/2015  22:00:00      -79.157      -21.806       -8.982       13.838       11.261        6.931      191.493      126.819       48.035        0.359        0.018       82.106        3.085        0.001      332.454        1.127      869.108
01/14/2015  22:01:00      -75.015      -26.513       -7.908        8.116        7.464        6.007       65.867       55.715       36.084        0.328        0.008       79.563        2.798        0.001      332.488        1.182      869.102
01/14/2015  22:02:00      -74.485      -26.743       -7.601        6.924        9.122        6.673       47.942       83.203       44.530        0.325        0.009       79.140        2.407        0.001      332.462        1.140      869.108
01/14/2015  22:03:00      -76.181      -20.164       -7.907       10.511        9.787        7.829      110.476       95.790       61.291        0.327        0.013       78.805        2.331        0.001      332.445        1.112      869.119
01/14/2015  22:04:00      -67.029      -11.586       -4.233       25.603       17.650       11.809      655.537      311.533      139.452        0.288        0.055       68.023       12.237        0.032      332.422        1.074      869.133
01/14/2015  22:05:00     -102.812       -6.793       -9.074       23.160       16.462       14.222      536.402      270.999      202.263        0.585        0.050      103.036       13.132        0.016      332.384        1.010      869.141
01/14/2015  22:06:00     -105.194       -1.836      -15.418       25.732       16.373       13.756      662.113      268.082      189.238        0.621        0.056      105.210       10.372        0.010      332.262        0.812      869.144
01/14/2015  22:07:00     -152.743        2.794      -18.901       21.766       11.969       13.827      473.738      143.250      191.192        1.225        0.040      152.768        6.385        0.002      332.201        0.711      869.154
01/14/2015  22:08:00     -102.083      -19.714       -5.548       39.069       25.692       19.624     1526.401      660.094      385.109        0.671        0.129      103.969       18.777        0.033      332.155        0.633      869.168
01/14/2015  22:09:00      -79.018      -19.958       -4.114       42.524       24.964       17.004     1808.310      623.185      289.128        0.469        0.136       81.499       13.591        0.028      332.115        0.568      869.180
01/14/2015  22:10:00      -76.939      -21.903       -3.815       24.701       24.879       16.242      610.117      618.968      263.813        0.395        0.075       79.996       11.877        0.022      332.155        0.635      869.193
01/14/2015  22:11:00      -98.664      -24.362       -2.054       32.295       25.291       16.855     1042.990      639.634      284.100        0.615        0.098      101.627       17.576        0.030      332.125        0.585      869.211
01/14/2015  22:12:00     -116.486       -6.264       -9.109       37.519       33.419       20.007     1407.655     1116.858      400.269        0.831        0.146      116.654       19.822        0.029      332.122        0.579      869.234
01/14/2015  22:13:00      -78.214      -22.738        2.932       47.789       29.448       18.239     2283.765      867.166      332.672        0.506        0.174       81.452       19.283        0.056      332.059        0.476      869.255
01/14/2015  22:14:00     -120.438       -1.837       -7.601       45.026       33.430       20.387     2027.311     1117.590      415.614        0.906        0.178      120.452       20.411        0.029      331.971        0.328      869.277
01/14/2015  22:15:00     -114.401      -10.877       -8.247       46.457       32.693       27.649     2158.277     1068.857      764.481        0.863        0.200      114.917       27.191        0.056      331.969        0.327      869.294
01/14/2015  22:16:00      -89.935      -18.156        0.215       34.370       34.587       19.703     1181.263     1196.266      388.190        0.559        0.138       91.749       19.341        0.044      332.022        0.415      869.303
01/14/2015  22:17:00      -87.463       -7.126       -1.658       39.348       29.345       23.556     1548.279      861.129      554.875        0.533        0.148       87.753       20.545        0.055      331.971        0.330      869.313
01/14/2015  22:18:00      -47.826       -8.915        3.967       35.933       31.510       18.738     1291.164      992.882      351.131        0.251        0.132       48.650       15.616        0.103      331.950        0.296      869.323
01/14/2015  22:19:00      -54.553      -23.220        1.343       32.380       30.268       20.471     1048.497      916.137      419.060        0.295        0.119       59.290       15.707        0.070      332.024        0.419      869.332
01/14/2015  22:20:00      -33.637      -19.805        0.968       27.605       26.724       15.028      762.012      714.160      225.838        0.161        0.085       39.035        8.440        0.047      332.090        0.526      869.341
01/14/2015  22:21:00      -15.747      -18.158       -4.579       18.724       12.680       13.345      350.607      160.782      178.099        0.064        0.034       24.035       14.405        0.359      332.147        0.620      869.336
01/14/2015  22:22:00      -39.398      -22.464       -6.922       10.964       11.141       12.055      120.211      124.129      145.332        0.125        0.019       45.352        7.450        0.027      332.188        0.689      869.342
01/14/2015  22:23:00      -38.458      -10.028       -3.024        9.831       10.929        6.917       96.654      119.451       47.850        0.093        0.013       39.744        3.233        0.007      332.115        0.568      869.348
01/14/2015  22:24:00      -57.683      -22.514       -7.310       12.512       10.743        7.087      156.550      115.421       50.223        0.210        0.016       61.921        4.684        0.006      332.150        0.626      869.360
01/14/2015  22:25:00      -69.709      -33.805      -10.145       16.016       16.080       13.550      256.527      258.558      183.589        0.340        0.035       77.473        5.612        0.005      332.102        0.546      869.372
01/14/2015  22:26:00      -87.115      -20.055      -11.598       16.604       15.229       12.993      275.692      231.915      168.812        0.440        0.034       89.394       10.899        0.015      332.074        0.500      869.382
01/14/2015  22:27:00      -88.531      -12.385      -14.572       12.064       11.978        7.314      145.533      143.472       53.495        0.427        0.017       89.393        5.704        0.004      332.134        0.600      869.385
01/14/2015  22:28:00      -75.873       -2.763      -12.658       10.833        5.909        8.936      117.355       34.911       79.858        0.308        0.012       75.923        3.792        0.002      332.402        1.041      869.388
01/14/2015  22:29:00      -62.659       -7.264       -9.432        9.818        8.195        7.607       96.390       67.150       57.860        0.214        0.011       63.079        5.388        0.007      332.366        0.981      869.388
01/14/2015  22:30:00      -58.261       -5.068       -6.302       11.019       11.421        7.636      121.418      130.428       58.315        0.188        0.016       58.481        3.450        0.003      332.467        1.149      869.404
01/14/2015  22:31:00      -42.423      -16.417       -7.060        7.364        8.178        7.717       54.224       66.888       59.558        0.115        0.009       45.489        5.059        0.012      332.350        0.954      869.421
01/14/2015  22:32:00      -41.860      -19.758       -6.757        9.615        8.922        5.790       92.451       79.610       33.529        0.120        0.010       46.288        3.193        0.005      332.306        0.881      869.439
01/14/2015  22:33:00      -53.929      -25.759       -7.267       15.514       14.354       10.021      240.679      206.047      100.421        0.209        0.027       59.765        6.928        0.013      332.190        0.693      869.442
01/14/2015  22:34:00      -98.420      -10.052      -13.139       15.230       13.031       12.693      231.948      169.814      161.116        0.526        0.028       98.932        8.368        0.007      332.122        0.579      869.451
01/14/2015  22:35:00      -73.260      -15.995      -14.037        7.392        8.626        7.634       54.636       74.404       58.285        0.300        0.009       74.986        3.583        0.002      332.279        0.840      869.452
01/14/2015  22:36:00      -69.865      -21.566      -13.099       13.569       10.150        7.143      184.121      103.032       51.019        0.293        0.017       73.118        2.356        0.001      332.332        0.924      869.461
01/14/2015  22:37:00      -47.856      -19.550       -8.368       14.073       11.221        8.549      198.048      125.914       73.086        0.157        0.020       51.695        6.208        0.014      332.244        0.782      869.462
01/14/2015  22:38:00      -32.573      -18.395       -7.838       12.090        8.754        5.082      146.164       76.627       25.822        0.085        0.012       37.408        3.971        0.011      332.164        0.648      869.461
01/14/2015  22:39:00      -49.728      -26.352      -11.157       15.691       10.859        9.482      246.218      117.911       89.902        0.187        0.023       56.279        3.706        0.004      332.097        0.538      869.463
01/14/2015  22:40:00      -81.412      -10.262      -13.274       11.621       13.335       10.764      135.051      177.834      115.865        0.367        0.021       82.056        5.638        0.005      331.945        0.287      869.461
01/14/2015  22:41:00      -81.337        3.760      -12.862       32.166       21.297       18.542     1034.641      453.581      343.793        0.431        0.092       81.424       15.973        0.038      331.976        0.339      869.465
01/14/2015  22:42:00     -113.424        6.575      -18.339       22.454       14.250       14.357      504.195      203.056      206.118        0.708        0.046      113.614        6.355        0.003      332.045        0.453      869.455
01/14/2015  22:43:00      -90.750       -2.205      -14.259       23.078       18.091       16.335      532.584      327.287      266.832        0.478        0.056       90.776        5.125        0.003      332.019        0.410      869.445
01/14/2015  22:44:00      -92.037       -6.959      -11.701       19.622       16.209       10.853      385.041      262.728      117.780        0.471        0.038       92.300        6.530        0.005      331.973        0.333      869.442
01/14/2015  22:45:00      -78.079      -20.143      -10.650       10.669        9.098        8.366      113.820       82.772       69.991        0.344        0.013       80.635        4.457        0.003      332.180        0.675      869.433
01/14/2015  22:46:00      -84.317      -26.542       -9.295       16.540       12.403       11.469      273.570      153.845      131.530        0.423        0.028       88.396        7.073        0.006      332.012        0.396      869.437
01/14/2015  22:47:00      -84.010      -28.135      -12.251       20.522       11.010        8.596      421.133      121.214       73.886        0.431        0.031       88.596        2.937        0.001      331.904        0.221      869.440
01/14/2015  22:48:00      -97.484      -12.748       -8.579       17.952       16.064       15.071      322.291      258.065      227.127        0.527        0.040       98.314       12.201        0.015      331.880        0.181      869.444
01/14/2015  22:49:00      -88.607      -18.875       -9.748       20.963       13.201       12.524      439.456      174.265      156.854        0.454        0.039       90.595        2.035        0.001      331.871        0.165      869.443
01/14/2015  22:50:00      -91.892       -0.864      -12.141       14.820       14.904       12.717      219.641      222.120      161.732        0.460        0.030       91.896        6.476        0.005      331.910        0.230      869.443
01/14/2015  22:51:00      -81.069      -23.357      -11.617       23.240       16.937       11.535      540.084      286.870      133.046        0.411        0.048       84.367        9.071        0.012      331.869        0.163      869.439
01/14/2015  22:52:00      -93.704       -9.751      -12.283       18.960       16.136       13.874      359.468      260.356      192.497        0.492        0.041       94.210        8.656        0.008      331.837        0.110      869.452
01/14/2015  22:53:00     -110.487      -11.866      -12.858       26.694       15.521       12.325      712.580      240.887      151.900        0.681        0.055      111.122        9.609        0.007      331.795        0.041      869.453
01/14/2015  22:54:00      -71.892      -19.738       -7.257       29.237       26.913       16.244      854.802      724.306      263.875        0.373        0.092       74.552       13.584        0.033      331.759       -0.018      869.450
01/14/2015  22:55:00      -88.223        4.610      -12.038       22.580       21.955       12.616      509.866      482.032      159.167        0.455        0.058       88.344       11.170        0.016      331.730       -0.064      869.453
01/14/2015  22:56:00      -74.595       -2.347      -17.001       25.492       15.673       11.818      649.859      245.653      139.669        0.345        0.052       74.632        8.575        0.013      331.785        0.022      869.454
01/14/2015  22:57:00      -45.553       -7.015      -10.455        8.278       12.341        8.830       68.523      152.295       77.965        0.127        0.015       46.090        4.659        0.010      331.797        0.044      869.464
01/14/2015  22:58:00      -29.144      -23.616      -10.582       15.595       12.100        8.678      243.207      146.401       75.306        0.099        0.023       37.511        3.498        0.009      331.923        0.251      869.463
01/14/2015  22:59:00      -40.905      -14.718      -14.942       11.592        9.637        6.719      134.370       92.881       45.143        0.119        0.014       43.472        3.491        0.006      332.037        0.440      869.455
01/14/2015  23:00:00      -39.561       -7.422       -7.293        8.444        7.426        6.566       71.300       55.151       43.116        0.092        0.008       40.251        4.354        0.012      332.011        0.397      869.441
01/14/2015  23:01:00      -41.575      -16.434      -10.640        9.441       12.736        6.994       89.129      162.216       48.923        0.121        0.015       44.705        2.779        0.004      331.978        0.342      869.429
01/14/2015  23:02:00      -46.684      -16.045      -12.360        9.685        9.462        7.144       93.793       89.523       51.033        0.141        0.012       49.364        2.852        0.003      332.113        0.565      869.429
01/14/2015  23:03:00      -73.326      -28.546      -12.457       14.973       12.241        9.316      224.193      149.840       86.797        0.340        0.023       78.687        5.643        0.005      331.905        0.221      869.442
01/14/2015  23:04:00     -106.665      -23.312      -14.019       16.109       14.501        8.840      259.506      210.266       78.138        0.633        0.027      109.183        5.204        0.002      331.777        0.011      869.453
01/14/2015  23:05:00     -100.280      -23.257      -11.993       20.710       19.253       13.276      428.885      370.677      176.262        0.586        0.049      102.942       11.098        0.012      331.752       -0.030      869.461
01/14/2015  23:06:00      -98.496      -21.671       -6.170       20.754       18.848       17.114      430.713      355.238      292.875        0.564        0.054      100.852       13.312        0.017      331.733       -0.062      869.466
01/14/2015  23:07:00     -113.184      -28.940      -13.965       22.844       14.836       12.805      521.831      220.122      163.964        0.737        0.045      116.825       10.226        0.008      331.693       -0.124      869.480
01/14/2015  23:08:00     -124.353      -29.843      -10.542       22.962       24.353       18.545      527.273      593.081      343.915        0.896        0.073      127.884       10.516        0.007      331.738       -0.053      869.488
01/14/2015  23:09:00     -140.304      -31.875       -6.872       23.778       20.376       16.910      565.399      415.193      285.946        1.101        0.063      143.879       16.805        0.014      331.854        0.138      869.489
01/14/2015  23:10:00     -118.704      -25.110       -1.623       37.662       22.144       19.389     1418.451      490.355      375.939        0.850        0.114      121.331       21.319        0.031      331.909        0.228      869.493
01/14/2015  23:11:00     -111.002      -24.949       -4.891       23.467       19.140       13.626      550.708      366.355      185.662        0.704        0.055      113.772       11.507        0.010      331.984        0.350      869.488
01/14/2015  23:12:00      -51.564      -11.783       -2.772       30.574       22.258       13.690      934.773      495.413      187.422        0.221        0.081       52.894        6.205        0.014      331.943        0.283      869.496
01/14/2015  23:13:00      -70.395      -14.057       -2.645       27.300       17.496       12.940      745.301      306.115      167.448        0.319        0.061       71.785       13.344        0.035      332.012        0.397      869.505
01/14/2015  23:14:00      -69.234      -15.691       -4.673       22.456       15.210       11.865      504.261      231.344      140.768        0.297        0.044       70.990       10.792        0.023      332.033        0.433      869.513
01/14/2015  23:15:00      -35.587       -3.583       -4.167       24.510       14.829        8.584      600.727      219.898       73.687        0.110        0.045       35.767       10.365        0.084      332.069        0.493      869.515
01/14/2015  23:16:00      -43.840      -10.957       -2.831       22.762       13.688        8.845      518.087      187.353       78.228        0.142        0.039       45.189        9.300        0.042      332.180        0.676      869.524
01/14/2015  23:17:00      -64.305       -6.173       -8.115       19.229       15.078        9.623      369.768      227.354       92.604        0.246        0.034       64.600        9.960        0.024      332.205        0.717      869.523
01/14/2015  23:18:00      -84.241      -10.519       -8.280       22.188       16.127        9.977      492.301      260.088       99.533        0.406        0.043       84.895        9.376        0.012      332.168        0.656      869.525
01/14/2015  23:19:00      -97.972      -33.878       -7.340       21.583       12.817        9.584      465.834      164.270       91.851        0.576        0.036      103.664       10.850        0.011      332.156        0.635      869.539
01/14/2015  23:20:00      -89.302      -33.661       -6.190       15.758       13.890       13.152      248.317      192.934      172.987        0.488        0.031       95.435        7.765        0.007      332.142        0.612      869.551
01/14/2015  23:21:00      -70.488      -34.571       -3.902       20.148       12.141       11.445      405.944      147.395      130.980        0.343        0.034       78.509        7.287        0.009      332.049        0.459      869.550
01/14/2015  23:22:00      -75.754      -47.217       -1.873       16.726       18.689       13.195      279.758      349.283      174.121        0.439        0.040       89.265       11.456        0.016      332.038        0.441      869.553
01/14/2015  23:23:00      -70.890      -36.136       -0.302       17.164       15.550       10.104      294.596      241.807      102.082        0.348        0.032       79.569        9.455        0.014      332.115        0.568      869.556
01/14/2015  23:24:00      -74.464      -44.551       -1.775       16.543       13.006       11.054      273.655      169.161      122.180        0.405        0.028       86.774        8.616        0.010      332.139        0.608      869.558
01/14/2015  23:25:00      -59.851      -36.731        3.496       27.124       25.651       15.586      735.718      657.955      242.924        0.329        0.082       70.223       15.641        0.050      332.068        0.490      869.548
01/14/2015  23:26:00      -44.325      -33.639        3.749       29.818       19.243       14.760      889.088      370.289      217.847        0.229        0.074       55.644       16.435        0.087      332.073        0.499      869.549
01/14/2015  23:27:00      -68.867      -45.144       -1.258       17.834       13.691       11.216      318.055      187.448      125.805        0.371        0.032       82.344        8.524        0.011      332.089        0.525      869.546
01/14/2015  23:28:00      -70.101      -52.375       -3.998       18.786       13.213       11.591      352.911      174.576      134.358        0.417        0.033       87.507        7.116        0.007      332.101        0.546      869.545
01/14/2015  23:29:00      -81.401      -47.330       -3.901       16.414       16.370       12.452      269.422      267.967      155.061        0.479        0.035       94.161        8.421        0.008      332.069        0.490      869.540
01/14/2015  23:30:00      -89.229      -52.112      -12.430       17.367       10.856        8.615      301.611      117.851       74.210        0.566        0.025      103.331        6.629        0.004      332.043        0.451      869.534
01/14/2015  23:31:00      -72.771      -42.562      -10.637        8.244        9.046        8.083       67.968       81.832       65.332        0.372        0.011       84.304        3.711        0.002      332.075        0.502      869.525
01/14/2015  23:32:00      -63.631      -31.214      -11.153        9.045        8.512        8.907       81.819       72.451       79.335        0.269        0.012       70.875        5.180        0.005      332.107        0.555      869.512
01/14/2015  23:33:00      -62.291      -32.082      -11.108        8.996       12.331        8.538       80.921      152.048       72.893        0.267        0.015       70.068        3.509        0.003      332.130        0.593      869.497
01/14/2015  23:34:00      -57.712      -26.200      -15.705        7.347       13.141        6.890       53.972      172.693       47.475        0.227        0.014       63.381        3.484        0.003      332.116        0.570      869.492
01/14/2015  23:35:00      -55.716      -30.128      -10.077       10.022        8.275        8.291      100.438       68.474       68.745        0.218        0.012       63.340        1.540        0.001      332.116        0.571      869.492
01/14/2015  23:36:00      -51.686      -21.874       -5.940        8.477       14.069        6.922       71.853      197.940       47.909        0.175        0.016       56.124        6.267        0.012      332.086        0.521      869.491
01/14/2015  23:37:00      -50.742      -22.396      -13.064       10.131       11.777        6.830      102.642      138.699       46.645        0.177        0.014       55.465        5.137        0.009      332.098        0.540      869.485
01/14/2015  23:38:00      -45.643      -26.392      -12.904       11.073        7.595        8.039      122.617       57.691       64.620        0.160        0.012       52.724        3.944        0.006      331.991        0.364      869.477
01/14/2015  23:39:00      -25.762      -16.626       -5.883       12.528        7.734        8.857      156.948       59.808       78.441        0.063        0.015       30.661        7.014        0.052      332.005        0.384      869.468
01/14/2015  23:40:00      -28.874      -12.514       -6.224        9.874        8.656        6.934       97.501       74.925       48.076        0.062        0.011       31.469        4.340        0.019      332.198        0.705      869.451
01/14/2015  23:41:00      -19.776        2.092       -0.495        8.103        5.764        5.379       65.656       33.219       28.929        0.026        0.006       19.886        5.148        0.067      332.379        1.003      869.437
01/14/2015  23:42:00       -3.079       11.570        3.403       11.337        8.090        6.715      128.520       65.454       45.089        0.020        0.012       11.973        6.916        0.334      332.450        1.120      869.418
01/14/2015  23:43:00      -23.987      -11.290        5.052        5.959        9.204        5.982       35.515       84.710       35.779        0.044        0.008       26.511        2.141        0.007      332.318        0.902      869.405
01/14/2015  23:44:00      -28.025      -19.205       -2.607        9.350        6.815        6.062       87.431       46.448       36.754        0.067        0.009       33.974        2.865        0.007      332.147        0.621      869.393
01/14/2015  23:45:00      -34.308      -17.480       -2.036        7.068        5.977        6.388       49.956       35.730       40.803        0.081        0.006       38.504        2.402        0.004      332.003        0.384      869.378
01/14/2015  23:46:00      -37.287      -18.703       -6.127        5.316        4.133        5.640       28.262       17.081       31.805        0.093        0.004       41.715        2.362        0.003      332.026        0.421      869.363
01/14/2015  23:47:00      -12.025      -13.191       -6.162       10.286        6.368        5.079      105.793       40.554       25.797        0.026        0.009       17.850        1.182        0.004      332.051        0.464      869.346
01/14/2015  23:48:00        0.346      -12.916       -2.765        5.475        6.771        5.476       29.975       45.840       29.982        0.014        0.005       12.921        4.989        0.149      332.104        0.548      869.336
01/14/2015  23:49:00        3.746       10.126        9.538        5.434        6.802        5.633       29.525       46.263       31.729        0.016        0.005       10.797        5.230        0.235      332.055        0.467      869.334
01/14/2015  23:50:00       11.779       20.339       19.051       10.782       12.850        7.987      116.251      165.134       63.799        0.063        0.017       23.503        5.877        0.063      331.935        0.270      869.334
01/14/2015  23:51:00       22.820       13.775       -0.289       11.307       11.762       10.548      127.839      138.335      111.251        0.054        0.019       26.655        7.809        0.086      331.770       -0.003      869.334
01/14/2015  23:52:00       18.276       23.354        3.652        8.995       13.496        9.720       80.914      182.141       94.470        0.063        0.018       29.655        9.247        0.097      331.694       -0.124      869.334
01/14/2015  23:53:00       20.488       30.143       -9.810        7.559        7.515        4.223       57.136       56.479       17.830        0.078        0.007       36.446        4.252        0.014      331.647       -0.201      869.341
01/14/2015  23:54:00       10.423        5.453        3.143        5.038        5.231        6.033       25.386       27.364       36.391        0.012        0.004       11.764        3.508        0.089      331.696       -0.120      869.344
01/14/2015  23:55:00        2.250       -1.267        3.274        5.718        4.405        4.199       32.693       19.403       17.628        0.004        0.003        2.582        2.136        0.684      331.759       -0.018      869.347
01/14/2015  23:56:00       -8.644       -7.623        0.458        5.255        7.023        5.447       27.611       49.320       29.672        0.012        0.005       11.525        4.365        0.143      331.768       -0.007      869.352
01/14/2015  23:57:00      -42.757        7.256       -4.787       12.857       15.375        6.549      165.301      236.401       42.890        0.117        0.022       43.369        4.070        0.009      331.767       -0.005      869.351
01/14/2015  23:58:00      -34.583       24.262       -4.728       12.843       13.052        6.119      164.934      170.342       37.437        0.109        0.019       42.245        3.354        0.006      331.778        0.014      869.349
01/14/2015  23:59:00      -25.419       -0.265       -3.793       11.452        6.472        5.375      131.143       41.884       28.890        0.043        0.010       25.420        5.152        0.041      331.736       -0.056      869.347
